<?xml version="1.0" encoding="UTF-8" standalone="no" ?>
<gpx xmlns="http://www.topografix.com/GPX/1/1" xmlns:xsi="http://www.w3.org/2001/XMLSchema-instance" xsi:schemaLocation="http://www.topografix.com/GPX/1/1 http://www.topografix.com/GPX/1/1/gpx.xsd" version="1.1" creator="VisuGPX - https://www.visugpx.com">
  <metadata>
    <name>VTT - Jouques St Paul</name>
    <desc><![CDATA[Sortie sans trop de difficulté]]></desc>
  </metadata>
  <trk>
    <name><![CDATA[VTT - Jouques St Paul]]></name>
    <trkseg>
      <trkpt lat="43.63694" lon="5.63838">
        <ele>270.39999389648</ele>
        <time>2013-03-02T08:33:37.000Z</time>
      </trkpt>
      <trkpt lat="43.63692" lon="5.63838">
        <ele>270.20001220703</ele>
        <time>2013-03-02T08:33:44.000Z</time>
      </trkpt>
      <trkpt lat="43.63692" lon="5.63839">
        <ele>270.20001220703</ele>
        <time>2013-03-02T08:33:47.000Z</time>
      </trkpt>
      <trkpt lat="43.63691" lon="5.63838">
        <ele>270</ele>
        <time>2013-03-02T08:33:48.000Z</time>
      </trkpt>
      <trkpt lat="43.63691" lon="5.63837">
        <ele>270</ele>
        <time>2013-03-02T08:33:49.000Z</time>
      </trkpt>
      <trkpt lat="43.63692" lon="5.63836">
        <ele>270.20001220703</ele>
        <time>2013-03-02T08:33:50.000Z</time>
      </trkpt>
      <trkpt lat="43.63693" lon="5.63834">
        <ele>270.20001220703</ele>
        <time>2013-03-02T08:33:51.000Z</time>
      </trkpt>
      <trkpt lat="43.63699" lon="5.63821">
        <ele>271.39999389648</ele>
        <time>2013-03-02T08:34:00.000Z</time>
      </trkpt>
      <trkpt lat="43.63696" lon="5.63808">
        <ele>271</ele>
        <time>2013-03-02T08:34:11.000Z</time>
      </trkpt>
      <trkpt lat="43.63695" lon="5.63804">
        <ele>271</ele>
        <time>2013-03-02T08:34:23.000Z</time>
      </trkpt>
      <trkpt lat="43.63693" lon="5.63797">
        <ele>270.60000610352</ele>
        <time>2013-03-02T08:34:34.000Z</time>
      </trkpt>
      <trkpt lat="43.63693" lon="5.63799">
        <ele>270.60000610352</ele>
        <time>2013-03-02T08:34:42.000Z</time>
      </trkpt>
      <trkpt lat="43.63696" lon="5.63802">
        <ele>271</ele>
        <time>2013-03-02T08:34:58.000Z</time>
      </trkpt>
      <trkpt lat="43.63695" lon="5.63802">
        <ele>270.79998779297</ele>
        <time>2013-03-02T08:35:09.000Z</time>
      </trkpt>
      <trkpt lat="43.63688" lon="5.63802">
        <ele>269.79998779297</ele>
        <time>2013-03-02T08:35:29.000Z</time>
      </trkpt>
      <trkpt lat="43.6369" lon="5.63801">
        <ele>270.20001220703</ele>
        <time>2013-03-02T08:35:51.000Z</time>
      </trkpt>
      <trkpt lat="43.63692" lon="5.63807">
        <ele>270.39999389648</ele>
        <time>2013-03-02T08:35:59.000Z</time>
      </trkpt>
      <trkpt lat="43.63695" lon="5.63817">
        <ele>270.79998779297</ele>
        <time>2013-03-02T08:36:05.000Z</time>
      </trkpt>
      <trkpt lat="43.63702" lon="5.63847">
        <ele>271.60000610352</ele>
        <time>2013-03-02T08:36:16.000Z</time>
      </trkpt>
      <trkpt lat="43.63708" lon="5.63884">
        <ele>272.20001220703</ele>
        <time>2013-03-02T08:36:25.000Z</time>
      </trkpt>
      <trkpt lat="43.63712" lon="5.63934">
        <ele>272.39999389648</ele>
        <time>2013-03-02T08:36:36.000Z</time>
      </trkpt>
      <trkpt lat="43.63717" lon="5.63975">
        <ele>273.20001220703</ele>
        <time>2013-03-02T08:36:45.000Z</time>
      </trkpt>
      <trkpt lat="43.63723" lon="5.64037">
        <ele>273.79998779297</ele>
        <time>2013-03-02T08:36:58.000Z</time>
      </trkpt>
      <trkpt lat="43.63719" lon="5.64086">
        <ele>273.20001220703</ele>
        <time>2013-03-02T08:37:09.000Z</time>
      </trkpt>
      <trkpt lat="43.63711" lon="5.64129">
        <ele>272.60000610352</ele>
        <time>2013-03-02T08:37:19.000Z</time>
      </trkpt>
      <trkpt lat="43.63706" lon="5.64155">
        <ele>272</ele>
        <time>2013-03-02T08:37:24.000Z</time>
      </trkpt>
      <trkpt lat="43.63704" lon="5.64161">
        <ele>271.60000610352</ele>
        <time>2013-03-02T08:37:25.000Z</time>
      </trkpt>
      <trkpt lat="43.63702" lon="5.64166">
        <ele>271.39999389648</ele>
        <time>2013-03-02T08:37:26.000Z</time>
      </trkpt>
      <trkpt lat="43.63699" lon="5.64184">
        <ele>271</ele>
        <time>2013-03-02T08:37:29.000Z</time>
      </trkpt>
      <trkpt lat="43.63683" lon="5.64254">
        <ele>269</ele>
        <time>2013-03-02T08:37:42.000Z</time>
      </trkpt>
      <trkpt lat="43.63679" lon="5.64281">
        <ele>268.60000610352</ele>
        <time>2013-03-02T08:37:48.000Z</time>
      </trkpt>
      <trkpt lat="43.63681" lon="5.64284">
        <ele>269</ele>
        <time>2013-03-02T08:37:49.000Z</time>
      </trkpt>
      <trkpt lat="43.63683" lon="5.64287">
        <ele>269.39999389648</ele>
        <time>2013-03-02T08:37:50.000Z</time>
      </trkpt>
      <trkpt lat="43.63704" lon="5.64305">
        <ele>272.60000610352</ele>
        <time>2013-03-02T08:37:58.000Z</time>
      </trkpt>
      <trkpt lat="43.63705" lon="5.6431">
        <ele>273</ele>
        <time>2013-03-02T08:37:59.000Z</time>
      </trkpt>
      <trkpt lat="43.63705" lon="5.64314">
        <ele>273</ele>
        <time>2013-03-02T08:38:00.000Z</time>
      </trkpt>
      <trkpt lat="43.63705" lon="5.6432">
        <ele>273.20001220703</ele>
        <time>2013-03-02T08:38:01.000Z</time>
      </trkpt>
      <trkpt lat="43.63705" lon="5.64324">
        <ele>273.20001220703</ele>
        <time>2013-03-02T08:38:02.000Z</time>
      </trkpt>
      <trkpt lat="43.63704" lon="5.64329">
        <ele>273.20001220703</ele>
        <time>2013-03-02T08:38:03.000Z</time>
      </trkpt>
      <trkpt lat="43.63699" lon="5.64362">
        <ele>273.60000610352</ele>
        <time>2013-03-02T08:38:09.000Z</time>
      </trkpt>
      <trkpt lat="43.63692" lon="5.6439">
        <ele>273.60000610352</ele>
        <time>2013-03-02T08:38:14.000Z</time>
      </trkpt>
      <trkpt lat="43.63689" lon="5.64396">
        <ele>273.60000610352</ele>
        <time>2013-03-02T08:38:15.000Z</time>
      </trkpt>
      <trkpt lat="43.63686" lon="5.64401">
        <ele>273.60000610352</ele>
        <time>2013-03-02T08:38:16.000Z</time>
      </trkpt>
      <trkpt lat="43.6368" lon="5.6441">
        <ele>273.20001220703</ele>
        <time>2013-03-02T08:38:18.000Z</time>
      </trkpt>
      <trkpt lat="43.63677" lon="5.64414">
        <ele>273</ele>
        <time>2013-03-02T08:38:19.000Z</time>
      </trkpt>
      <trkpt lat="43.63673" lon="5.64417">
        <ele>272.60000610352</ele>
        <time>2013-03-02T08:38:20.000Z</time>
      </trkpt>
      <trkpt lat="43.63666" lon="5.64423">
        <ele>273.39999389648</ele>
        <time>2013-03-02T08:38:22.000Z</time>
      </trkpt>
      <trkpt lat="43.63662" lon="5.64426">
        <ele>274</ele>
        <time>2013-03-02T08:38:23.000Z</time>
      </trkpt>
      <trkpt lat="43.63623" lon="5.6445">
        <ele>276</ele>
        <time>2013-03-02T08:38:34.000Z</time>
      </trkpt>
      <trkpt lat="43.63601" lon="5.6448">
        <ele>277.79998779297</ele>
        <time>2013-03-02T08:38:43.000Z</time>
      </trkpt>
      <trkpt lat="43.63583" lon="5.64532">
        <ele>280</ele>
        <time>2013-03-02T08:38:54.000Z</time>
      </trkpt>
      <trkpt lat="43.63561" lon="5.64578">
        <ele>284.60000610352</ele>
        <time>2013-03-02T08:39:05.000Z</time>
      </trkpt>
      <trkpt lat="43.63553" lon="5.64637">
        <ele>285.39999389648</ele>
        <time>2013-03-02T08:39:16.000Z</time>
      </trkpt>
      <trkpt lat="43.63559" lon="5.64708">
        <ele>286</ele>
        <time>2013-03-02T08:39:29.000Z</time>
      </trkpt>
      <trkpt lat="43.63569" lon="5.6476">
        <ele>285.79998779297</ele>
        <time>2013-03-02T08:39:39.000Z</time>
      </trkpt>
      <trkpt lat="43.63573" lon="5.64818">
        <ele>286</ele>
        <time>2013-03-02T08:39:50.000Z</time>
      </trkpt>
      <trkpt lat="43.63581" lon="5.6488">
        <ele>283.60000610352</ele>
        <time>2013-03-02T08:40:02.000Z</time>
      </trkpt>
      <trkpt lat="43.63583" lon="5.64884">
        <ele>283</ele>
        <time>2013-03-02T08:40:03.000Z</time>
      </trkpt>
      <trkpt lat="43.63587" lon="5.64888">
        <ele>283.60000610352</ele>
        <time>2013-03-02T08:40:04.000Z</time>
      </trkpt>
      <trkpt lat="43.6359" lon="5.64892">
        <ele>284.20001220703</ele>
        <time>2013-03-02T08:40:05.000Z</time>
      </trkpt>
      <trkpt lat="43.63594" lon="5.64894">
        <ele>284.79998779297</ele>
        <time>2013-03-02T08:40:06.000Z</time>
      </trkpt>
      <trkpt lat="43.63598" lon="5.64897">
        <ele>285.60000610352</ele>
        <time>2013-03-02T08:40:07.000Z</time>
      </trkpt>
      <trkpt lat="43.63602" lon="5.64899">
        <ele>286.20001220703</ele>
        <time>2013-03-02T08:40:08.000Z</time>
      </trkpt>
      <trkpt lat="43.63614" lon="5.64904">
        <ele>288</ele>
        <time>2013-03-02T08:40:11.000Z</time>
      </trkpt>
      <trkpt lat="43.63621" lon="5.64909">
        <ele>288.79998779297</ele>
        <time>2013-03-02T08:40:13.000Z</time>
      </trkpt>
      <trkpt lat="43.63624" lon="5.64913">
        <ele>289.20001220703</ele>
        <time>2013-03-02T08:40:14.000Z</time>
      </trkpt>
      <trkpt lat="43.63627" lon="5.64916">
        <ele>289.39999389648</ele>
        <time>2013-03-02T08:40:15.000Z</time>
      </trkpt>
      <trkpt lat="43.6363" lon="5.64921">
        <ele>289.79998779297</ele>
        <time>2013-03-02T08:40:16.000Z</time>
      </trkpt>
      <trkpt lat="43.63633" lon="5.64926">
        <ele>290</ele>
        <time>2013-03-02T08:40:17.000Z</time>
      </trkpt>
      <trkpt lat="43.63635" lon="5.64931">
        <ele>290.20001220703</ele>
        <time>2013-03-02T08:40:18.000Z</time>
      </trkpt>
      <trkpt lat="43.63636" lon="5.64936">
        <ele>290.20001220703</ele>
        <time>2013-03-02T08:40:19.000Z</time>
      </trkpt>
      <trkpt lat="43.63637" lon="5.64941">
        <ele>290.20001220703</ele>
        <time>2013-03-02T08:40:20.000Z</time>
      </trkpt>
      <trkpt lat="43.63638" lon="5.64947">
        <ele>290.20001220703</ele>
        <time>2013-03-02T08:40:21.000Z</time>
      </trkpt>
      <trkpt lat="43.63638" lon="5.64952">
        <ele>290</ele>
        <time>2013-03-02T08:40:22.000Z</time>
      </trkpt>
      <trkpt lat="43.6364" lon="5.64974">
        <ele>289.39999389648</ele>
        <time>2013-03-02T08:40:26.000Z</time>
      </trkpt>
      <trkpt lat="43.63642" lon="5.64986">
        <ele>289</ele>
        <time>2013-03-02T08:40:28.000Z</time>
      </trkpt>
      <trkpt lat="43.63645" lon="5.64997">
        <ele>288.60000610352</ele>
        <time>2013-03-02T08:40:30.000Z</time>
      </trkpt>
      <trkpt lat="43.6365" lon="5.65007">
        <ele>288.60000610352</ele>
        <time>2013-03-02T08:40:32.000Z</time>
      </trkpt>
      <trkpt lat="43.63653" lon="5.65012">
        <ele>288.79998779297</ele>
        <time>2013-03-02T08:40:33.000Z</time>
      </trkpt>
      <trkpt lat="43.63656" lon="5.65016">
        <ele>288.79998779297</ele>
        <time>2013-03-02T08:40:34.000Z</time>
      </trkpt>
      <trkpt lat="43.63659" lon="5.65019">
        <ele>288.79998779297</ele>
        <time>2013-03-02T08:40:35.000Z</time>
      </trkpt>
      <trkpt lat="43.63662" lon="5.65022">
        <ele>288.60000610352</ele>
        <time>2013-03-02T08:40:36.000Z</time>
      </trkpt>
      <trkpt lat="43.63666" lon="5.65024">
        <ele>288.60000610352</ele>
        <time>2013-03-02T08:40:37.000Z</time>
      </trkpt>
      <trkpt lat="43.6367" lon="5.65027">
        <ele>289.20001220703</ele>
        <time>2013-03-02T08:40:38.000Z</time>
      </trkpt>
      <trkpt lat="43.63682" lon="5.65034">
        <ele>291.60000610352</ele>
        <time>2013-03-02T08:40:41.000Z</time>
      </trkpt>
      <trkpt lat="43.63686" lon="5.65037">
        <ele>292.20001220703</ele>
        <time>2013-03-02T08:40:42.000Z</time>
      </trkpt>
      <trkpt lat="43.63702" lon="5.65076">
        <ele>296.20001220703</ele>
        <time>2013-03-02T08:40:51.000Z</time>
      </trkpt>
      <trkpt lat="43.63705" lon="5.65149">
        <ele>302</ele>
        <time>2013-03-02T08:41:05.000Z</time>
      </trkpt>
      <trkpt lat="43.63705" lon="5.65154">
        <ele>302.39999389648</ele>
        <time>2013-03-02T08:41:06.000Z</time>
      </trkpt>
      <trkpt lat="43.63699" lon="5.65215">
        <ele>300.39999389648</ele>
        <time>2013-03-02T08:41:17.000Z</time>
      </trkpt>
      <trkpt lat="43.6371" lon="5.65271">
        <ele>299.79998779297</ele>
        <time>2013-03-02T08:41:28.000Z</time>
      </trkpt>
      <trkpt lat="43.63736" lon="5.65296">
        <ele>299.79998779297</ele>
        <time>2013-03-02T08:41:37.000Z</time>
      </trkpt>
      <trkpt lat="43.63759" lon="5.65326">
        <ele>300</ele>
        <time>2013-03-02T08:41:47.000Z</time>
      </trkpt>
      <trkpt lat="43.63763" lon="5.65371">
        <ele>301.60000610352</ele>
        <time>2013-03-02T08:41:56.000Z</time>
      </trkpt>
      <trkpt lat="43.63783" lon="5.6543">
        <ele>303.20001220703</ele>
        <time>2013-03-02T08:42:08.000Z</time>
      </trkpt>
      <trkpt lat="43.63811" lon="5.65468">
        <ele>304.79998779297</ele>
        <time>2013-03-02T08:42:18.000Z</time>
      </trkpt>
      <trkpt lat="43.63814" lon="5.65471">
        <ele>304.79998779297</ele>
        <time>2013-03-02T08:42:19.000Z</time>
      </trkpt>
      <trkpt lat="43.63829" lon="5.65479">
        <ele>305.20001220703</ele>
        <time>2013-03-02T08:42:23.000Z</time>
      </trkpt>
      <trkpt lat="43.63833" lon="5.65481">
        <ele>305.39999389648</ele>
        <time>2013-03-02T08:42:24.000Z</time>
      </trkpt>
      <trkpt lat="43.63881" lon="5.65507">
        <ele>307.39999389648</ele>
        <time>2013-03-02T08:42:36.000Z</time>
      </trkpt>
      <trkpt lat="43.63905" lon="5.65516">
        <ele>308</ele>
        <time>2013-03-02T08:42:42.000Z</time>
      </trkpt>
      <trkpt lat="43.6393" lon="5.6552">
        <ele>309.79998779297</ele>
        <time>2013-03-02T08:42:48.000Z</time>
      </trkpt>
      <trkpt lat="43.63934" lon="5.65523">
        <ele>310.39999389648</ele>
        <time>2013-03-02T08:42:49.000Z</time>
      </trkpt>
      <trkpt lat="43.63938" lon="5.65526">
        <ele>311</ele>
        <time>2013-03-02T08:42:50.000Z</time>
      </trkpt>
      <trkpt lat="43.63945" lon="5.65533">
        <ele>311.79998779297</ele>
        <time>2013-03-02T08:42:52.000Z</time>
      </trkpt>
      <trkpt lat="43.63948" lon="5.65538">
        <ele>312.20001220703</ele>
        <time>2013-03-02T08:42:53.000Z</time>
      </trkpt>
      <trkpt lat="43.6395" lon="5.65542">
        <ele>312.39999389648</ele>
        <time>2013-03-02T08:42:54.000Z</time>
      </trkpt>
      <trkpt lat="43.63975" lon="5.65592">
        <ele>313.20001220703</ele>
        <time>2013-03-02T08:43:05.000Z</time>
      </trkpt>
      <trkpt lat="43.64004" lon="5.65637">
        <ele>312.39999389648</ele>
        <time>2013-03-02T08:43:17.000Z</time>
      </trkpt>
      <trkpt lat="43.64042" lon="5.65675">
        <ele>314.79998779297</ele>
        <time>2013-03-02T08:43:30.000Z</time>
      </trkpt>
      <trkpt lat="43.64072" lon="5.65704">
        <ele>315.60000610352</ele>
        <time>2013-03-02T08:43:41.000Z</time>
      </trkpt>
      <trkpt lat="43.64115" lon="5.65731">
        <ele>317.79998779297</ele>
        <time>2013-03-02T08:43:54.000Z</time>
      </trkpt>
      <trkpt lat="43.64155" lon="5.65759">
        <ele>320.20001220703</ele>
        <time>2013-03-02T08:44:07.000Z</time>
      </trkpt>
      <trkpt lat="43.64185" lon="5.65788">
        <ele>321.20001220703</ele>
        <time>2013-03-02T08:44:19.000Z</time>
      </trkpt>
      <trkpt lat="43.64209" lon="5.65794">
        <ele>322.79998779297</ele>
        <time>2013-03-02T08:44:28.000Z</time>
      </trkpt>
      <trkpt lat="43.64243" lon="5.65796">
        <ele>325.39999389648</ele>
        <time>2013-03-02T08:44:40.000Z</time>
      </trkpt>
      <trkpt lat="43.64272" lon="5.65816">
        <ele>326.39999389648</ele>
        <time>2013-03-02T08:44:51.000Z</time>
      </trkpt>
      <trkpt lat="43.6429" lon="5.65837">
        <ele>327.20001220703</ele>
        <time>2013-03-02T08:45:00.000Z</time>
      </trkpt>
      <trkpt lat="43.64317" lon="5.65856">
        <ele>330.20001220703</ele>
        <time>2013-03-02T08:45:12.000Z</time>
      </trkpt>
      <trkpt lat="43.64346" lon="5.65835">
        <ele>334.60000610352</ele>
        <time>2013-03-02T08:45:24.000Z</time>
      </trkpt>
      <trkpt lat="43.6437" lon="5.65835">
        <ele>338</ele>
        <time>2013-03-02T08:45:33.000Z</time>
      </trkpt>
      <trkpt lat="43.64397" lon="5.65861">
        <ele>339.39999389648</ele>
        <time>2013-03-02T08:45:45.000Z</time>
      </trkpt>
      <trkpt lat="43.64424" lon="5.65885">
        <ele>340.20001220703</ele>
        <time>2013-03-02T08:45:56.000Z</time>
      </trkpt>
      <trkpt lat="43.64431" lon="5.6589">
        <ele>340.60000610352</ele>
        <time>2013-03-02T08:45:59.000Z</time>
      </trkpt>
      <trkpt lat="43.64464" lon="5.65915">
        <ele>342.79998779297</ele>
        <time>2013-03-02T08:46:12.000Z</time>
      </trkpt>
      <trkpt lat="43.64502" lon="5.65943">
        <ele>347.39999389648</ele>
        <time>2013-03-02T08:46:27.000Z</time>
      </trkpt>
      <trkpt lat="43.64531" lon="5.65953">
        <ele>349.39999389648</ele>
        <time>2013-03-02T08:46:37.000Z</time>
      </trkpt>
      <trkpt lat="43.64563" lon="5.65946">
        <ele>352</ele>
        <time>2013-03-02T08:46:48.000Z</time>
      </trkpt>
      <trkpt lat="43.64609" lon="5.65937">
        <ele>353.79998779297</ele>
        <time>2013-03-02T08:47:03.000Z</time>
      </trkpt>
      <trkpt lat="43.64622" lon="5.65937">
        <ele>353.79998779297</ele>
        <time>2013-03-02T08:47:08.000Z</time>
      </trkpt>
      <trkpt lat="43.64624" lon="5.65938">
        <ele>353.79998779297</ele>
        <time>2013-03-02T08:47:09.000Z</time>
      </trkpt>
      <trkpt lat="43.64625" lon="5.6594">
        <ele>353.79998779297</ele>
        <time>2013-03-02T08:47:10.000Z</time>
      </trkpt>
      <trkpt lat="43.64626" lon="5.65942">
        <ele>354</ele>
        <time>2013-03-02T08:47:11.000Z</time>
      </trkpt>
      <trkpt lat="43.64627" lon="5.65944">
        <ele>354</ele>
        <time>2013-03-02T08:47:12.000Z</time>
      </trkpt>
      <trkpt lat="43.6464" lon="5.65974">
        <ele>354.20001220703</ele>
        <time>2013-03-02T08:47:26.000Z</time>
      </trkpt>
      <trkpt lat="43.64641" lon="5.65976">
        <ele>354.20001220703</ele>
        <time>2013-03-02T08:47:27.000Z</time>
      </trkpt>
      <trkpt lat="43.64642" lon="5.65978">
        <ele>354.20001220703</ele>
        <time>2013-03-02T08:47:28.000Z</time>
      </trkpt>
      <trkpt lat="43.64642" lon="5.6598">
        <ele>354.20001220703</ele>
        <time>2013-03-02T08:47:29.000Z</time>
      </trkpt>
      <trkpt lat="43.64647" lon="5.65989">
        <ele>354.39999389648</ele>
        <time>2013-03-02T08:47:35.000Z</time>
      </trkpt>
      <trkpt lat="43.64646" lon="5.6599">
        <ele>354.39999389648</ele>
        <time>2013-03-02T08:47:36.000Z</time>
      </trkpt>
      <trkpt lat="43.64645" lon="5.6599">
        <ele>354.39999389648</ele>
        <time>2013-03-02T08:47:37.000Z</time>
      </trkpt>
      <trkpt lat="43.64646" lon="5.65986">
        <ele>354.39999389648</ele>
        <time>2013-03-02T08:47:40.000Z</time>
      </trkpt>
      <trkpt lat="43.64657" lon="5.66012">
        <ele>354.39999389648</ele>
        <time>2013-03-02T08:47:51.000Z</time>
      </trkpt>
      <trkpt lat="43.6466" lon="5.66019">
        <ele>354.39999389648</ele>
        <time>2013-03-02T08:47:54.000Z</time>
      </trkpt>
      <trkpt lat="43.64661" lon="5.66022">
        <ele>354.39999389648</ele>
        <time>2013-03-02T08:47:55.000Z</time>
      </trkpt>
      <trkpt lat="43.64662" lon="5.66024">
        <ele>354.20001220703</ele>
        <time>2013-03-02T08:47:56.000Z</time>
      </trkpt>
      <trkpt lat="43.64671" lon="5.66073">
        <ele>353.20001220703</ele>
        <time>2013-03-02T08:48:08.000Z</time>
      </trkpt>
      <trkpt lat="43.64673" lon="5.66103">
        <ele>352.39999389648</ele>
        <time>2013-03-02T08:48:13.000Z</time>
      </trkpt>
      <trkpt lat="43.64662" lon="5.6618">
        <ele>350.79998779297</ele>
        <time>2013-03-02T08:48:24.000Z</time>
      </trkpt>
      <trkpt lat="43.64651" lon="5.66255">
        <ele>350</ele>
        <time>2013-03-02T08:48:33.000Z</time>
      </trkpt>
      <trkpt lat="43.64651" lon="5.66263">
        <ele>349.79998779297</ele>
        <time>2013-03-02T08:48:34.000Z</time>
      </trkpt>
      <trkpt lat="43.64654" lon="5.66342">
        <ele>348.79998779297</ele>
        <time>2013-03-02T08:48:45.000Z</time>
      </trkpt>
      <trkpt lat="43.64656" lon="5.66355">
        <ele>349</ele>
        <time>2013-03-02T08:48:47.000Z</time>
      </trkpt>
      <trkpt lat="43.64675" lon="5.66408">
        <ele>350</ele>
        <time>2013-03-02T08:48:56.000Z</time>
      </trkpt>
      <trkpt lat="43.64694" lon="5.66457">
        <ele>351.60000610352</ele>
        <time>2013-03-02T08:49:07.000Z</time>
      </trkpt>
      <trkpt lat="43.64703" lon="5.66492">
        <ele>352.60000610352</ele>
        <time>2013-03-02T08:49:16.000Z</time>
      </trkpt>
      <trkpt lat="43.64714" lon="5.66538">
        <ele>353.79998779297</ele>
        <time>2013-03-02T08:49:28.000Z</time>
      </trkpt>
      <trkpt lat="43.64734" lon="5.66577">
        <ele>354.79998779297</ele>
        <time>2013-03-02T08:49:39.000Z</time>
      </trkpt>
      <trkpt lat="43.64756" lon="5.66616">
        <ele>356.60000610352</ele>
        <time>2013-03-02T08:49:50.000Z</time>
      </trkpt>
      <trkpt lat="43.64777" lon="5.66648">
        <ele>358</ele>
        <time>2013-03-02T08:50:00.000Z</time>
      </trkpt>
      <trkpt lat="43.64791" lon="5.66686">
        <ele>358.79998779297</ele>
        <time>2013-03-02T08:50:10.000Z</time>
      </trkpt>
      <trkpt lat="43.64806" lon="5.6674">
        <ele>359.39999389648</ele>
        <time>2013-03-02T08:50:23.000Z</time>
      </trkpt>
      <trkpt lat="43.64831" lon="5.66763">
        <ele>359.20001220703</ele>
        <time>2013-03-02T08:50:32.000Z</time>
      </trkpt>
      <trkpt lat="43.64863" lon="5.66767">
        <ele>360</ele>
        <time>2013-03-02T08:50:42.000Z</time>
      </trkpt>
      <trkpt lat="43.64894" lon="5.66771">
        <ele>360.79998779297</ele>
        <time>2013-03-02T08:50:52.000Z</time>
      </trkpt>
      <trkpt lat="43.64934" lon="5.66776">
        <ele>361.39999389648</ele>
        <time>2013-03-02T08:51:03.000Z</time>
      </trkpt>
      <trkpt lat="43.64975" lon="5.66781">
        <ele>361.39999389648</ele>
        <time>2013-03-02T08:51:14.000Z</time>
      </trkpt>
      <trkpt lat="43.65017" lon="5.66785">
        <ele>361.79998779297</ele>
        <time>2013-03-02T08:51:25.000Z</time>
      </trkpt>
      <trkpt lat="43.65045" lon="5.66803">
        <ele>363.20001220703</ele>
        <time>2013-03-02T08:51:34.000Z</time>
      </trkpt>
      <trkpt lat="43.65045" lon="5.66808">
        <ele>363.39999389648</ele>
        <time>2013-03-02T08:51:35.000Z</time>
      </trkpt>
      <trkpt lat="43.65046" lon="5.66813">
        <ele>363.60000610352</ele>
        <time>2013-03-02T08:51:36.000Z</time>
      </trkpt>
      <trkpt lat="43.65046" lon="5.66817">
        <ele>363.79998779297</ele>
        <time>2013-03-02T08:51:37.000Z</time>
      </trkpt>
      <trkpt lat="43.65046" lon="5.66822">
        <ele>364</ele>
        <time>2013-03-02T08:51:38.000Z</time>
      </trkpt>
      <trkpt lat="43.65045" lon="5.66827">
        <ele>364.20001220703</ele>
        <time>2013-03-02T08:51:39.000Z</time>
      </trkpt>
      <trkpt lat="43.65045" lon="5.66832">
        <ele>364.39999389648</ele>
        <time>2013-03-02T08:51:40.000Z</time>
      </trkpt>
      <trkpt lat="43.65044" lon="5.66837">
        <ele>364.60000610352</ele>
        <time>2013-03-02T08:51:41.000Z</time>
      </trkpt>
      <trkpt lat="43.65044" lon="5.66842">
        <ele>365</ele>
        <time>2013-03-02T08:51:42.000Z</time>
      </trkpt>
      <trkpt lat="43.65039" lon="5.66892">
        <ele>367.79998779297</ele>
        <time>2013-03-02T08:51:53.000Z</time>
      </trkpt>
      <trkpt lat="43.65032" lon="5.66963">
        <ele>369</ele>
        <time>2013-03-02T08:52:08.000Z</time>
      </trkpt>
      <trkpt lat="43.65025" lon="5.67019">
        <ele>369.60000610352</ele>
        <time>2013-03-02T08:52:20.000Z</time>
      </trkpt>
      <trkpt lat="43.6502" lon="5.67068">
        <ele>371.20001220703</ele>
        <time>2013-03-02T08:52:33.000Z</time>
      </trkpt>
      <trkpt lat="43.65019" lon="5.67104">
        <ele>372.39999389648</ele>
        <time>2013-03-02T08:52:44.000Z</time>
      </trkpt>
      <trkpt lat="43.6502" lon="5.67144">
        <ele>373.79998779297</ele>
        <time>2013-03-02T08:52:56.000Z</time>
      </trkpt>
      <trkpt lat="43.65018" lon="5.67198">
        <ele>374.79998779297</ele>
        <time>2013-03-02T08:53:10.000Z</time>
      </trkpt>
      <trkpt lat="43.65014" lon="5.67244">
        <ele>374.79998779297</ele>
        <time>2013-03-02T08:53:22.000Z</time>
      </trkpt>
      <trkpt lat="43.65008" lon="5.673">
        <ele>377</ele>
        <time>2013-03-02T08:53:36.000Z</time>
      </trkpt>
      <trkpt lat="43.65009" lon="5.67343">
        <ele>378.60000610352</ele>
        <time>2013-03-02T08:53:47.000Z</time>
      </trkpt>
      <trkpt lat="43.65025" lon="5.67373">
        <ele>380.20001220703</ele>
        <time>2013-03-02T08:53:56.000Z</time>
      </trkpt>
      <trkpt lat="43.65048" lon="5.67405">
        <ele>382.20001220703</ele>
        <time>2013-03-02T08:54:07.000Z</time>
      </trkpt>
      <trkpt lat="43.65073" lon="5.67444">
        <ele>384.39999389648</ele>
        <time>2013-03-02T08:54:20.000Z</time>
      </trkpt>
      <trkpt lat="43.65084" lon="5.67466">
        <ele>385</ele>
        <time>2013-03-02T08:54:28.000Z</time>
      </trkpt>
      <trkpt lat="43.65094" lon="5.67478">
        <ele>385.60000610352</ele>
        <time>2013-03-02T08:54:33.000Z</time>
      </trkpt>
      <trkpt lat="43.65106" lon="5.67509">
        <ele>386.60000610352</ele>
        <time>2013-03-02T08:54:44.000Z</time>
      </trkpt>
      <trkpt lat="43.65122" lon="5.67551">
        <ele>388.60000610352</ele>
        <time>2013-03-02T08:54:57.000Z</time>
      </trkpt>
      <trkpt lat="43.65134" lon="5.67588">
        <ele>390.39999389648</ele>
        <time>2013-03-02T08:55:07.000Z</time>
      </trkpt>
      <trkpt lat="43.65148" lon="5.6763">
        <ele>393</ele>
        <time>2013-03-02T08:55:19.000Z</time>
      </trkpt>
      <trkpt lat="43.65154" lon="5.67647">
        <ele>393.79998779297</ele>
        <time>2013-03-02T08:55:24.000Z</time>
      </trkpt>
      <trkpt lat="43.65165" lon="5.67687">
        <ele>395.20001220703</ele>
        <time>2013-03-02T08:55:35.000Z</time>
      </trkpt>
      <trkpt lat="43.65178" lon="5.67707">
        <ele>396.39999389648</ele>
        <time>2013-03-02T08:55:43.000Z</time>
      </trkpt>
      <trkpt lat="43.65202" lon="5.67712">
        <ele>397.79998779297</ele>
        <time>2013-03-02T08:55:53.000Z</time>
      </trkpt>
      <trkpt lat="43.65216" lon="5.67713">
        <ele>398.79998779297</ele>
        <time>2013-03-02T08:55:59.000Z</time>
      </trkpt>
      <trkpt lat="43.65243" lon="5.67729">
        <ele>400.79998779297</ele>
        <time>2013-03-02T08:56:10.000Z</time>
      </trkpt>
      <trkpt lat="43.65261" lon="5.67763">
        <ele>401.79998779297</ele>
        <time>2013-03-02T08:56:19.000Z</time>
      </trkpt>
      <trkpt lat="43.65278" lon="5.67802">
        <ele>402.79998779297</ele>
        <time>2013-03-02T08:56:30.000Z</time>
      </trkpt>
      <trkpt lat="43.65306" lon="5.67825">
        <ele>403</ele>
        <time>2013-03-02T08:56:40.000Z</time>
      </trkpt>
      <trkpt lat="43.65335" lon="5.67853">
        <ele>403.39999389648</ele>
        <time>2013-03-02T08:56:51.000Z</time>
      </trkpt>
      <trkpt lat="43.65344" lon="5.67877">
        <ele>404</ele>
        <time>2013-03-02T08:56:58.000Z</time>
      </trkpt>
      <trkpt lat="43.65347" lon="5.67878">
        <ele>404</ele>
        <time>2013-03-02T08:56:59.000Z</time>
      </trkpt>
      <trkpt lat="43.6536" lon="5.67886">
        <ele>404.20001220703</ele>
        <time>2013-03-02T08:57:04.000Z</time>
      </trkpt>
      <trkpt lat="43.65384" lon="5.67912">
        <ele>404.20001220703</ele>
        <time>2013-03-02T08:57:15.000Z</time>
      </trkpt>
      <trkpt lat="43.65397" lon="5.67947">
        <ele>405.20001220703</ele>
        <time>2013-03-02T08:57:24.000Z</time>
      </trkpt>
      <trkpt lat="43.65413" lon="5.67996">
        <ele>406</ele>
        <time>2013-03-02T08:57:35.000Z</time>
      </trkpt>
      <trkpt lat="43.65426" lon="5.68029">
        <ele>406</ele>
        <time>2013-03-02T08:57:43.000Z</time>
      </trkpt>
      <trkpt lat="43.6544" lon="5.68083">
        <ele>406.60000610352</ele>
        <time>2013-03-02T08:57:54.000Z</time>
      </trkpt>
      <trkpt lat="43.65455" lon="5.68128">
        <ele>407.60000610352</ele>
        <time>2013-03-02T08:58:06.000Z</time>
      </trkpt>
      <trkpt lat="43.65471" lon="5.68159">
        <ele>408.79998779297</ele>
        <time>2013-03-02T08:58:15.000Z</time>
      </trkpt>
      <trkpt lat="43.65481" lon="5.68186">
        <ele>410</ele>
        <time>2013-03-02T08:58:23.000Z</time>
      </trkpt>
      <trkpt lat="43.65491" lon="5.68212">
        <ele>410.79998779297</ele>
        <time>2013-03-02T08:58:32.000Z</time>
      </trkpt>
      <trkpt lat="43.65491" lon="5.68214">
        <ele>410.79998779297</ele>
        <time>2013-03-02T08:58:33.000Z</time>
      </trkpt>
      <trkpt lat="43.65491" lon="5.68216">
        <ele>411</ele>
        <time>2013-03-02T08:58:34.000Z</time>
      </trkpt>
      <trkpt lat="43.65491" lon="5.68218">
        <ele>411</ele>
        <time>2013-03-02T08:58:35.000Z</time>
      </trkpt>
      <trkpt lat="43.65491" lon="5.68221">
        <ele>411</ele>
        <time>2013-03-02T08:58:36.000Z</time>
      </trkpt>
      <trkpt lat="43.65492" lon="5.68223">
        <ele>411.20001220703</ele>
        <time>2013-03-02T08:58:37.000Z</time>
      </trkpt>
      <trkpt lat="43.65492" lon="5.68226">
        <ele>411.20001220703</ele>
        <time>2013-03-02T08:58:38.000Z</time>
      </trkpt>
      <trkpt lat="43.65492" lon="5.68229">
        <ele>411.39999389648</ele>
        <time>2013-03-02T08:58:39.000Z</time>
      </trkpt>
      <trkpt lat="43.65497" lon="5.68253">
        <ele>412</ele>
        <time>2013-03-02T08:58:49.000Z</time>
      </trkpt>
      <trkpt lat="43.65501" lon="5.68277">
        <ele>412.60000610352</ele>
        <time>2013-03-02T08:58:59.000Z</time>
      </trkpt>
      <trkpt lat="43.65501" lon="5.68279">
        <ele>412.60000610352</ele>
        <time>2013-03-02T08:59:00.000Z</time>
      </trkpt>
      <trkpt lat="43.65502" lon="5.68281">
        <ele>412.60000610352</ele>
        <time>2013-03-02T08:59:01.000Z</time>
      </trkpt>
      <trkpt lat="43.65502" lon="5.68283">
        <ele>412.79998779297</ele>
        <time>2013-03-02T08:59:02.000Z</time>
      </trkpt>
      <trkpt lat="43.65503" lon="5.68285">
        <ele>412.79998779297</ele>
        <time>2013-03-02T08:59:03.000Z</time>
      </trkpt>
      <trkpt lat="43.65503" lon="5.68287">
        <ele>412.79998779297</ele>
        <time>2013-03-02T08:59:04.000Z</time>
      </trkpt>
      <trkpt lat="43.65504" lon="5.68289">
        <ele>412.79998779297</ele>
        <time>2013-03-02T08:59:05.000Z</time>
      </trkpt>
      <trkpt lat="43.65505" lon="5.6829">
        <ele>412.79998779297</ele>
        <time>2013-03-02T08:59:06.000Z</time>
      </trkpt>
      <trkpt lat="43.65507" lon="5.68295">
        <ele>413</ele>
        <time>2013-03-02T08:59:10.000Z</time>
      </trkpt>
      <trkpt lat="43.65507" lon="5.68297">
        <ele>413</ele>
        <time>2013-03-02T08:59:11.000Z</time>
      </trkpt>
      <trkpt lat="43.65508" lon="5.68298">
        <ele>413.20001220703</ele>
        <time>2013-03-02T08:59:12.000Z</time>
      </trkpt>
      <trkpt lat="43.65509" lon="5.68307">
        <ele>413.39999389648</ele>
        <time>2013-03-02T08:59:21.000Z</time>
      </trkpt>
      <trkpt lat="43.65509" lon="5.68307">
        <ele>413.39999389648</ele>
        <time>2013-03-02T08:59:27.000Z</time>
      </trkpt>
      <trkpt lat="43.65509" lon="5.68305">
        <ele>413.39999389648</ele>
        <time>2013-03-02T08:59:28.000Z</time>
      </trkpt>
      <trkpt lat="43.65509" lon="5.68304">
        <ele>413.20001220703</ele>
        <time>2013-03-02T08:59:29.000Z</time>
      </trkpt>
      <trkpt lat="43.65508" lon="5.68302">
        <ele>413.20001220703</ele>
        <time>2013-03-02T08:59:30.000Z</time>
      </trkpt>
      <trkpt lat="43.65508" lon="5.68299">
        <ele>413.20001220703</ele>
        <time>2013-03-02T08:59:31.000Z</time>
      </trkpt>
      <trkpt lat="43.65507" lon="5.68296">
        <ele>413</ele>
        <time>2013-03-02T08:59:32.000Z</time>
      </trkpt>
      <trkpt lat="43.65506" lon="5.68292">
        <ele>413</ele>
        <time>2013-03-02T08:59:33.000Z</time>
      </trkpt>
      <trkpt lat="43.65505" lon="5.68288">
        <ele>412.79998779297</ele>
        <time>2013-03-02T08:59:34.000Z</time>
      </trkpt>
      <trkpt lat="43.65505" lon="5.68284">
        <ele>412.79998779297</ele>
        <time>2013-03-02T08:59:35.000Z</time>
      </trkpt>
      <trkpt lat="43.65504" lon="5.6828">
        <ele>412.60000610352</ele>
        <time>2013-03-02T08:59:36.000Z</time>
      </trkpt>
      <trkpt lat="43.65501" lon="5.68271">
        <ele>412.39999389648</ele>
        <time>2013-03-02T08:59:39.000Z</time>
      </trkpt>
      <trkpt lat="43.655" lon="5.68269">
        <ele>412.39999389648</ele>
        <time>2013-03-02T08:59:40.000Z</time>
      </trkpt>
      <trkpt lat="43.655" lon="5.68268">
        <ele>412.39999389648</ele>
        <time>2013-03-02T08:59:41.000Z</time>
      </trkpt>
      <trkpt lat="43.65499" lon="5.68265">
        <ele>412.20001220703</ele>
        <time>2013-03-02T08:59:42.000Z</time>
      </trkpt>
      <trkpt lat="43.65499" lon="5.68263">
        <ele>412.20001220703</ele>
        <time>2013-03-02T08:59:43.000Z</time>
      </trkpt>
      <trkpt lat="43.65495" lon="5.68243">
        <ele>411.79998779297</ele>
        <time>2013-03-02T08:59:51.000Z</time>
      </trkpt>
      <trkpt lat="43.65495" lon="5.68241">
        <ele>411.79998779297</ele>
        <time>2013-03-02T08:59:52.000Z</time>
      </trkpt>
      <trkpt lat="43.65494" lon="5.6824">
        <ele>411.79998779297</ele>
        <time>2013-03-02T08:59:53.000Z</time>
      </trkpt>
      <trkpt lat="43.65493" lon="5.68242">
        <ele>411.79998779297</ele>
        <time>2013-03-02T08:59:56.000Z</time>
      </trkpt>
      <trkpt lat="43.65501" lon="5.68272">
        <ele>412.39999389648</ele>
        <time>2013-03-02T09:00:03.000Z</time>
      </trkpt>
      <trkpt lat="43.65509" lon="5.68301">
        <ele>413.20001220703</ele>
        <time>2013-03-02T09:00:12.000Z</time>
      </trkpt>
      <trkpt lat="43.65512" lon="5.6833">
        <ele>414</ele>
        <time>2013-03-02T09:00:22.000Z</time>
      </trkpt>
      <trkpt lat="43.65514" lon="5.68367">
        <ele>416</ele>
        <time>2013-03-02T09:00:33.000Z</time>
      </trkpt>
      <trkpt lat="43.6552" lon="5.68394">
        <ele>417.39999389648</ele>
        <time>2013-03-02T09:00:42.000Z</time>
      </trkpt>
      <trkpt lat="43.65539" lon="5.68443">
        <ele>418.79998779297</ele>
        <time>2013-03-02T09:00:57.000Z</time>
      </trkpt>
      <trkpt lat="43.65551" lon="5.68465">
        <ele>419.39999389648</ele>
        <time>2013-03-02T09:01:05.000Z</time>
      </trkpt>
      <trkpt lat="43.65569" lon="5.68456">
        <ele>419.20001220703</ele>
        <time>2013-03-02T09:01:14.000Z</time>
      </trkpt>
      <trkpt lat="43.65584" lon="5.6844">
        <ele>418.79998779297</ele>
        <time>2013-03-02T09:01:22.000Z</time>
      </trkpt>
      <trkpt lat="43.65601" lon="5.68418">
        <ele>418</ele>
        <time>2013-03-02T09:01:32.000Z</time>
      </trkpt>
      <trkpt lat="43.65603" lon="5.68419">
        <ele>418</ele>
        <time>2013-03-02T09:01:33.000Z</time>
      </trkpt>
      <trkpt lat="43.65604" lon="5.6843">
        <ele>418.39999389648</ele>
        <time>2013-03-02T09:01:39.000Z</time>
      </trkpt>
      <trkpt lat="43.65603" lon="5.68433">
        <ele>418.39999389648</ele>
        <time>2013-03-02T09:01:40.000Z</time>
      </trkpt>
      <trkpt lat="43.65589" lon="5.68464">
        <ele>419.60000610352</ele>
        <time>2013-03-02T09:01:53.000Z</time>
      </trkpt>
      <trkpt lat="43.65582" lon="5.68502">
        <ele>421</ele>
        <time>2013-03-02T09:02:04.000Z</time>
      </trkpt>
      <trkpt lat="43.65581" lon="5.68532">
        <ele>423.20001220703</ele>
        <time>2013-03-02T09:02:14.000Z</time>
      </trkpt>
      <trkpt lat="43.65581" lon="5.68538">
        <ele>423.60000610352</ele>
        <time>2013-03-02T09:02:16.000Z</time>
      </trkpt>
      <trkpt lat="43.6558" lon="5.68541">
        <ele>423.79998779297</ele>
        <time>2013-03-02T09:02:17.000Z</time>
      </trkpt>
      <trkpt lat="43.6558" lon="5.68544">
        <ele>424</ele>
        <time>2013-03-02T09:02:18.000Z</time>
      </trkpt>
      <trkpt lat="43.6558" lon="5.68547">
        <ele>424.20001220703</ele>
        <time>2013-03-02T09:02:19.000Z</time>
      </trkpt>
      <trkpt lat="43.6558" lon="5.6855">
        <ele>424.39999389648</ele>
        <time>2013-03-02T09:02:20.000Z</time>
      </trkpt>
      <trkpt lat="43.6558" lon="5.68553">
        <ele>424.60000610352</ele>
        <time>2013-03-02T09:02:21.000Z</time>
      </trkpt>
      <trkpt lat="43.6558" lon="5.68556">
        <ele>424.79998779297</ele>
        <time>2013-03-02T09:02:22.000Z</time>
      </trkpt>
      <trkpt lat="43.6558" lon="5.68558">
        <ele>425</ele>
        <time>2013-03-02T09:02:23.000Z</time>
      </trkpt>
      <trkpt lat="43.65584" lon="5.68593">
        <ele>427.20001220703</ele>
        <time>2013-03-02T09:02:32.000Z</time>
      </trkpt>
      <trkpt lat="43.65594" lon="5.68632">
        <ele>427.20001220703</ele>
        <time>2013-03-02T09:02:43.000Z</time>
      </trkpt>
      <trkpt lat="43.65599" lon="5.68678">
        <ele>427.79998779297</ele>
        <time>2013-03-02T09:02:53.000Z</time>
      </trkpt>
      <trkpt lat="43.65592" lon="5.68722">
        <ele>428.39999389648</ele>
        <time>2013-03-02T09:03:01.000Z</time>
      </trkpt>
      <trkpt lat="43.65593" lon="5.68727">
        <ele>428.39999389648</ele>
        <time>2013-03-02T09:03:02.000Z</time>
      </trkpt>
      <trkpt lat="43.65595" lon="5.68733">
        <ele>428.39999389648</ele>
        <time>2013-03-02T09:03:03.000Z</time>
      </trkpt>
      <trkpt lat="43.656" lon="5.6875">
        <ele>428.39999389648</ele>
        <time>2013-03-02T09:03:06.000Z</time>
      </trkpt>
      <trkpt lat="43.65602" lon="5.68755">
        <ele>428.79998779297</ele>
        <time>2013-03-02T09:03:07.000Z</time>
      </trkpt>
      <trkpt lat="43.65604" lon="5.6876">
        <ele>429.20001220703</ele>
        <time>2013-03-02T09:03:08.000Z</time>
      </trkpt>
      <trkpt lat="43.65623" lon="5.68799">
        <ele>431.20001220703</ele>
        <time>2013-03-02T09:03:16.000Z</time>
      </trkpt>
      <trkpt lat="43.65655" lon="5.68844">
        <ele>433</ele>
        <time>2013-03-02T09:03:28.000Z</time>
      </trkpt>
      <trkpt lat="43.65684" lon="5.68892">
        <ele>433.60000610352</ele>
        <time>2013-03-02T09:03:41.000Z</time>
      </trkpt>
      <trkpt lat="43.65697" lon="5.68937">
        <ele>434.79998779297</ele>
        <time>2013-03-02T09:03:52.000Z</time>
      </trkpt>
      <trkpt lat="43.65719" lon="5.68975">
        <ele>435.60000610352</ele>
        <time>2013-03-02T09:04:03.000Z</time>
      </trkpt>
      <trkpt lat="43.65759" lon="5.69019">
        <ele>435.60000610352</ele>
        <time>2013-03-02T09:04:18.000Z</time>
      </trkpt>
      <trkpt lat="43.65791" lon="5.69058">
        <ele>436.20001220703</ele>
        <time>2013-03-02T09:04:31.000Z</time>
      </trkpt>
      <trkpt lat="43.65817" lon="5.69104">
        <ele>436</ele>
        <time>2013-03-02T09:04:42.000Z</time>
      </trkpt>
      <trkpt lat="43.65856" lon="5.69157">
        <ele>434.79998779297</ele>
        <time>2013-03-02T09:04:55.000Z</time>
      </trkpt>
      <trkpt lat="43.65903" lon="5.69207">
        <ele>436.20001220703</ele>
        <time>2013-03-02T09:05:09.000Z</time>
      </trkpt>
      <trkpt lat="43.65925" lon="5.69245">
        <ele>435.60000610352</ele>
        <time>2013-03-02T09:05:20.000Z</time>
      </trkpt>
      <trkpt lat="43.65939" lon="5.69298">
        <ele>436.60000610352</ele>
        <time>2013-03-02T09:05:32.000Z</time>
      </trkpt>
      <trkpt lat="43.65964" lon="5.69341">
        <ele>436.79998779297</ele>
        <time>2013-03-02T09:05:46.000Z</time>
      </trkpt>
      <trkpt lat="43.65965" lon="5.69342">
        <ele>436.79998779297</ele>
        <time>2013-03-02T09:05:47.000Z</time>
      </trkpt>
      <trkpt lat="43.6597" lon="5.69348">
        <ele>436.60000610352</ele>
        <time>2013-03-02T09:05:56.000Z</time>
      </trkpt>
      <trkpt lat="43.6597" lon="5.69348">
        <ele>436.60000610352</ele>
        <time>2013-03-02T09:06:04.000Z</time>
      </trkpt>
      <trkpt lat="43.6597" lon="5.69348">
        <ele>436.60000610352</ele>
        <time>2013-03-02T09:06:10.000Z</time>
      </trkpt>
      <trkpt lat="43.66022" lon="5.69493">
        <ele>437.20001220703</ele>
        <time>2013-03-02T09:07:23.000Z</time>
      </trkpt>
      <trkpt lat="43.66024" lon="5.695">
        <ele>437.20001220703</ele>
        <time>2013-03-02T09:07:24.000Z</time>
      </trkpt>
      <trkpt lat="43.66041" lon="5.69536">
        <ele>437.20001220703</ele>
        <time>2013-03-02T09:07:29.000Z</time>
      </trkpt>
      <trkpt lat="43.66056" lon="5.69582">
        <ele>438.20001220703</ele>
        <time>2013-03-02T09:07:35.000Z</time>
      </trkpt>
      <trkpt lat="43.66063" lon="5.69593">
        <ele>438.39999389648</ele>
        <time>2013-03-02T09:07:37.000Z</time>
      </trkpt>
      <trkpt lat="43.66076" lon="5.69612">
        <ele>439</ele>
        <time>2013-03-02T09:07:41.000Z</time>
      </trkpt>
      <trkpt lat="43.66136" lon="5.69617">
        <ele>436.20001220703</ele>
        <time>2013-03-02T09:07:54.000Z</time>
      </trkpt>
      <trkpt lat="43.66155" lon="5.6963">
        <ele>435.60000610352</ele>
        <time>2013-03-02T09:07:59.000Z</time>
      </trkpt>
      <trkpt lat="43.66186" lon="5.69654">
        <ele>434.20001220703</ele>
        <time>2013-03-02T09:08:07.000Z</time>
      </trkpt>
      <trkpt lat="43.66216" lon="5.69671">
        <ele>432.60000610352</ele>
        <time>2013-03-02T09:08:15.000Z</time>
      </trkpt>
      <trkpt lat="43.66236" lon="5.69682">
        <ele>431.39999389648</ele>
        <time>2013-03-02T09:08:19.000Z</time>
      </trkpt>
      <trkpt lat="43.66241" lon="5.69683">
        <ele>431.20001220703</ele>
        <time>2013-03-02T09:08:20.000Z</time>
      </trkpt>
      <trkpt lat="43.6628" lon="5.69698">
        <ele>429.20001220703</ele>
        <time>2013-03-02T09:08:26.000Z</time>
      </trkpt>
      <trkpt lat="43.66286" lon="5.69703">
        <ele>429</ele>
        <time>2013-03-02T09:08:27.000Z</time>
      </trkpt>
      <trkpt lat="43.66291" lon="5.69708">
        <ele>429</ele>
        <time>2013-03-02T09:08:28.000Z</time>
      </trkpt>
      <trkpt lat="43.66295" lon="5.69714">
        <ele>428.79998779297</ele>
        <time>2013-03-02T09:08:29.000Z</time>
      </trkpt>
      <trkpt lat="43.66298" lon="5.69721">
        <ele>429</ele>
        <time>2013-03-02T09:08:30.000Z</time>
      </trkpt>
      <trkpt lat="43.66298" lon="5.69728">
        <ele>429.20001220703</ele>
        <time>2013-03-02T09:08:31.000Z</time>
      </trkpt>
      <trkpt lat="43.66296" lon="5.69734">
        <ele>429.60000610352</ele>
        <time>2013-03-02T09:08:32.000Z</time>
      </trkpt>
      <trkpt lat="43.66295" lon="5.69741">
        <ele>429.79998779297</ele>
        <time>2013-03-02T09:08:33.000Z</time>
      </trkpt>
      <trkpt lat="43.66293" lon="5.69747">
        <ele>430.20001220703</ele>
        <time>2013-03-02T09:08:34.000Z</time>
      </trkpt>
      <trkpt lat="43.66283" lon="5.69802">
        <ele>429.79998779297</ele>
        <time>2013-03-02T09:08:43.000Z</time>
      </trkpt>
      <trkpt lat="43.66282" lon="5.69808">
        <ele>429.79998779297</ele>
        <time>2013-03-02T09:08:44.000Z</time>
      </trkpt>
      <trkpt lat="43.66275" lon="5.69836">
        <ele>429.60000610352</ele>
        <time>2013-03-02T09:08:49.000Z</time>
      </trkpt>
      <trkpt lat="43.66275" lon="5.69842">
        <ele>429.60000610352</ele>
        <time>2013-03-02T09:08:50.000Z</time>
      </trkpt>
      <trkpt lat="43.66275" lon="5.69847">
        <ele>429.39999389648</ele>
        <time>2013-03-02T09:08:51.000Z</time>
      </trkpt>
      <trkpt lat="43.66276" lon="5.69852">
        <ele>429.20001220703</ele>
        <time>2013-03-02T09:08:52.000Z</time>
      </trkpt>
      <trkpt lat="43.66278" lon="5.69857">
        <ele>429</ele>
        <time>2013-03-02T09:08:53.000Z</time>
      </trkpt>
      <trkpt lat="43.6628" lon="5.69861">
        <ele>428.60000610352</ele>
        <time>2013-03-02T09:08:54.000Z</time>
      </trkpt>
      <trkpt lat="43.66297" lon="5.69896">
        <ele>426</ele>
        <time>2013-03-02T09:09:02.000Z</time>
      </trkpt>
      <trkpt lat="43.66296" lon="5.69899">
        <ele>426</ele>
        <time>2013-03-02T09:09:03.000Z</time>
      </trkpt>
      <trkpt lat="43.66296" lon="5.69903">
        <ele>426</ele>
        <time>2013-03-02T09:09:04.000Z</time>
      </trkpt>
      <trkpt lat="43.66295" lon="5.69907">
        <ele>425.79998779297</ele>
        <time>2013-03-02T09:09:05.000Z</time>
      </trkpt>
      <trkpt lat="43.66295" lon="5.6991">
        <ele>425.79998779297</ele>
        <time>2013-03-02T09:09:06.000Z</time>
      </trkpt>
      <trkpt lat="43.66294" lon="5.69914">
        <ele>425.79998779297</ele>
        <time>2013-03-02T09:09:07.000Z</time>
      </trkpt>
      <trkpt lat="43.66293" lon="5.69919">
        <ele>425.79998779297</ele>
        <time>2013-03-02T09:09:08.000Z</time>
      </trkpt>
      <trkpt lat="43.66293" lon="5.69923">
        <ele>426</ele>
        <time>2013-03-02T09:09:09.000Z</time>
      </trkpt>
      <trkpt lat="43.66293" lon="5.69928">
        <ele>426</ele>
        <time>2013-03-02T09:09:10.000Z</time>
      </trkpt>
      <trkpt lat="43.66293" lon="5.69933">
        <ele>426</ele>
        <time>2013-03-02T09:09:11.000Z</time>
      </trkpt>
      <trkpt lat="43.66292" lon="5.69938">
        <ele>426</ele>
        <time>2013-03-02T09:09:12.000Z</time>
      </trkpt>
      <trkpt lat="43.66292" lon="5.69942">
        <ele>426.20001220703</ele>
        <time>2013-03-02T09:09:13.000Z</time>
      </trkpt>
      <trkpt lat="43.66283" lon="5.69998">
        <ele>427.39999389648</ele>
        <time>2013-03-02T09:09:25.000Z</time>
      </trkpt>
      <trkpt lat="43.6627" lon="5.70048">
        <ele>427.39999389648</ele>
        <time>2013-03-02T09:09:36.000Z</time>
      </trkpt>
      <trkpt lat="43.66252" lon="5.7009">
        <ele>427.39999389648</ele>
        <time>2013-03-02T09:09:47.000Z</time>
      </trkpt>
      <trkpt lat="43.66259" lon="5.70119">
        <ele>429.79998779297</ele>
        <time>2013-03-02T09:09:54.000Z</time>
      </trkpt>
      <trkpt lat="43.66279" lon="5.70142">
        <ele>431.39999389648</ele>
        <time>2013-03-02T09:10:04.000Z</time>
      </trkpt>
      <trkpt lat="43.66296" lon="5.70162">
        <ele>432.39999389648</ele>
        <time>2013-03-02T09:10:14.000Z</time>
      </trkpt>
      <trkpt lat="43.66298" lon="5.70164">
        <ele>432.60000610352</ele>
        <time>2013-03-02T09:10:15.000Z</time>
      </trkpt>
      <trkpt lat="43.6631" lon="5.70182">
        <ele>433.20001220703</ele>
        <time>2013-03-02T09:10:24.000Z</time>
      </trkpt>
      <trkpt lat="43.66321" lon="5.70212">
        <ele>434.20001220703</ele>
        <time>2013-03-02T09:10:34.000Z</time>
      </trkpt>
      <trkpt lat="43.6633" lon="5.70261">
        <ele>434.60000610352</ele>
        <time>2013-03-02T09:10:47.000Z</time>
      </trkpt>
      <trkpt lat="43.66323" lon="5.70295">
        <ele>433.79998779297</ele>
        <time>2013-03-02T09:10:55.000Z</time>
      </trkpt>
      <trkpt lat="43.66315" lon="5.70335">
        <ele>433.39999389648</ele>
        <time>2013-03-02T09:11:04.000Z</time>
      </trkpt>
      <trkpt lat="43.66304" lon="5.70373">
        <ele>432.60000610352</ele>
        <time>2013-03-02T09:11:13.000Z</time>
      </trkpt>
      <trkpt lat="43.66286" lon="5.70431">
        <ele>433</ele>
        <time>2013-03-02T09:11:25.000Z</time>
      </trkpt>
      <trkpt lat="43.66271" lon="5.70482">
        <ele>432.79998779297</ele>
        <time>2013-03-02T09:11:36.000Z</time>
      </trkpt>
      <trkpt lat="43.66252" lon="5.7055">
        <ele>432.39999389648</ele>
        <time>2013-03-02T09:11:49.000Z</time>
      </trkpt>
      <trkpt lat="43.66238" lon="5.70591">
        <ele>432.79998779297</ele>
        <time>2013-03-02T09:11:58.000Z</time>
      </trkpt>
      <trkpt lat="43.66223" lon="5.70645">
        <ele>432.39999389648</ele>
        <time>2013-03-02T09:12:09.000Z</time>
      </trkpt>
      <trkpt lat="43.66206" lon="5.70703">
        <ele>432</ele>
        <time>2013-03-02T09:12:21.000Z</time>
      </trkpt>
      <trkpt lat="43.66197" lon="5.70762">
        <ele>430.79998779297</ele>
        <time>2013-03-02T09:12:33.000Z</time>
      </trkpt>
      <trkpt lat="43.662" lon="5.70807">
        <ele>430.20001220703</ele>
        <time>2013-03-02T09:12:44.000Z</time>
      </trkpt>
      <trkpt lat="43.6621" lon="5.70833">
        <ele>429.79998779297</ele>
        <time>2013-03-02T09:12:52.000Z</time>
      </trkpt>
      <trkpt lat="43.66219" lon="5.7084">
        <ele>430.20001220703</ele>
        <time>2013-03-02T09:12:56.000Z</time>
      </trkpt>
      <trkpt lat="43.66221" lon="5.70839">
        <ele>430</ele>
        <time>2013-03-02T09:12:57.000Z</time>
      </trkpt>
      <trkpt lat="43.66222" lon="5.70837">
        <ele>429.79998779297</ele>
        <time>2013-03-02T09:12:58.000Z</time>
      </trkpt>
      <trkpt lat="43.66237" lon="5.70814">
        <ele>429.20001220703</ele>
        <time>2013-03-02T09:13:07.000Z</time>
      </trkpt>
      <trkpt lat="43.66258" lon="5.70787">
        <ele>429.39999389648</ele>
        <time>2013-03-02T09:13:18.000Z</time>
      </trkpt>
      <trkpt lat="43.66278" lon="5.70767">
        <ele>430.60000610352</ele>
        <time>2013-03-02T09:13:28.000Z</time>
      </trkpt>
      <trkpt lat="43.66293" lon="5.7077">
        <ele>431.39999389648</ele>
        <time>2013-03-02T09:13:35.000Z</time>
      </trkpt>
      <trkpt lat="43.663" lon="5.70758">
        <ele>431.60000610352</ele>
        <time>2013-03-02T09:13:40.000Z</time>
      </trkpt>
      <trkpt lat="43.663" lon="5.70755">
        <ele>431.39999389648</ele>
        <time>2013-03-02T09:13:41.000Z</time>
      </trkpt>
      <trkpt lat="43.663" lon="5.70752">
        <ele>431.39999389648</ele>
        <time>2013-03-02T09:13:42.000Z</time>
      </trkpt>
      <trkpt lat="43.66303" lon="5.70736">
        <ele>430.79998779297</ele>
        <time>2013-03-02T09:13:48.000Z</time>
      </trkpt>
      <trkpt lat="43.66304" lon="5.70734">
        <ele>430.60000610352</ele>
        <time>2013-03-02T09:13:49.000Z</time>
      </trkpt>
      <trkpt lat="43.66305" lon="5.70733">
        <ele>430.60000610352</ele>
        <time>2013-03-02T09:13:50.000Z</time>
      </trkpt>
      <trkpt lat="43.66306" lon="5.70731">
        <ele>430.60000610352</ele>
        <time>2013-03-02T09:13:51.000Z</time>
      </trkpt>
      <trkpt lat="43.66308" lon="5.7073">
        <ele>430.60000610352</ele>
        <time>2013-03-02T09:13:52.000Z</time>
      </trkpt>
      <trkpt lat="43.66311" lon="5.70729">
        <ele>430.60000610352</ele>
        <time>2013-03-02T09:13:53.000Z</time>
      </trkpt>
      <trkpt lat="43.66313" lon="5.70729">
        <ele>430.79998779297</ele>
        <time>2013-03-02T09:13:54.000Z</time>
      </trkpt>
      <trkpt lat="43.66325" lon="5.70732">
        <ele>431.39999389648</ele>
        <time>2013-03-02T09:13:59.000Z</time>
      </trkpt>
      <trkpt lat="43.66326" lon="5.70734">
        <ele>431.39999389648</ele>
        <time>2013-03-02T09:14:00.000Z</time>
      </trkpt>
      <trkpt lat="43.66328" lon="5.70735">
        <ele>431.60000610352</ele>
        <time>2013-03-02T09:14:01.000Z</time>
      </trkpt>
      <trkpt lat="43.6633" lon="5.70737">
        <ele>431.79998779297</ele>
        <time>2013-03-02T09:14:02.000Z</time>
      </trkpt>
      <trkpt lat="43.66332" lon="5.70739">
        <ele>432</ele>
        <time>2013-03-02T09:14:03.000Z</time>
      </trkpt>
      <trkpt lat="43.66345" lon="5.7075">
        <ele>433</ele>
        <time>2013-03-02T09:14:12.000Z</time>
      </trkpt>
      <trkpt lat="43.66365" lon="5.70757">
        <ele>433.79998779297</ele>
        <time>2013-03-02T09:14:23.000Z</time>
      </trkpt>
      <trkpt lat="43.66392" lon="5.7077">
        <ele>435</ele>
        <time>2013-03-02T09:14:35.000Z</time>
      </trkpt>
      <trkpt lat="43.66418" lon="5.70788">
        <ele>436.60000610352</ele>
        <time>2013-03-02T09:14:46.000Z</time>
      </trkpt>
      <trkpt lat="43.66436" lon="5.70805">
        <ele>438.39999389648</ele>
        <time>2013-03-02T09:14:56.000Z</time>
      </trkpt>
      <trkpt lat="43.66449" lon="5.70816">
        <ele>439.39999389648</ele>
        <time>2013-03-02T09:15:04.000Z</time>
      </trkpt>
      <trkpt lat="43.66451" lon="5.70816">
        <ele>439.39999389648</ele>
        <time>2013-03-02T09:15:05.000Z</time>
      </trkpt>
      <trkpt lat="43.66453" lon="5.70816">
        <ele>439.60000610352</ele>
        <time>2013-03-02T09:15:06.000Z</time>
      </trkpt>
      <trkpt lat="43.66454" lon="5.70816">
        <ele>439.60000610352</ele>
        <time>2013-03-02T09:15:07.000Z</time>
      </trkpt>
      <trkpt lat="43.66457" lon="5.70815">
        <ele>439.60000610352</ele>
        <time>2013-03-02T09:15:08.000Z</time>
      </trkpt>
      <trkpt lat="43.66459" lon="5.70815">
        <ele>439.60000610352</ele>
        <time>2013-03-02T09:15:09.000Z</time>
      </trkpt>
      <trkpt lat="43.66461" lon="5.70814">
        <ele>439.60000610352</ele>
        <time>2013-03-02T09:15:10.000Z</time>
      </trkpt>
      <trkpt lat="43.66474" lon="5.70828">
        <ele>440.79998779297</ele>
        <time>2013-03-02T09:15:18.000Z</time>
      </trkpt>
      <trkpt lat="43.66495" lon="5.70838">
        <ele>442</ele>
        <time>2013-03-02T09:15:28.000Z</time>
      </trkpt>
      <trkpt lat="43.66502" lon="5.70847">
        <ele>442.60000610352</ele>
        <time>2013-03-02T09:15:32.000Z</time>
      </trkpt>
      <trkpt lat="43.66503" lon="5.70849">
        <ele>442.79998779297</ele>
        <time>2013-03-02T09:15:33.000Z</time>
      </trkpt>
      <trkpt lat="43.66517" lon="5.70876">
        <ele>443.39999389648</ele>
        <time>2013-03-02T09:15:44.000Z</time>
      </trkpt>
      <trkpt lat="43.66534" lon="5.70908">
        <ele>444</ele>
        <time>2013-03-02T09:15:55.000Z</time>
      </trkpt>
      <trkpt lat="43.66552" lon="5.7095">
        <ele>445.60000610352</ele>
        <time>2013-03-02T09:16:07.000Z</time>
      </trkpt>
      <trkpt lat="43.66564" lon="5.70988">
        <ele>447.79998779297</ele>
        <time>2013-03-02T09:16:17.000Z</time>
      </trkpt>
      <trkpt lat="43.66584" lon="5.71025">
        <ele>448</ele>
        <time>2013-03-02T09:16:28.000Z</time>
      </trkpt>
      <trkpt lat="43.66605" lon="5.71062">
        <ele>449</ele>
        <time>2013-03-02T09:16:39.000Z</time>
      </trkpt>
      <trkpt lat="43.66621" lon="5.71103">
        <ele>450.60000610352</ele>
        <time>2013-03-02T09:16:51.000Z</time>
      </trkpt>
      <trkpt lat="43.66643" lon="5.71143">
        <ele>452.60000610352</ele>
        <time>2013-03-02T09:17:04.000Z</time>
      </trkpt>
      <trkpt lat="43.66659" lon="5.7117">
        <ele>454</ele>
        <time>2013-03-02T09:17:13.000Z</time>
      </trkpt>
      <trkpt lat="43.66685" lon="5.71199">
        <ele>453.60000610352</ele>
        <time>2013-03-02T09:17:26.000Z</time>
      </trkpt>
      <trkpt lat="43.66694" lon="5.71211">
        <ele>453.39999389648</ele>
        <time>2013-03-02T09:17:31.000Z</time>
      </trkpt>
      <trkpt lat="43.66696" lon="5.71212">
        <ele>453.39999389648</ele>
        <time>2013-03-02T09:17:32.000Z</time>
      </trkpt>
      <trkpt lat="43.66697" lon="5.71214">
        <ele>453.39999389648</ele>
        <time>2013-03-02T09:17:33.000Z</time>
      </trkpt>
      <trkpt lat="43.66699" lon="5.71218">
        <ele>453.20001220703</ele>
        <time>2013-03-02T09:17:36.000Z</time>
      </trkpt>
      <trkpt lat="43.66701" lon="5.71219">
        <ele>453.20001220703</ele>
        <time>2013-03-02T09:17:37.000Z</time>
      </trkpt>
      <trkpt lat="43.66702" lon="5.7122">
        <ele>453.20001220703</ele>
        <time>2013-03-02T09:17:38.000Z</time>
      </trkpt>
      <trkpt lat="43.66701" lon="5.71222">
        <ele>453.20001220703</ele>
        <time>2013-03-02T09:17:47.000Z</time>
      </trkpt>
      <trkpt lat="43.667" lon="5.71224">
        <ele>453</ele>
        <time>2013-03-02T09:18:03.000Z</time>
      </trkpt>
      <trkpt lat="43.66699" lon="5.71224">
        <ele>453</ele>
        <time>2013-03-02T09:18:22.000Z</time>
      </trkpt>
      <trkpt lat="43.66698" lon="5.71222">
        <ele>453</ele>
        <time>2013-03-02T09:18:45.000Z</time>
      </trkpt>
      <trkpt lat="43.66705" lon="5.71228">
        <ele>453</ele>
        <time>2013-03-02T09:19:00.000Z</time>
      </trkpt>
      <trkpt lat="43.66706" lon="5.7123">
        <ele>453</ele>
        <time>2013-03-02T09:19:01.000Z</time>
      </trkpt>
      <trkpt lat="43.66706" lon="5.71232">
        <ele>452.79998779297</ele>
        <time>2013-03-02T09:19:02.000Z</time>
      </trkpt>
      <trkpt lat="43.66705" lon="5.71234">
        <ele>452.60000610352</ele>
        <time>2013-03-02T09:19:03.000Z</time>
      </trkpt>
      <trkpt lat="43.66705" lon="5.71236">
        <ele>452.60000610352</ele>
        <time>2013-03-02T09:19:04.000Z</time>
      </trkpt>
      <trkpt lat="43.66704" lon="5.71239">
        <ele>452.39999389648</ele>
        <time>2013-03-02T09:19:05.000Z</time>
      </trkpt>
      <trkpt lat="43.66703" lon="5.71241">
        <ele>452.20001220703</ele>
        <time>2013-03-02T09:19:06.000Z</time>
      </trkpt>
      <trkpt lat="43.66703" lon="5.71244">
        <ele>452</ele>
        <time>2013-03-02T09:19:07.000Z</time>
      </trkpt>
      <trkpt lat="43.66703" lon="5.71246">
        <ele>452</ele>
        <time>2013-03-02T09:19:08.000Z</time>
      </trkpt>
      <trkpt lat="43.66703" lon="5.71249">
        <ele>451.79998779297</ele>
        <time>2013-03-02T09:19:09.000Z</time>
      </trkpt>
      <trkpt lat="43.66704" lon="5.71254">
        <ele>451.20001220703</ele>
        <time>2013-03-02T09:19:11.000Z</time>
      </trkpt>
      <trkpt lat="43.66708" lon="5.71258">
        <ele>450.79998779297</ele>
        <time>2013-03-02T09:19:13.000Z</time>
      </trkpt>
      <trkpt lat="43.66711" lon="5.71258">
        <ele>450.79998779297</ele>
        <time>2013-03-02T09:19:14.000Z</time>
      </trkpt>
      <trkpt lat="43.66721" lon="5.7125">
        <ele>452.20001220703</ele>
        <time>2013-03-02T09:19:19.000Z</time>
      </trkpt>
      <trkpt lat="43.66739" lon="5.71228">
        <ele>454.20001220703</ele>
        <time>2013-03-02T09:19:29.000Z</time>
      </trkpt>
      <trkpt lat="43.66743" lon="5.71222">
        <ele>454.60000610352</ele>
        <time>2013-03-02T09:19:32.000Z</time>
      </trkpt>
      <trkpt lat="43.66745" lon="5.71222">
        <ele>454.79998779297</ele>
        <time>2013-03-02T09:19:33.000Z</time>
      </trkpt>
      <trkpt lat="43.66763" lon="5.71234">
        <ele>454.79998779297</ele>
        <time>2013-03-02T09:19:41.000Z</time>
      </trkpt>
      <trkpt lat="43.66774" lon="5.71243">
        <ele>454.60000610352</ele>
        <time>2013-03-02T09:19:45.000Z</time>
      </trkpt>
      <trkpt lat="43.66793" lon="5.71266">
        <ele>454</ele>
        <time>2013-03-02T09:19:51.000Z</time>
      </trkpt>
      <trkpt lat="43.66796" lon="5.71282">
        <ele>453.39999389648</ele>
        <time>2013-03-02T09:19:55.000Z</time>
      </trkpt>
      <trkpt lat="43.6681" lon="5.71303">
        <ele>454.39999389648</ele>
        <time>2013-03-02T09:20:05.000Z</time>
      </trkpt>
      <trkpt lat="43.66819" lon="5.71328">
        <ele>455.60000610352</ele>
        <time>2013-03-02T09:20:14.000Z</time>
      </trkpt>
      <trkpt lat="43.66833" lon="5.71347">
        <ele>457.79998779297</ele>
        <time>2013-03-02T09:20:24.000Z</time>
      </trkpt>
      <trkpt lat="43.66842" lon="5.71359">
        <ele>457.79998779297</ele>
        <time>2013-03-02T09:20:30.000Z</time>
      </trkpt>
      <trkpt lat="43.66849" lon="5.71376">
        <ele>457.20001220703</ele>
        <time>2013-03-02T09:20:37.000Z</time>
      </trkpt>
      <trkpt lat="43.66852" lon="5.71379">
        <ele>457.20001220703</ele>
        <time>2013-03-02T09:20:39.000Z</time>
      </trkpt>
      <trkpt lat="43.66856" lon="5.71381">
        <ele>457.20001220703</ele>
        <time>2013-03-02T09:20:41.000Z</time>
      </trkpt>
      <trkpt lat="43.66868" lon="5.714">
        <ele>456.60000610352</ele>
        <time>2013-03-02T09:20:50.000Z</time>
      </trkpt>
      <trkpt lat="43.66872" lon="5.71405">
        <ele>456.39999389648</ele>
        <time>2013-03-02T09:20:52.000Z</time>
      </trkpt>
      <trkpt lat="43.66896" lon="5.71416">
        <ele>456.79998779297</ele>
        <time>2013-03-02T09:21:02.000Z</time>
      </trkpt>
      <trkpt lat="43.66903" lon="5.71421">
        <ele>456.20001220703</ele>
        <time>2013-03-02T09:21:04.000Z</time>
      </trkpt>
      <trkpt lat="43.66914" lon="5.71432">
        <ele>454.60000610352</ele>
        <time>2013-03-02T09:21:07.000Z</time>
      </trkpt>
      <trkpt lat="43.66929" lon="5.71439">
        <ele>454.39999389648</ele>
        <time>2013-03-02T09:21:11.000Z</time>
      </trkpt>
      <trkpt lat="43.66933" lon="5.71442">
        <ele>454.20001220703</ele>
        <time>2013-03-02T09:21:12.000Z</time>
      </trkpt>
      <trkpt lat="43.66945" lon="5.71452">
        <ele>453.60000610352</ele>
        <time>2013-03-02T09:21:15.000Z</time>
      </trkpt>
      <trkpt lat="43.66958" lon="5.71461">
        <ele>453.20001220703</ele>
        <time>2013-03-02T09:21:18.000Z</time>
      </trkpt>
      <trkpt lat="43.66971" lon="5.71476">
        <ele>452</ele>
        <time>2013-03-02T09:21:22.000Z</time>
      </trkpt>
      <trkpt lat="43.66982" lon="5.71501">
        <ele>449.20001220703</ele>
        <time>2013-03-02T09:21:29.000Z</time>
      </trkpt>
      <trkpt lat="43.67007" lon="5.71521">
        <ele>447</ele>
        <time>2013-03-02T09:21:38.000Z</time>
      </trkpt>
      <trkpt lat="43.67022" lon="5.71535">
        <ele>443.60000610352</ele>
        <time>2013-03-02T09:21:43.000Z</time>
      </trkpt>
      <trkpt lat="43.67031" lon="5.71543">
        <ele>441.60000610352</ele>
        <time>2013-03-02T09:21:47.000Z</time>
      </trkpt>
      <trkpt lat="43.67045" lon="5.71556">
        <ele>438.60000610352</ele>
        <time>2013-03-02T09:21:52.000Z</time>
      </trkpt>
      <trkpt lat="43.67059" lon="5.71573">
        <ele>435</ele>
        <time>2013-03-02T09:21:57.000Z</time>
      </trkpt>
      <trkpt lat="43.67066" lon="5.716">
        <ele>430.60000610352</ele>
        <time>2013-03-02T09:22:03.000Z</time>
      </trkpt>
      <trkpt lat="43.67068" lon="5.71606">
        <ele>429.79998779297</ele>
        <time>2013-03-02T09:22:05.000Z</time>
      </trkpt>
      <trkpt lat="43.67075" lon="5.71622">
        <ele>428</ele>
        <time>2013-03-02T09:22:10.000Z</time>
      </trkpt>
      <trkpt lat="43.67087" lon="5.71641">
        <ele>425.79998779297</ele>
        <time>2013-03-02T09:22:15.000Z</time>
      </trkpt>
      <trkpt lat="43.67105" lon="5.71648">
        <ele>423.39999389648</ele>
        <time>2013-03-02T09:22:22.000Z</time>
      </trkpt>
      <trkpt lat="43.67117" lon="5.71655">
        <ele>421.60000610352</ele>
        <time>2013-03-02T09:22:28.000Z</time>
      </trkpt>
      <trkpt lat="43.67119" lon="5.71657">
        <ele>421.20001220703</ele>
        <time>2013-03-02T09:22:30.000Z</time>
      </trkpt>
      <trkpt lat="43.67129" lon="5.71655">
        <ele>420.60000610352</ele>
        <time>2013-03-02T09:22:37.000Z</time>
      </trkpt>
      <trkpt lat="43.67138" lon="5.71653">
        <ele>420.20001220703</ele>
        <time>2013-03-02T09:22:46.000Z</time>
      </trkpt>
      <trkpt lat="43.6714" lon="5.71652">
        <ele>420.20001220703</ele>
        <time>2013-03-02T09:23:02.000Z</time>
      </trkpt>
      <trkpt lat="43.67148" lon="5.71654">
        <ele>419.20001220703</ele>
        <time>2013-03-02T09:23:06.000Z</time>
      </trkpt>
      <trkpt lat="43.67154" lon="5.71649">
        <ele>419.39999389648</ele>
        <time>2013-03-02T09:23:09.000Z</time>
      </trkpt>
      <trkpt lat="43.67155" lon="5.71646">
        <ele>419.79998779297</ele>
        <time>2013-03-02T09:23:10.000Z</time>
      </trkpt>
      <trkpt lat="43.67178" lon="5.71631">
        <ele>420</ele>
        <time>2013-03-02T09:23:18.000Z</time>
      </trkpt>
      <trkpt lat="43.67198" lon="5.71634">
        <ele>417.60000610352</ele>
        <time>2013-03-02T09:23:25.000Z</time>
      </trkpt>
      <trkpt lat="43.67203" lon="5.71634">
        <ele>417.20001220703</ele>
        <time>2013-03-02T09:23:27.000Z</time>
      </trkpt>
      <trkpt lat="43.6721" lon="5.7163">
        <ele>416.79998779297</ele>
        <time>2013-03-02T09:23:36.000Z</time>
      </trkpt>
      <trkpt lat="43.67213" lon="5.7163">
        <ele>416.60000610352</ele>
        <time>2013-03-02T09:23:45.000Z</time>
      </trkpt>
      <trkpt lat="43.67216" lon="5.71629">
        <ele>416.60000610352</ele>
        <time>2013-03-02T09:23:52.000Z</time>
      </trkpt>
      <trkpt lat="43.67218" lon="5.71626">
        <ele>416.60000610352</ele>
        <time>2013-03-02T09:23:54.000Z</time>
      </trkpt>
      <trkpt lat="43.67232" lon="5.71623">
        <ele>415.39999389648</ele>
        <time>2013-03-02T09:24:05.000Z</time>
      </trkpt>
      <trkpt lat="43.67241" lon="5.71619">
        <ele>415</ele>
        <time>2013-03-02T09:24:12.000Z</time>
      </trkpt>
      <trkpt lat="43.67248" lon="5.71614">
        <ele>414.60000610352</ele>
        <time>2013-03-02T09:24:16.000Z</time>
      </trkpt>
      <trkpt lat="43.67256" lon="5.71592">
        <ele>414.60000610352</ele>
        <time>2013-03-02T09:24:24.000Z</time>
      </trkpt>
      <trkpt lat="43.67263" lon="5.71577">
        <ele>414</ele>
        <time>2013-03-02T09:24:28.000Z</time>
      </trkpt>
      <trkpt lat="43.67263" lon="5.71573">
        <ele>414.60000610352</ele>
        <time>2013-03-02T09:24:29.000Z</time>
      </trkpt>
      <trkpt lat="43.67269" lon="5.71538">
        <ele>417</ele>
        <time>2013-03-02T09:24:36.000Z</time>
      </trkpt>
      <trkpt lat="43.67275" lon="5.71523">
        <ele>417.39999389648</ele>
        <time>2013-03-02T09:24:39.000Z</time>
      </trkpt>
      <trkpt lat="43.67279" lon="5.71516">
        <ele>417.39999389648</ele>
        <time>2013-03-02T09:24:41.000Z</time>
      </trkpt>
      <trkpt lat="43.67288" lon="5.71494">
        <ele>418.60000610352</ele>
        <time>2013-03-02T09:24:46.000Z</time>
      </trkpt>
      <trkpt lat="43.67295" lon="5.71471">
        <ele>420.39999389648</ele>
        <time>2013-03-02T09:24:51.000Z</time>
      </trkpt>
      <trkpt lat="43.67317" lon="5.71463">
        <ele>417.60000610352</ele>
        <time>2013-03-02T09:24:58.000Z</time>
      </trkpt>
      <trkpt lat="43.67321" lon="5.71461">
        <ele>417.20001220703</ele>
        <time>2013-03-02T09:25:03.000Z</time>
      </trkpt>
      <trkpt lat="43.67325" lon="5.7146">
        <ele>416.60000610352</ele>
        <time>2013-03-02T09:25:14.000Z</time>
      </trkpt>
      <trkpt lat="43.67327" lon="5.71458">
        <ele>416.79998779297</ele>
        <time>2013-03-02T09:25:26.000Z</time>
      </trkpt>
      <trkpt lat="43.67327" lon="5.71452">
        <ele>417.39999389648</ele>
        <time>2013-03-02T09:25:36.000Z</time>
      </trkpt>
      <trkpt lat="43.67328" lon="5.71452">
        <ele>417.39999389648</ele>
        <time>2013-03-02T09:25:37.000Z</time>
      </trkpt>
      <trkpt lat="43.67328" lon="5.71454">
        <ele>417</ele>
        <time>2013-03-02T09:25:50.000Z</time>
      </trkpt>
      <trkpt lat="43.6733" lon="5.71452">
        <ele>417</ele>
        <time>2013-03-02T09:25:56.000Z</time>
      </trkpt>
      <trkpt lat="43.67331" lon="5.71452">
        <ele>416.60000610352</ele>
        <time>2013-03-02T09:25:58.000Z</time>
      </trkpt>
      <trkpt lat="43.67335" lon="5.71447">
        <ele>417</ele>
        <time>2013-03-02T09:26:06.000Z</time>
      </trkpt>
      <trkpt lat="43.67337" lon="5.71444">
        <ele>417.39999389648</ele>
        <time>2013-03-02T09:26:12.000Z</time>
      </trkpt>
      <trkpt lat="43.67341" lon="5.7144">
        <ele>417.79998779297</ele>
        <time>2013-03-02T09:26:21.000Z</time>
      </trkpt>
      <trkpt lat="43.67341" lon="5.71435">
        <ele>418.60000610352</ele>
        <time>2013-03-02T09:26:30.000Z</time>
      </trkpt>
      <trkpt lat="43.67343" lon="5.71429">
        <ele>419.39999389648</ele>
        <time>2013-03-02T09:26:39.000Z</time>
      </trkpt>
      <trkpt lat="43.67343" lon="5.71429">
        <ele>419.39999389648</ele>
        <time>2013-03-02T09:26:41.000Z</time>
      </trkpt>
      <trkpt lat="43.67347" lon="5.71427">
        <ele>419.60000610352</ele>
        <time>2013-03-02T09:26:50.000Z</time>
      </trkpt>
      <trkpt lat="43.67348" lon="5.71426">
        <ele>419.60000610352</ele>
        <time>2013-03-02T09:27:05.000Z</time>
      </trkpt>
      <trkpt lat="43.67352" lon="5.71422">
        <ele>420</ele>
        <time>2013-03-02T09:27:16.000Z</time>
      </trkpt>
      <trkpt lat="43.67354" lon="5.71417">
        <ele>420.60000610352</ele>
        <time>2013-03-02T09:27:25.000Z</time>
      </trkpt>
      <trkpt lat="43.67357" lon="5.71413">
        <ele>421.39999389648</ele>
        <time>2013-03-02T09:27:37.000Z</time>
      </trkpt>
      <trkpt lat="43.6736" lon="5.71408">
        <ele>422.20001220703</ele>
        <time>2013-03-02T09:27:44.000Z</time>
      </trkpt>
      <trkpt lat="43.67373" lon="5.714">
        <ele>423.20001220703</ele>
        <time>2013-03-02T09:27:54.000Z</time>
      </trkpt>
      <trkpt lat="43.67384" lon="5.71388">
        <ele>424.39999389648</ele>
        <time>2013-03-02T09:28:02.000Z</time>
      </trkpt>
      <trkpt lat="43.67393" lon="5.71365">
        <ele>427.20001220703</ele>
        <time>2013-03-02T09:28:13.000Z</time>
      </trkpt>
      <trkpt lat="43.67393" lon="5.71363">
        <ele>427.60000610352</ele>
        <time>2013-03-02T09:28:14.000Z</time>
      </trkpt>
      <trkpt lat="43.67397" lon="5.71355">
        <ele>428</ele>
        <time>2013-03-02T09:28:18.000Z</time>
      </trkpt>
      <trkpt lat="43.67404" lon="5.71334">
        <ele>429.79998779297</ele>
        <time>2013-03-02T09:28:27.000Z</time>
      </trkpt>
      <trkpt lat="43.67399" lon="5.713">
        <ele>432.60000610352</ele>
        <time>2013-03-02T09:28:34.000Z</time>
      </trkpt>
      <trkpt lat="43.67394" lon="5.71267">
        <ele>436</ele>
        <time>2013-03-02T09:28:41.000Z</time>
      </trkpt>
      <trkpt lat="43.67393" lon="5.7124">
        <ele>438.20001220703</ele>
        <time>2013-03-02T09:28:49.000Z</time>
      </trkpt>
      <trkpt lat="43.67392" lon="5.71214">
        <ele>440.60000610352</ele>
        <time>2013-03-02T09:28:58.000Z</time>
      </trkpt>
      <trkpt lat="43.67393" lon="5.71199">
        <ele>441.39999389648</ele>
        <time>2013-03-02T09:29:08.000Z</time>
      </trkpt>
      <trkpt lat="43.67393" lon="5.71197">
        <ele>441.60000610352</ele>
        <time>2013-03-02T09:29:19.000Z</time>
      </trkpt>
      <trkpt lat="43.674" lon="5.7118">
        <ele>440.20001220703</ele>
        <time>2013-03-02T09:29:26.000Z</time>
      </trkpt>
      <trkpt lat="43.67409" lon="5.71147">
        <ele>439.79998779297</ele>
        <time>2013-03-02T09:29:36.000Z</time>
      </trkpt>
      <trkpt lat="43.67414" lon="5.7113">
        <ele>439.20001220703</ele>
        <time>2013-03-02T09:29:43.000Z</time>
      </trkpt>
      <trkpt lat="43.67421" lon="5.71113">
        <ele>438.79998779297</ele>
        <time>2013-03-02T09:29:50.000Z</time>
      </trkpt>
      <trkpt lat="43.67426" lon="5.71076">
        <ele>440.39999389648</ele>
        <time>2013-03-02T09:30:01.000Z</time>
      </trkpt>
      <trkpt lat="43.67422" lon="5.71059">
        <ele>441.79998779297</ele>
        <time>2013-03-02T09:30:05.000Z</time>
      </trkpt>
      <trkpt lat="43.67418" lon="5.71044">
        <ele>443.20001220703</ele>
        <time>2013-03-02T09:30:08.000Z</time>
      </trkpt>
      <trkpt lat="43.67408" lon="5.71019">
        <ele>446.39999389648</ele>
        <time>2013-03-02T09:30:13.000Z</time>
      </trkpt>
      <trkpt lat="43.67407" lon="5.71014">
        <ele>447</ele>
        <time>2013-03-02T09:30:14.000Z</time>
      </trkpt>
      <trkpt lat="43.67401" lon="5.71">
        <ele>449</ele>
        <time>2013-03-02T09:30:17.000Z</time>
      </trkpt>
      <trkpt lat="43.67403" lon="5.70981">
        <ele>451.39999389648</ele>
        <time>2013-03-02T09:30:24.000Z</time>
      </trkpt>
      <trkpt lat="43.67405" lon="5.70979">
        <ele>451.20001220703</ele>
        <time>2013-03-02T09:30:25.000Z</time>
      </trkpt>
      <trkpt lat="43.67428" lon="5.70967">
        <ele>448.20001220703</ele>
        <time>2013-03-02T09:30:33.000Z</time>
      </trkpt>
      <trkpt lat="43.67446" lon="5.70972">
        <ele>444.60000610352</ele>
        <time>2013-03-02T09:30:37.000Z</time>
      </trkpt>
      <trkpt lat="43.6746" lon="5.70978">
        <ele>441.20001220703</ele>
        <time>2013-03-02T09:30:40.000Z</time>
      </trkpt>
      <trkpt lat="43.67476" lon="5.70986">
        <ele>436.79998779297</ele>
        <time>2013-03-02T09:30:44.000Z</time>
      </trkpt>
      <trkpt lat="43.67486" lon="5.70992">
        <ele>433.39999389648</ele>
        <time>2013-03-02T09:30:46.000Z</time>
      </trkpt>
      <trkpt lat="43.67506" lon="5.71007">
        <ele>428.60000610352</ele>
        <time>2013-03-02T09:30:51.000Z</time>
      </trkpt>
      <trkpt lat="43.67513" lon="5.71011">
        <ele>429</ele>
        <time>2013-03-02T09:30:53.000Z</time>
      </trkpt>
      <trkpt lat="43.67525" lon="5.71018">
        <ele>429.39999389648</ele>
        <time>2013-03-02T09:30:56.000Z</time>
      </trkpt>
      <trkpt lat="43.67557" lon="5.71037">
        <ele>429.79998779297</ele>
        <time>2013-03-02T09:31:04.000Z</time>
      </trkpt>
      <trkpt lat="43.67567" lon="5.71055">
        <ele>427.60000610352</ele>
        <time>2013-03-02T09:31:11.000Z</time>
      </trkpt>
      <trkpt lat="43.67573" lon="5.71067">
        <ele>426</ele>
        <time>2013-03-02T09:31:16.000Z</time>
      </trkpt>
      <trkpt lat="43.67588" lon="5.71092">
        <ele>421.79998779297</ele>
        <time>2013-03-02T09:31:26.000Z</time>
      </trkpt>
      <trkpt lat="43.67593" lon="5.71099">
        <ele>420</ele>
        <time>2013-03-02T09:31:33.000Z</time>
      </trkpt>
      <trkpt lat="43.67617" lon="5.7109">
        <ele>420.79998779297</ele>
        <time>2013-03-02T09:31:45.000Z</time>
      </trkpt>
      <trkpt lat="43.67631" lon="5.71069">
        <ele>424.60000610352</ele>
        <time>2013-03-02T09:31:54.000Z</time>
      </trkpt>
      <trkpt lat="43.67644" lon="5.71047">
        <ele>427.60000610352</ele>
        <time>2013-03-02T09:32:02.000Z</time>
      </trkpt>
      <trkpt lat="43.67663" lon="5.71023">
        <ele>430.60000610352</ele>
        <time>2013-03-02T09:32:09.000Z</time>
      </trkpt>
      <trkpt lat="43.67673" lon="5.71007">
        <ele>430.39999389648</ele>
        <time>2013-03-02T09:32:12.000Z</time>
      </trkpt>
      <trkpt lat="43.67683" lon="5.7098">
        <ele>428.79998779297</ele>
        <time>2013-03-02T09:32:17.000Z</time>
      </trkpt>
      <trkpt lat="43.67686" lon="5.70962">
        <ele>428.60000610352</ele>
        <time>2013-03-02T09:32:21.000Z</time>
      </trkpt>
      <trkpt lat="43.67689" lon="5.70939">
        <ele>428.60000610352</ele>
        <time>2013-03-02T09:32:26.000Z</time>
      </trkpt>
      <trkpt lat="43.6769" lon="5.70921">
        <ele>429.20001220703</ele>
        <time>2013-03-02T09:32:30.000Z</time>
      </trkpt>
      <trkpt lat="43.67694" lon="5.70875">
        <ele>428.79998779297</ele>
        <time>2013-03-02T09:32:39.000Z</time>
      </trkpt>
      <trkpt lat="43.67684" lon="5.70841">
        <ele>432.60000610352</ele>
        <time>2013-03-02T09:32:47.000Z</time>
      </trkpt>
      <trkpt lat="43.67681" lon="5.70824">
        <ele>433.39999389648</ele>
        <time>2013-03-02T09:32:51.000Z</time>
      </trkpt>
      <trkpt lat="43.67683" lon="5.70809">
        <ele>432</ele>
        <time>2013-03-02T09:32:55.000Z</time>
      </trkpt>
      <trkpt lat="43.67684" lon="5.70805">
        <ele>431.39999389648</ele>
        <time>2013-03-02T09:32:56.000Z</time>
      </trkpt>
      <trkpt lat="43.67686" lon="5.70801">
        <ele>430.39999389648</ele>
        <time>2013-03-02T09:32:57.000Z</time>
      </trkpt>
      <trkpt lat="43.67689" lon="5.70796">
        <ele>429.20001220703</ele>
        <time>2013-03-02T09:32:58.000Z</time>
      </trkpt>
      <trkpt lat="43.677" lon="5.70785">
        <ele>425.60000610352</ele>
        <time>2013-03-02T09:33:02.000Z</time>
      </trkpt>
      <trkpt lat="43.67702" lon="5.70784">
        <ele>425.39999389648</ele>
        <time>2013-03-02T09:33:04.000Z</time>
      </trkpt>
      <trkpt lat="43.677" lon="5.70782">
        <ele>425.60000610352</ele>
        <time>2013-03-02T09:33:21.000Z</time>
      </trkpt>
      <trkpt lat="43.677" lon="5.7078">
        <ele>425.60000610352</ele>
        <time>2013-03-02T09:33:44.000Z</time>
      </trkpt>
      <trkpt lat="43.67707" lon="5.70775">
        <ele>423.60000610352</ele>
        <time>2013-03-02T09:33:55.000Z</time>
      </trkpt>
      <trkpt lat="43.67719" lon="5.70789">
        <ele>420.60000610352</ele>
        <time>2013-03-02T09:34:01.000Z</time>
      </trkpt>
      <trkpt lat="43.67728" lon="5.70793">
        <ele>418</ele>
        <time>2013-03-02T09:34:05.000Z</time>
      </trkpt>
      <trkpt lat="43.67734" lon="5.70796">
        <ele>416.39999389648</ele>
        <time>2013-03-02T09:34:08.000Z</time>
      </trkpt>
      <trkpt lat="43.67738" lon="5.70795">
        <ele>415.39999389648</ele>
        <time>2013-03-02T09:34:16.000Z</time>
      </trkpt>
      <trkpt lat="43.67743" lon="5.70797">
        <ele>413.60000610352</ele>
        <time>2013-03-02T09:34:26.000Z</time>
      </trkpt>
      <trkpt lat="43.67745" lon="5.708">
        <ele>413</ele>
        <time>2013-03-02T09:34:37.000Z</time>
      </trkpt>
      <trkpt lat="43.67747" lon="5.70809">
        <ele>412</ele>
        <time>2013-03-02T09:34:46.000Z</time>
      </trkpt>
      <trkpt lat="43.67754" lon="5.7081">
        <ele>410</ele>
        <time>2013-03-02T09:34:57.000Z</time>
      </trkpt>
      <trkpt lat="43.67758" lon="5.70811">
        <ele>409.39999389648</ele>
        <time>2013-03-02T09:35:01.000Z</time>
      </trkpt>
      <trkpt lat="43.67759" lon="5.70813">
        <ele>408.79998779297</ele>
        <time>2013-03-02T09:35:03.000Z</time>
      </trkpt>
      <trkpt lat="43.67762" lon="5.70817">
        <ele>408</ele>
        <time>2013-03-02T09:35:07.000Z</time>
      </trkpt>
      <trkpt lat="43.67773" lon="5.70823">
        <ele>405.39999389648</ele>
        <time>2013-03-02T09:35:15.000Z</time>
      </trkpt>
      <trkpt lat="43.67776" lon="5.70828">
        <ele>404.39999389648</ele>
        <time>2013-03-02T09:35:17.000Z</time>
      </trkpt>
      <trkpt lat="43.6778" lon="5.70832">
        <ele>403.20001220703</ele>
        <time>2013-03-02T09:35:20.000Z</time>
      </trkpt>
      <trkpt lat="43.67783" lon="5.70832">
        <ele>402.60000610352</ele>
        <time>2013-03-02T09:35:22.000Z</time>
      </trkpt>
      <trkpt lat="43.67794" lon="5.70832">
        <ele>399.79998779297</ele>
        <time>2013-03-02T09:35:29.000Z</time>
      </trkpt>
      <trkpt lat="43.67803" lon="5.70832">
        <ele>397.79998779297</ele>
        <time>2013-03-02T09:35:32.000Z</time>
      </trkpt>
      <trkpt lat="43.67811" lon="5.70834">
        <ele>395.79998779297</ele>
        <time>2013-03-02T09:35:41.000Z</time>
      </trkpt>
      <trkpt lat="43.67816" lon="5.70832">
        <ele>395</ele>
        <time>2013-03-02T09:35:50.000Z</time>
      </trkpt>
      <trkpt lat="43.67818" lon="5.70832">
        <ele>394.60000610352</ele>
        <time>2013-03-02T09:36:02.000Z</time>
      </trkpt>
      <trkpt lat="43.67821" lon="5.70833">
        <ele>393.79998779297</ele>
        <time>2013-03-02T09:36:10.000Z</time>
      </trkpt>
      <trkpt lat="43.67829" lon="5.70828">
        <ele>392.39999389648</ele>
        <time>2013-03-02T09:36:20.000Z</time>
      </trkpt>
      <trkpt lat="43.67839" lon="5.70824">
        <ele>390.20001220703</ele>
        <time>2013-03-02T09:36:29.000Z</time>
      </trkpt>
      <trkpt lat="43.67843" lon="5.70825">
        <ele>388.60000610352</ele>
        <time>2013-03-02T09:36:38.000Z</time>
      </trkpt>
      <trkpt lat="43.67845" lon="5.70827">
        <ele>387.60000610352</ele>
        <time>2013-03-02T09:36:41.000Z</time>
      </trkpt>
      <trkpt lat="43.67849" lon="5.70831">
        <ele>386</ele>
        <time>2013-03-02T09:36:50.000Z</time>
      </trkpt>
      <trkpt lat="43.67852" lon="5.70831">
        <ele>385</ele>
        <time>2013-03-02T09:36:55.000Z</time>
      </trkpt>
      <trkpt lat="43.67854" lon="5.7083">
        <ele>384.60000610352</ele>
        <time>2013-03-02T09:36:57.000Z</time>
      </trkpt>
      <trkpt lat="43.67855" lon="5.70829">
        <ele>384.20001220703</ele>
        <time>2013-03-02T09:36:59.000Z</time>
      </trkpt>
      <trkpt lat="43.67861" lon="5.7083">
        <ele>382.20001220703</ele>
        <time>2013-03-02T09:37:06.000Z</time>
      </trkpt>
      <trkpt lat="43.67869" lon="5.70821">
        <ele>380.79998779297</ele>
        <time>2013-03-02T09:37:16.000Z</time>
      </trkpt>
      <trkpt lat="43.67873" lon="5.70819">
        <ele>379.39999389648</ele>
        <time>2013-03-02T09:37:21.000Z</time>
      </trkpt>
      <trkpt lat="43.67882" lon="5.70813">
        <ele>377.39999389648</ele>
        <time>2013-03-02T09:37:31.000Z</time>
      </trkpt>
      <trkpt lat="43.67887" lon="5.70815">
        <ele>375.39999389648</ele>
        <time>2013-03-02T09:37:40.000Z</time>
      </trkpt>
      <trkpt lat="43.67897" lon="5.70815">
        <ele>372.39999389648</ele>
        <time>2013-03-02T09:37:50.000Z</time>
      </trkpt>
      <trkpt lat="43.67902" lon="5.70813">
        <ele>371</ele>
        <time>2013-03-02T09:37:57.000Z</time>
      </trkpt>
      <trkpt lat="43.67911" lon="5.70812">
        <ele>368.20001220703</ele>
        <time>2013-03-02T09:38:03.000Z</time>
      </trkpt>
      <trkpt lat="43.67918" lon="5.70811">
        <ele>365.79998779297</ele>
        <time>2013-03-02T09:38:11.000Z</time>
      </trkpt>
      <trkpt lat="43.67927" lon="5.7081">
        <ele>362.79998779297</ele>
        <time>2013-03-02T09:38:15.000Z</time>
      </trkpt>
      <trkpt lat="43.67938" lon="5.70806">
        <ele>358.79998779297</ele>
        <time>2013-03-02T09:38:20.000Z</time>
      </trkpt>
      <trkpt lat="43.67942" lon="5.70806">
        <ele>357.20001220703</ele>
        <time>2013-03-02T09:38:22.000Z</time>
      </trkpt>
      <trkpt lat="43.67949" lon="5.70804">
        <ele>354.60000610352</ele>
        <time>2013-03-02T09:38:25.000Z</time>
      </trkpt>
      <trkpt lat="43.67955" lon="5.70803">
        <ele>352.60000610352</ele>
        <time>2013-03-02T09:38:27.000Z</time>
      </trkpt>
      <trkpt lat="43.67961" lon="5.70805">
        <ele>350.39999389648</ele>
        <time>2013-03-02T09:38:30.000Z</time>
      </trkpt>
      <trkpt lat="43.6797" lon="5.70807">
        <ele>346.79998779297</ele>
        <time>2013-03-02T09:38:33.000Z</time>
      </trkpt>
      <trkpt lat="43.67986" lon="5.70812">
        <ele>340.79998779297</ele>
        <time>2013-03-02T09:38:37.000Z</time>
      </trkpt>
      <trkpt lat="43.67999" lon="5.70814">
        <ele>336.60000610352</ele>
        <time>2013-03-02T09:38:40.000Z</time>
      </trkpt>
      <trkpt lat="43.68006" lon="5.70817">
        <ele>335.20001220703</ele>
        <time>2013-03-02T09:38:42.000Z</time>
      </trkpt>
      <trkpt lat="43.68025" lon="5.70818">
        <ele>332.60000610352</ele>
        <time>2013-03-02T09:38:47.000Z</time>
      </trkpt>
      <trkpt lat="43.68054" lon="5.70819">
        <ele>328.79998779297</ele>
        <time>2013-03-02T09:38:55.000Z</time>
      </trkpt>
      <trkpt lat="43.68067" lon="5.70819">
        <ele>327</ele>
        <time>2013-03-02T09:38:59.000Z</time>
      </trkpt>
      <trkpt lat="43.68071" lon="5.70819">
        <ele>326.39999389648</ele>
        <time>2013-03-02T09:39:00.000Z</time>
      </trkpt>
      <trkpt lat="43.68085" lon="5.70814">
        <ele>323.39999389648</ele>
        <time>2013-03-02T09:39:04.000Z</time>
      </trkpt>
      <trkpt lat="43.68105" lon="5.70808">
        <ele>318.79998779297</ele>
        <time>2013-03-02T09:39:09.000Z</time>
      </trkpt>
      <trkpt lat="43.68108" lon="5.70807">
        <ele>318</ele>
        <time>2013-03-02T09:39:10.000Z</time>
      </trkpt>
      <trkpt lat="43.68128" lon="5.70801">
        <ele>313.60000610352</ele>
        <time>2013-03-02T09:39:16.000Z</time>
      </trkpt>
      <trkpt lat="43.68144" lon="5.70798">
        <ele>310.39999389648</ele>
        <time>2013-03-02T09:39:21.000Z</time>
      </trkpt>
      <trkpt lat="43.68158" lon="5.70798">
        <ele>308</ele>
        <time>2013-03-02T09:39:26.000Z</time>
      </trkpt>
      <trkpt lat="43.68161" lon="5.708">
        <ele>307.79998779297</ele>
        <time>2013-03-02T09:39:35.000Z</time>
      </trkpt>
      <trkpt lat="43.68164" lon="5.70799">
        <ele>307.20001220703</ele>
        <time>2013-03-02T09:39:46.000Z</time>
      </trkpt>
      <trkpt lat="43.68165" lon="5.70798">
        <ele>307</ele>
        <time>2013-03-02T09:39:54.000Z</time>
      </trkpt>
      <trkpt lat="43.68165" lon="5.70799">
        <ele>307</ele>
        <time>2013-03-02T09:40:02.000Z</time>
      </trkpt>
      <trkpt lat="43.68174" lon="5.70802">
        <ele>305</ele>
        <time>2013-03-02T09:40:16.000Z</time>
      </trkpt>
      <trkpt lat="43.68181" lon="5.70805">
        <ele>303.39999389648</ele>
        <time>2013-03-02T09:40:22.000Z</time>
      </trkpt>
      <trkpt lat="43.68185" lon="5.70806">
        <ele>302.60000610352</ele>
        <time>2013-03-02T09:40:24.000Z</time>
      </trkpt>
      <trkpt lat="43.6819" lon="5.70809">
        <ele>301.39999389648</ele>
        <time>2013-03-02T09:40:28.000Z</time>
      </trkpt>
      <trkpt lat="43.68192" lon="5.70809">
        <ele>300.39999389648</ele>
        <time>2013-03-02T09:40:39.000Z</time>
      </trkpt>
      <trkpt lat="43.68197" lon="5.70814">
        <ele>299.79998779297</ele>
        <time>2013-03-02T09:40:48.000Z</time>
      </trkpt>
      <trkpt lat="43.68199" lon="5.70819">
        <ele>299.39999389648</ele>
        <time>2013-03-02T09:40:57.000Z</time>
      </trkpt>
      <trkpt lat="43.68203" lon="5.70824">
        <ele>298.39999389648</ele>
        <time>2013-03-02T09:41:04.000Z</time>
      </trkpt>
      <trkpt lat="43.68208" lon="5.70827">
        <ele>297.20001220703</ele>
        <time>2013-03-02T09:41:14.000Z</time>
      </trkpt>
      <trkpt lat="43.68213" lon="5.7083">
        <ele>295.60000610352</ele>
        <time>2013-03-02T09:41:20.000Z</time>
      </trkpt>
      <trkpt lat="43.68221" lon="5.70841">
        <ele>292.60000610352</ele>
        <time>2013-03-02T09:41:25.000Z</time>
      </trkpt>
      <trkpt lat="43.6824" lon="5.70869">
        <ele>286</ele>
        <time>2013-03-02T09:41:33.000Z</time>
      </trkpt>
      <trkpt lat="43.68244" lon="5.70875">
        <ele>284.39999389648</ele>
        <time>2013-03-02T09:41:36.000Z</time>
      </trkpt>
      <trkpt lat="43.68245" lon="5.70877">
        <ele>284.20001220703</ele>
        <time>2013-03-02T09:41:37.000Z</time>
      </trkpt>
      <trkpt lat="43.68246" lon="5.70876">
        <ele>283.79998779297</ele>
        <time>2013-03-02T09:41:46.000Z</time>
      </trkpt>
      <trkpt lat="43.68248" lon="5.70874">
        <ele>283</ele>
        <time>2013-03-02T09:42:09.000Z</time>
      </trkpt>
      <trkpt lat="43.68247" lon="5.70874">
        <ele>283.39999389648</ele>
        <time>2013-03-02T09:42:27.000Z</time>
      </trkpt>
      <trkpt lat="43.68249" lon="5.70872">
        <ele>282.60000610352</ele>
        <time>2013-03-02T09:42:44.000Z</time>
      </trkpt>
      <trkpt lat="43.68249" lon="5.70877">
        <ele>282.79998779297</ele>
        <time>2013-03-02T09:43:02.000Z</time>
      </trkpt>
      <trkpt lat="43.6825" lon="5.70874">
        <ele>282.60000610352</ele>
        <time>2013-03-02T09:43:23.000Z</time>
      </trkpt>
      <trkpt lat="43.68248" lon="5.70872">
        <ele>283.20001220703</ele>
        <time>2013-03-02T09:43:46.000Z</time>
      </trkpt>
      <trkpt lat="43.68245" lon="5.70871">
        <ele>284.39999389648</ele>
        <time>2013-03-02T09:44:08.000Z</time>
      </trkpt>
      <trkpt lat="43.68246" lon="5.70871">
        <ele>283.79998779297</ele>
        <time>2013-03-02T09:44:22.000Z</time>
      </trkpt>
      <trkpt lat="43.68249" lon="5.70872">
        <ele>282.79998779297</ele>
        <time>2013-03-02T09:44:44.000Z</time>
      </trkpt>
      <trkpt lat="43.68249" lon="5.70871">
        <ele>282.60000610352</ele>
        <time>2013-03-02T09:44:48.000Z</time>
      </trkpt>
      <trkpt lat="43.68251" lon="5.70866">
        <ele>282.20001220703</ele>
        <time>2013-03-02T09:44:50.000Z</time>
      </trkpt>
      <trkpt lat="43.68251" lon="5.70862">
        <ele>282</ele>
        <time>2013-03-02T09:44:51.000Z</time>
      </trkpt>
      <trkpt lat="43.68252" lon="5.70856">
        <ele>281.79998779297</ele>
        <time>2013-03-02T09:44:52.000Z</time>
      </trkpt>
      <trkpt lat="43.68252" lon="5.70851">
        <ele>281.79998779297</ele>
        <time>2013-03-02T09:44:53.000Z</time>
      </trkpt>
      <trkpt lat="43.68251" lon="5.70846">
        <ele>281.79998779297</ele>
        <time>2013-03-02T09:44:54.000Z</time>
      </trkpt>
      <trkpt lat="43.68249" lon="5.70841">
        <ele>282.20001220703</ele>
        <time>2013-03-02T09:44:55.000Z</time>
      </trkpt>
      <trkpt lat="43.68248" lon="5.70838">
        <ele>282.79998779297</ele>
        <time>2013-03-02T09:44:56.000Z</time>
      </trkpt>
      <trkpt lat="43.68246" lon="5.70834">
        <ele>283.39999389648</ele>
        <time>2013-03-02T09:44:57.000Z</time>
      </trkpt>
      <trkpt lat="43.68245" lon="5.70831">
        <ele>284</ele>
        <time>2013-03-02T09:44:58.000Z</time>
      </trkpt>
      <trkpt lat="43.68233" lon="5.70794">
        <ele>287.39999389648</ele>
        <time>2013-03-02T09:45:05.000Z</time>
      </trkpt>
      <trkpt lat="43.68232" lon="5.70785">
        <ele>287.60000610352</ele>
        <time>2013-03-02T09:45:06.000Z</time>
      </trkpt>
      <trkpt lat="43.68233" lon="5.70775">
        <ele>287.20001220703</ele>
        <time>2013-03-02T09:45:07.000Z</time>
      </trkpt>
      <trkpt lat="43.68234" lon="5.70764">
        <ele>286.79998779297</ele>
        <time>2013-03-02T09:45:08.000Z</time>
      </trkpt>
      <trkpt lat="43.68236" lon="5.70754">
        <ele>286.20001220703</ele>
        <time>2013-03-02T09:45:09.000Z</time>
      </trkpt>
      <trkpt lat="43.6824" lon="5.70745">
        <ele>286.79998779297</ele>
        <time>2013-03-02T09:45:10.000Z</time>
      </trkpt>
      <trkpt lat="43.68244" lon="5.70738">
        <ele>287.60000610352</ele>
        <time>2013-03-02T09:45:11.000Z</time>
      </trkpt>
      <trkpt lat="43.6825" lon="5.70735">
        <ele>287.60000610352</ele>
        <time>2013-03-02T09:45:12.000Z</time>
      </trkpt>
      <trkpt lat="43.68256" lon="5.70734">
        <ele>287</ele>
        <time>2013-03-02T09:45:13.000Z</time>
      </trkpt>
      <trkpt lat="43.68313" lon="5.70724">
        <ele>281.20001220703</ele>
        <time>2013-03-02T09:45:22.000Z</time>
      </trkpt>
      <trkpt lat="43.68338" lon="5.70721">
        <ele>278.39999389648</ele>
        <time>2013-03-02T09:45:26.000Z</time>
      </trkpt>
      <trkpt lat="43.68343" lon="5.70722">
        <ele>278</ele>
        <time>2013-03-02T09:45:27.000Z</time>
      </trkpt>
      <trkpt lat="43.68348" lon="5.70723">
        <ele>277.60000610352</ele>
        <time>2013-03-02T09:45:28.000Z</time>
      </trkpt>
      <trkpt lat="43.68352" lon="5.70725">
        <ele>277.20001220703</ele>
        <time>2013-03-02T09:45:29.000Z</time>
      </trkpt>
      <trkpt lat="43.68356" lon="5.70725">
        <ele>276.79998779297</ele>
        <time>2013-03-02T09:45:30.000Z</time>
      </trkpt>
      <trkpt lat="43.6836" lon="5.70725">
        <ele>276.60000610352</ele>
        <time>2013-03-02T09:45:31.000Z</time>
      </trkpt>
      <trkpt lat="43.68387" lon="5.70717">
        <ele>276.20001220703</ele>
        <time>2013-03-02T09:45:39.000Z</time>
      </trkpt>
      <trkpt lat="43.68392" lon="5.70717">
        <ele>275.79998779297</ele>
        <time>2013-03-02T09:45:40.000Z</time>
      </trkpt>
      <trkpt lat="43.68397" lon="5.70718">
        <ele>275.39999389648</ele>
        <time>2013-03-02T09:45:41.000Z</time>
      </trkpt>
      <trkpt lat="43.68403" lon="5.70721">
        <ele>274.79998779297</ele>
        <time>2013-03-02T09:45:42.000Z</time>
      </trkpt>
      <trkpt lat="43.68447" lon="5.70743">
        <ele>271.20001220703</ele>
        <time>2013-03-02T09:45:48.000Z</time>
      </trkpt>
      <trkpt lat="43.6846" lon="5.70748">
        <ele>270.39999389648</ele>
        <time>2013-03-02T09:45:50.000Z</time>
      </trkpt>
      <trkpt lat="43.68466" lon="5.70747">
        <ele>270.20001220703</ele>
        <time>2013-03-02T09:45:51.000Z</time>
      </trkpt>
      <trkpt lat="43.68488" lon="5.70741">
        <ele>269.39999389648</ele>
        <time>2013-03-02T09:45:54.000Z</time>
      </trkpt>
      <trkpt lat="43.68496" lon="5.70742">
        <ele>269</ele>
        <time>2013-03-02T09:45:55.000Z</time>
      </trkpt>
      <trkpt lat="43.68504" lon="5.70745">
        <ele>268.39999389648</ele>
        <time>2013-03-02T09:45:56.000Z</time>
      </trkpt>
      <trkpt lat="43.68531" lon="5.70764">
        <ele>264.20001220703</ele>
        <time>2013-03-02T09:46:00.000Z</time>
      </trkpt>
      <trkpt lat="43.68534" lon="5.70768">
        <ele>263.79998779297</ele>
        <time>2013-03-02T09:46:01.000Z</time>
      </trkpt>
      <trkpt lat="43.68536" lon="5.70773">
        <ele>263.39999389648</ele>
        <time>2013-03-02T09:46:02.000Z</time>
      </trkpt>
      <trkpt lat="43.68535" lon="5.70778">
        <ele>263.20001220703</ele>
        <time>2013-03-02T09:46:03.000Z</time>
      </trkpt>
      <trkpt lat="43.68533" lon="5.70785">
        <ele>263.20001220703</ele>
        <time>2013-03-02T09:46:04.000Z</time>
      </trkpt>
      <trkpt lat="43.6853" lon="5.70791">
        <ele>263.20001220703</ele>
        <time>2013-03-02T09:46:05.000Z</time>
      </trkpt>
      <trkpt lat="43.68527" lon="5.70796">
        <ele>263.20001220703</ele>
        <time>2013-03-02T09:46:06.000Z</time>
      </trkpt>
      <trkpt lat="43.68512" lon="5.70826">
        <ele>262.79998779297</ele>
        <time>2013-03-02T09:46:12.000Z</time>
      </trkpt>
      <trkpt lat="43.68507" lon="5.70836">
        <ele>262.39999389648</ele>
        <time>2013-03-02T09:46:14.000Z</time>
      </trkpt>
      <trkpt lat="43.68505" lon="5.70842">
        <ele>262.39999389648</ele>
        <time>2013-03-02T09:46:15.000Z</time>
      </trkpt>
      <trkpt lat="43.68504" lon="5.70849">
        <ele>262.20001220703</ele>
        <time>2013-03-02T09:46:16.000Z</time>
      </trkpt>
      <trkpt lat="43.68505" lon="5.70856">
        <ele>261.79998779297</ele>
        <time>2013-03-02T09:46:17.000Z</time>
      </trkpt>
      <trkpt lat="43.68507" lon="5.70862">
        <ele>261.60000610352</ele>
        <time>2013-03-02T09:46:18.000Z</time>
      </trkpt>
      <trkpt lat="43.68509" lon="5.70868">
        <ele>261.39999389648</ele>
        <time>2013-03-02T09:46:19.000Z</time>
      </trkpt>
      <trkpt lat="43.6851" lon="5.70875">
        <ele>261</ele>
        <time>2013-03-02T09:46:21.000Z</time>
      </trkpt>
      <trkpt lat="43.68509" lon="5.7088">
        <ele>261</ele>
        <time>2013-03-02T09:46:22.000Z</time>
      </trkpt>
      <trkpt lat="43.68507" lon="5.70883">
        <ele>260.79998779297</ele>
        <time>2013-03-02T09:46:23.000Z</time>
      </trkpt>
      <trkpt lat="43.68503" lon="5.70887">
        <ele>260.79998779297</ele>
        <time>2013-03-02T09:46:24.000Z</time>
      </trkpt>
      <trkpt lat="43.68499" lon="5.70891">
        <ele>260.79998779297</ele>
        <time>2013-03-02T09:46:25.000Z</time>
      </trkpt>
      <trkpt lat="43.68453" lon="5.70943">
        <ele>260.20001220703</ele>
        <time>2013-03-02T09:46:38.000Z</time>
      </trkpt>
      <trkpt lat="43.6843" lon="5.7097">
        <ele>259.60000610352</ele>
        <time>2013-03-02T09:46:45.000Z</time>
      </trkpt>
      <trkpt lat="43.68427" lon="5.70974">
        <ele>259.60000610352</ele>
        <time>2013-03-02T09:46:46.000Z</time>
      </trkpt>
      <trkpt lat="43.68385" lon="5.7102">
        <ele>259.79998779297</ele>
        <time>2013-03-02T09:46:59.000Z</time>
      </trkpt>
      <trkpt lat="43.68364" lon="5.71048">
        <ele>259.60000610352</ele>
        <time>2013-03-02T09:47:06.000Z</time>
      </trkpt>
      <trkpt lat="43.68361" lon="5.71053">
        <ele>259.60000610352</ele>
        <time>2013-03-02T09:47:07.000Z</time>
      </trkpt>
      <trkpt lat="43.68358" lon="5.71057">
        <ele>259.60000610352</ele>
        <time>2013-03-02T09:47:08.000Z</time>
      </trkpt>
      <trkpt lat="43.68354" lon="5.71061">
        <ele>259.39999389648</ele>
        <time>2013-03-02T09:47:09.000Z</time>
      </trkpt>
      <trkpt lat="43.68351" lon="5.71066">
        <ele>259.39999389648</ele>
        <time>2013-03-02T09:47:10.000Z</time>
      </trkpt>
      <trkpt lat="43.68348" lon="5.7107">
        <ele>259.20001220703</ele>
        <time>2013-03-02T09:47:11.000Z</time>
      </trkpt>
      <trkpt lat="43.68303" lon="5.71132">
        <ele>260.79998779297</ele>
        <time>2013-03-02T09:47:25.000Z</time>
      </trkpt>
      <trkpt lat="43.68258" lon="5.71192">
        <ele>261</ele>
        <time>2013-03-02T09:47:39.000Z</time>
      </trkpt>
      <trkpt lat="43.68231" lon="5.71228">
        <ele>263.39999389648</ele>
        <time>2013-03-02T09:47:49.000Z</time>
      </trkpt>
      <trkpt lat="43.68186" lon="5.71269">
        <ele>268</ele>
        <time>2013-03-02T09:48:02.000Z</time>
      </trkpt>
      <trkpt lat="43.6817" lon="5.71284">
        <ele>268.60000610352</ele>
        <time>2013-03-02T09:48:07.000Z</time>
      </trkpt>
      <trkpt lat="43.68139" lon="5.71337">
        <ele>266.39999389648</ele>
        <time>2013-03-02T09:48:18.000Z</time>
      </trkpt>
      <trkpt lat="43.68135" lon="5.71341">
        <ele>266.39999389648</ele>
        <time>2013-03-02T09:48:19.000Z</time>
      </trkpt>
      <trkpt lat="43.68087" lon="5.71387">
        <ele>266</ele>
        <time>2013-03-02T09:48:32.000Z</time>
      </trkpt>
      <trkpt lat="43.68067" lon="5.71425">
        <ele>265.60000610352</ele>
        <time>2013-03-02T09:48:41.000Z</time>
      </trkpt>
      <trkpt lat="43.6805" lon="5.71458">
        <ele>267.20001220703</ele>
        <time>2013-03-02T09:48:48.000Z</time>
      </trkpt>
      <trkpt lat="43.68044" lon="5.71466">
        <ele>267.79998779297</ele>
        <time>2013-03-02T09:48:50.000Z</time>
      </trkpt>
      <trkpt lat="43.68007" lon="5.71527">
        <ele>269.79998779297</ele>
        <time>2013-03-02T09:49:03.000Z</time>
      </trkpt>
      <trkpt lat="43.67975" lon="5.71582">
        <ele>270.20001220703</ele>
        <time>2013-03-02T09:49:12.000Z</time>
      </trkpt>
      <trkpt lat="43.67952" lon="5.71639">
        <ele>268.60000610352</ele>
        <time>2013-03-02T09:49:23.000Z</time>
      </trkpt>
      <trkpt lat="43.67913" lon="5.71716">
        <ele>266.79998779297</ele>
        <time>2013-03-02T09:49:38.000Z</time>
      </trkpt>
      <trkpt lat="43.67881" lon="5.71784">
        <ele>269</ele>
        <time>2013-03-02T09:49:52.000Z</time>
      </trkpt>
      <trkpt lat="43.67848" lon="5.71836">
        <ele>271.20001220703</ele>
        <time>2013-03-02T09:50:05.000Z</time>
      </trkpt>
      <trkpt lat="43.67832" lon="5.71874">
        <ele>271.60000610352</ele>
        <time>2013-03-02T09:50:14.000Z</time>
      </trkpt>
      <trkpt lat="43.67825" lon="5.71918">
        <ele>270.79998779297</ele>
        <time>2013-03-02T09:50:23.000Z</time>
      </trkpt>
      <trkpt lat="43.67823" lon="5.71929">
        <ele>270.39999389648</ele>
        <time>2013-03-02T09:50:25.000Z</time>
      </trkpt>
      <trkpt lat="43.67823" lon="5.71935">
        <ele>270.20001220703</ele>
        <time>2013-03-02T09:50:26.000Z</time>
      </trkpt>
      <trkpt lat="43.67819" lon="5.71959">
        <ele>269.39999389648</ele>
        <time>2013-03-02T09:50:30.000Z</time>
      </trkpt>
      <trkpt lat="43.67793" lon="5.72024">
        <ele>270</ele>
        <time>2013-03-02T09:50:39.000Z</time>
      </trkpt>
      <trkpt lat="43.67791" lon="5.72031">
        <ele>269.79998779297</ele>
        <time>2013-03-02T09:50:40.000Z</time>
      </trkpt>
      <trkpt lat="43.67783" lon="5.72061">
        <ele>268.79998779297</ele>
        <time>2013-03-02T09:50:44.000Z</time>
      </trkpt>
      <trkpt lat="43.67781" lon="5.72068">
        <ele>268.60000610352</ele>
        <time>2013-03-02T09:50:45.000Z</time>
      </trkpt>
      <trkpt lat="43.67777" lon="5.72075">
        <ele>268.60000610352</ele>
        <time>2013-03-02T09:50:46.000Z</time>
      </trkpt>
      <trkpt lat="43.67773" lon="5.72081">
        <ele>268.39999389648</ele>
        <time>2013-03-02T09:50:47.000Z</time>
      </trkpt>
      <trkpt lat="43.67768" lon="5.72085">
        <ele>268.60000610352</ele>
        <time>2013-03-02T09:50:48.000Z</time>
      </trkpt>
      <trkpt lat="43.67763" lon="5.72088">
        <ele>268.79998779297</ele>
        <time>2013-03-02T09:50:49.000Z</time>
      </trkpt>
      <trkpt lat="43.67729" lon="5.72114">
        <ele>271.79998779297</ele>
        <time>2013-03-02T09:50:56.000Z</time>
      </trkpt>
      <trkpt lat="43.67695" lon="5.72147">
        <ele>273.39999389648</ele>
        <time>2013-03-02T09:51:04.000Z</time>
      </trkpt>
      <trkpt lat="43.67686" lon="5.72153">
        <ele>273.79998779297</ele>
        <time>2013-03-02T09:51:06.000Z</time>
      </trkpt>
      <trkpt lat="43.67657" lon="5.72165">
        <ele>276.20001220703</ele>
        <time>2013-03-02T09:51:12.000Z</time>
      </trkpt>
      <trkpt lat="43.67653" lon="5.72168">
        <ele>276.60000610352</ele>
        <time>2013-03-02T09:51:13.000Z</time>
      </trkpt>
      <trkpt lat="43.6765" lon="5.72171">
        <ele>277</ele>
        <time>2013-03-02T09:51:14.000Z</time>
      </trkpt>
      <trkpt lat="43.67647" lon="5.72176">
        <ele>277.39999389648</ele>
        <time>2013-03-02T09:51:15.000Z</time>
      </trkpt>
      <trkpt lat="43.67645" lon="5.72181">
        <ele>277.20001220703</ele>
        <time>2013-03-02T09:51:16.000Z</time>
      </trkpt>
      <trkpt lat="43.67645" lon="5.72187">
        <ele>277</ele>
        <time>2013-03-02T09:51:17.000Z</time>
      </trkpt>
      <trkpt lat="43.67644" lon="5.72191">
        <ele>276.79998779297</ele>
        <time>2013-03-02T09:51:18.000Z</time>
      </trkpt>
      <trkpt lat="43.67645" lon="5.72196">
        <ele>276.20001220703</ele>
        <time>2013-03-02T09:51:19.000Z</time>
      </trkpt>
      <trkpt lat="43.67647" lon="5.72201">
        <ele>275.79998779297</ele>
        <time>2013-03-02T09:51:20.000Z</time>
      </trkpt>
      <trkpt lat="43.67656" lon="5.72248">
        <ele>271.39999389648</ele>
        <time>2013-03-02T09:51:30.000Z</time>
      </trkpt>
      <trkpt lat="43.67656" lon="5.7227">
        <ele>271.20001220703</ele>
        <time>2013-03-02T09:51:34.000Z</time>
      </trkpt>
      <trkpt lat="43.67654" lon="5.72275">
        <ele>271.39999389648</ele>
        <time>2013-03-02T09:51:35.000Z</time>
      </trkpt>
      <trkpt lat="43.67652" lon="5.72279">
        <ele>271.60000610352</ele>
        <time>2013-03-02T09:51:36.000Z</time>
      </trkpt>
      <trkpt lat="43.67649" lon="5.72284">
        <ele>272</ele>
        <time>2013-03-02T09:51:37.000Z</time>
      </trkpt>
      <trkpt lat="43.67647" lon="5.72288">
        <ele>272.20001220703</ele>
        <time>2013-03-02T09:51:38.000Z</time>
      </trkpt>
      <trkpt lat="43.67622" lon="5.72329">
        <ele>275.79998779297</ele>
        <time>2013-03-02T09:51:47.000Z</time>
      </trkpt>
      <trkpt lat="43.6762" lon="5.72334">
        <ele>276.20001220703</ele>
        <time>2013-03-02T09:51:48.000Z</time>
      </trkpt>
      <trkpt lat="43.67594" lon="5.72385">
        <ele>277.39999389648</ele>
        <time>2013-03-02T09:52:00.000Z</time>
      </trkpt>
      <trkpt lat="43.67582" lon="5.72429">
        <ele>276.79998779297</ele>
        <time>2013-03-02T09:52:09.000Z</time>
      </trkpt>
      <trkpt lat="43.6758" lon="5.72441">
        <ele>276.79998779297</ele>
        <time>2013-03-02T09:52:11.000Z</time>
      </trkpt>
      <trkpt lat="43.67581" lon="5.72471">
        <ele>275.20001220703</ele>
        <time>2013-03-02T09:52:15.000Z</time>
      </trkpt>
      <trkpt lat="43.67582" lon="5.72478">
        <ele>274.60000610352</ele>
        <time>2013-03-02T09:52:16.000Z</time>
      </trkpt>
      <trkpt lat="43.67584" lon="5.72496">
        <ele>273</ele>
        <time>2013-03-02T09:52:19.000Z</time>
      </trkpt>
      <trkpt lat="43.67587" lon="5.72507">
        <ele>272.79998779297</ele>
        <time>2013-03-02T09:52:21.000Z</time>
      </trkpt>
      <trkpt lat="43.67589" lon="5.72512">
        <ele>272.79998779297</ele>
        <time>2013-03-02T09:52:22.000Z</time>
      </trkpt>
      <trkpt lat="43.67597" lon="5.72539">
        <ele>272.39999389648</ele>
        <time>2013-03-02T09:52:27.000Z</time>
      </trkpt>
      <trkpt lat="43.67601" lon="5.72544">
        <ele>272.20001220703</ele>
        <time>2013-03-02T09:52:28.000Z</time>
      </trkpt>
      <trkpt lat="43.67605" lon="5.72549">
        <ele>272</ele>
        <time>2013-03-02T09:52:29.000Z</time>
      </trkpt>
      <trkpt lat="43.67609" lon="5.72554">
        <ele>271.79998779297</ele>
        <time>2013-03-02T09:52:30.000Z</time>
      </trkpt>
      <trkpt lat="43.67614" lon="5.72558">
        <ele>271.39999389648</ele>
        <time>2013-03-02T09:52:31.000Z</time>
      </trkpt>
      <trkpt lat="43.67623" lon="5.72567">
        <ele>271</ele>
        <time>2013-03-02T09:52:33.000Z</time>
      </trkpt>
      <trkpt lat="43.67625" lon="5.72572">
        <ele>270.79998779297</ele>
        <time>2013-03-02T09:52:34.000Z</time>
      </trkpt>
      <trkpt lat="43.67626" lon="5.72579">
        <ele>270.79998779297</ele>
        <time>2013-03-02T09:52:35.000Z</time>
      </trkpt>
      <trkpt lat="43.67626" lon="5.72585">
        <ele>270.79998779297</ele>
        <time>2013-03-02T09:52:36.000Z</time>
      </trkpt>
      <trkpt lat="43.67626" lon="5.72591">
        <ele>270.79998779297</ele>
        <time>2013-03-02T09:52:37.000Z</time>
      </trkpt>
      <trkpt lat="43.67625" lon="5.72603">
        <ele>270.79998779297</ele>
        <time>2013-03-02T09:52:39.000Z</time>
      </trkpt>
      <trkpt lat="43.67623" lon="5.72609">
        <ele>270.79998779297</ele>
        <time>2013-03-02T09:52:40.000Z</time>
      </trkpt>
      <trkpt lat="43.67623" lon="5.72649">
        <ele>270.60000610352</ele>
        <time>2013-03-02T09:52:48.000Z</time>
      </trkpt>
      <trkpt lat="43.67628" lon="5.72697">
        <ele>270</ele>
        <time>2013-03-02T09:52:56.000Z</time>
      </trkpt>
      <trkpt lat="43.6763" lon="5.72703">
        <ele>270</ele>
        <time>2013-03-02T09:52:57.000Z</time>
      </trkpt>
      <trkpt lat="43.67632" lon="5.72709">
        <ele>270</ele>
        <time>2013-03-02T09:52:58.000Z</time>
      </trkpt>
      <trkpt lat="43.67635" lon="5.72715">
        <ele>269.79998779297</ele>
        <time>2013-03-02T09:52:59.000Z</time>
      </trkpt>
      <trkpt lat="43.67638" lon="5.7272">
        <ele>269.79998779297</ele>
        <time>2013-03-02T09:53:00.000Z</time>
      </trkpt>
      <trkpt lat="43.67675" lon="5.72773">
        <ele>269.79998779297</ele>
        <time>2013-03-02T09:53:12.000Z</time>
      </trkpt>
      <trkpt lat="43.67703" lon="5.72813">
        <ele>270</ele>
        <time>2013-03-02T09:53:21.000Z</time>
      </trkpt>
      <trkpt lat="43.67706" lon="5.72817">
        <ele>270</ele>
        <time>2013-03-02T09:53:22.000Z</time>
      </trkpt>
      <trkpt lat="43.67709" lon="5.7282">
        <ele>270</ele>
        <time>2013-03-02T09:53:23.000Z</time>
      </trkpt>
      <trkpt lat="43.67711" lon="5.72825">
        <ele>270</ele>
        <time>2013-03-02T09:53:24.000Z</time>
      </trkpt>
      <trkpt lat="43.67712" lon="5.7283">
        <ele>270</ele>
        <time>2013-03-02T09:53:25.000Z</time>
      </trkpt>
      <trkpt lat="43.67713" lon="5.72835">
        <ele>270</ele>
        <time>2013-03-02T09:53:26.000Z</time>
      </trkpt>
      <trkpt lat="43.67712" lon="5.7284">
        <ele>270</ele>
        <time>2013-03-02T09:53:27.000Z</time>
      </trkpt>
      <trkpt lat="43.67712" lon="5.72846">
        <ele>270</ele>
        <time>2013-03-02T09:53:28.000Z</time>
      </trkpt>
      <trkpt lat="43.67712" lon="5.72851">
        <ele>270</ele>
        <time>2013-03-02T09:53:29.000Z</time>
      </trkpt>
      <trkpt lat="43.67714" lon="5.72856">
        <ele>270.20001220703</ele>
        <time>2013-03-02T09:53:30.000Z</time>
      </trkpt>
      <trkpt lat="43.67716" lon="5.72861">
        <ele>270.20001220703</ele>
        <time>2013-03-02T09:53:31.000Z</time>
      </trkpt>
      <trkpt lat="43.67732" lon="5.72879">
        <ele>270.60000610352</ele>
        <time>2013-03-02T09:53:37.000Z</time>
      </trkpt>
      <trkpt lat="43.67735" lon="5.72881">
        <ele>270.60000610352</ele>
        <time>2013-03-02T09:53:38.000Z</time>
      </trkpt>
      <trkpt lat="43.67756" lon="5.72909">
        <ele>271</ele>
        <time>2013-03-02T09:53:47.000Z</time>
      </trkpt>
      <trkpt lat="43.67764" lon="5.72928">
        <ele>271.39999389648</ele>
        <time>2013-03-02T09:53:52.000Z</time>
      </trkpt>
      <trkpt lat="43.67783" lon="5.72976">
        <ele>272.79998779297</ele>
        <time>2013-03-02T09:54:05.000Z</time>
      </trkpt>
      <trkpt lat="43.67785" lon="5.73">
        <ele>273.39999389648</ele>
        <time>2013-03-02T09:54:13.000Z</time>
      </trkpt>
      <trkpt lat="43.67785" lon="5.73003">
        <ele>273.60000610352</ele>
        <time>2013-03-02T09:54:14.000Z</time>
      </trkpt>
      <trkpt lat="43.67785" lon="5.73006">
        <ele>274</ele>
        <time>2013-03-02T09:54:15.000Z</time>
      </trkpt>
      <trkpt lat="43.67785" lon="5.73009">
        <ele>274.20001220703</ele>
        <time>2013-03-02T09:54:16.000Z</time>
      </trkpt>
      <trkpt lat="43.67784" lon="5.73013">
        <ele>274.39999389648</ele>
        <time>2013-03-02T09:54:17.000Z</time>
      </trkpt>
      <trkpt lat="43.67784" lon="5.73016">
        <ele>274.79998779297</ele>
        <time>2013-03-02T09:54:18.000Z</time>
      </trkpt>
      <trkpt lat="43.67783" lon="5.7302">
        <ele>275</ele>
        <time>2013-03-02T09:54:19.000Z</time>
      </trkpt>
      <trkpt lat="43.67781" lon="5.73023">
        <ele>275.20001220703</ele>
        <time>2013-03-02T09:54:20.000Z</time>
      </trkpt>
      <trkpt lat="43.67779" lon="5.73026">
        <ele>275.39999389648</ele>
        <time>2013-03-02T09:54:21.000Z</time>
      </trkpt>
      <trkpt lat="43.67778" lon="5.7303">
        <ele>275.39999389648</ele>
        <time>2013-03-02T09:54:22.000Z</time>
      </trkpt>
      <trkpt lat="43.67774" lon="5.73061">
        <ele>278</ele>
        <time>2013-03-02T09:54:32.000Z</time>
      </trkpt>
      <trkpt lat="43.6778" lon="5.73092">
        <ele>281</ele>
        <time>2013-03-02T09:54:42.000Z</time>
      </trkpt>
      <trkpt lat="43.67781" lon="5.73095">
        <ele>281.20001220703</ele>
        <time>2013-03-02T09:54:43.000Z</time>
      </trkpt>
      <trkpt lat="43.6778" lon="5.73099">
        <ele>281.39999389648</ele>
        <time>2013-03-02T09:54:44.000Z</time>
      </trkpt>
      <trkpt lat="43.67779" lon="5.73102">
        <ele>281.39999389648</ele>
        <time>2013-03-02T09:54:45.000Z</time>
      </trkpt>
      <trkpt lat="43.67773" lon="5.73137">
        <ele>283.60000610352</ele>
        <time>2013-03-02T09:54:56.000Z</time>
      </trkpt>
      <trkpt lat="43.67767" lon="5.73181">
        <ele>286.79998779297</ele>
        <time>2013-03-02T09:55:08.000Z</time>
      </trkpt>
      <trkpt lat="43.67767" lon="5.73216">
        <ele>290</ele>
        <time>2013-03-02T09:55:18.000Z</time>
      </trkpt>
      <trkpt lat="43.6777" lon="5.73226">
        <ele>291</ele>
        <time>2013-03-02T09:55:23.000Z</time>
      </trkpt>
      <trkpt lat="43.67769" lon="5.73228">
        <ele>291.20001220703</ele>
        <time>2013-03-02T09:55:24.000Z</time>
      </trkpt>
      <trkpt lat="43.67769" lon="5.73231">
        <ele>291.39999389648</ele>
        <time>2013-03-02T09:55:25.000Z</time>
      </trkpt>
      <trkpt lat="43.67769" lon="5.73233">
        <ele>291.79998779297</ele>
        <time>2013-03-02T09:55:26.000Z</time>
      </trkpt>
      <trkpt lat="43.6777" lon="5.73236">
        <ele>292</ele>
        <time>2013-03-02T09:55:27.000Z</time>
      </trkpt>
      <trkpt lat="43.67771" lon="5.73238">
        <ele>292.20001220703</ele>
        <time>2013-03-02T09:55:28.000Z</time>
      </trkpt>
      <trkpt lat="43.67772" lon="5.7324">
        <ele>292.39999389648</ele>
        <time>2013-03-02T09:55:29.000Z</time>
      </trkpt>
      <trkpt lat="43.67772" lon="5.73242">
        <ele>292.60000610352</ele>
        <time>2013-03-02T09:55:30.000Z</time>
      </trkpt>
      <trkpt lat="43.67773" lon="5.73244">
        <ele>292.79998779297</ele>
        <time>2013-03-02T09:55:31.000Z</time>
      </trkpt>
      <trkpt lat="43.67776" lon="5.73259">
        <ele>294.39999389648</ele>
        <time>2013-03-02T09:55:39.000Z</time>
      </trkpt>
      <trkpt lat="43.6778" lon="5.73279">
        <ele>296</ele>
        <time>2013-03-02T09:55:46.000Z</time>
      </trkpt>
      <trkpt lat="43.67781" lon="5.73281">
        <ele>296.20001220703</ele>
        <time>2013-03-02T09:55:47.000Z</time>
      </trkpt>
      <trkpt lat="43.67782" lon="5.73284">
        <ele>296.39999389648</ele>
        <time>2013-03-02T09:55:48.000Z</time>
      </trkpt>
      <trkpt lat="43.67783" lon="5.73286">
        <ele>296.60000610352</ele>
        <time>2013-03-02T09:55:49.000Z</time>
      </trkpt>
      <trkpt lat="43.67786" lon="5.73292">
        <ele>297</ele>
        <time>2013-03-02T09:55:53.000Z</time>
      </trkpt>
      <trkpt lat="43.67786" lon="5.73322">
        <ele>299.39999389648</ele>
        <time>2013-03-02T09:56:03.000Z</time>
      </trkpt>
      <trkpt lat="43.67787" lon="5.7335">
        <ele>301.79998779297</ele>
        <time>2013-03-02T09:56:14.000Z</time>
      </trkpt>
      <trkpt lat="43.67786" lon="5.73354">
        <ele>302.20001220703</ele>
        <time>2013-03-02T09:56:18.000Z</time>
      </trkpt>
      <trkpt lat="43.67793" lon="5.73365">
        <ele>302.39999389648</ele>
        <time>2013-03-02T09:56:26.000Z</time>
      </trkpt>
      <trkpt lat="43.67801" lon="5.7338">
        <ele>302.79998779297</ele>
        <time>2013-03-02T09:56:36.000Z</time>
      </trkpt>
      <trkpt lat="43.6781" lon="5.73379">
        <ele>301.79998779297</ele>
        <time>2013-03-02T09:56:41.000Z</time>
      </trkpt>
      <trkpt lat="43.67819" lon="5.73382">
        <ele>300.79998779297</ele>
        <time>2013-03-02T09:56:45.000Z</time>
      </trkpt>
      <trkpt lat="43.67823" lon="5.73383">
        <ele>300.60000610352</ele>
        <time>2013-03-02T09:56:46.000Z</time>
      </trkpt>
      <trkpt lat="43.67846" lon="5.73384">
        <ele>301.39999389648</ele>
        <time>2013-03-02T09:56:54.000Z</time>
      </trkpt>
      <trkpt lat="43.67849" lon="5.73383">
        <ele>301.79998779297</ele>
        <time>2013-03-02T09:57:02.000Z</time>
      </trkpt>
      <trkpt lat="43.67853" lon="5.7338">
        <ele>302.20001220703</ele>
        <time>2013-03-02T09:57:12.000Z</time>
      </trkpt>
      <trkpt lat="43.67856" lon="5.73378">
        <ele>302.60000610352</ele>
        <time>2013-03-02T09:57:24.000Z</time>
      </trkpt>
      <trkpt lat="43.67858" lon="5.73375">
        <ele>302.79998779297</ele>
        <time>2013-03-02T09:57:31.000Z</time>
      </trkpt>
      <trkpt lat="43.67861" lon="5.73372">
        <ele>303</ele>
        <time>2013-03-02T09:57:41.000Z</time>
      </trkpt>
      <trkpt lat="43.67863" lon="5.73372">
        <ele>303.20001220703</ele>
        <time>2013-03-02T09:57:46.000Z</time>
      </trkpt>
      <trkpt lat="43.67874" lon="5.73366">
        <ele>304.60000610352</ele>
        <time>2013-03-02T09:57:56.000Z</time>
      </trkpt>
      <trkpt lat="43.67876" lon="5.73365">
        <ele>304.79998779297</ele>
        <time>2013-03-02T09:57:58.000Z</time>
      </trkpt>
      <trkpt lat="43.67881" lon="5.73367">
        <ele>305.79998779297</ele>
        <time>2013-03-02T09:58:02.000Z</time>
      </trkpt>
      <trkpt lat="43.67888" lon="5.73364">
        <ele>306.39999389648</ele>
        <time>2013-03-02T09:58:09.000Z</time>
      </trkpt>
      <trkpt lat="43.67893" lon="5.73365">
        <ele>307.39999389648</ele>
        <time>2013-03-02T09:58:14.000Z</time>
      </trkpt>
      <trkpt lat="43.67897" lon="5.73363">
        <ele>307.79998779297</ele>
        <time>2013-03-02T09:58:18.000Z</time>
      </trkpt>
      <trkpt lat="43.67906" lon="5.73358">
        <ele>308.60000610352</ele>
        <time>2013-03-02T09:58:29.000Z</time>
      </trkpt>
      <trkpt lat="43.67907" lon="5.73354">
        <ele>308.60000610352</ele>
        <time>2013-03-02T09:58:39.000Z</time>
      </trkpt>
      <trkpt lat="43.67907" lon="5.73354">
        <ele>308.39999389648</ele>
        <time>2013-03-02T09:58:40.000Z</time>
      </trkpt>
      <trkpt lat="43.67916" lon="5.73339">
        <ele>308.39999389648</ele>
        <time>2013-03-02T09:58:48.000Z</time>
      </trkpt>
      <trkpt lat="43.67933" lon="5.73324">
        <ele>309.20001220703</ele>
        <time>2013-03-02T09:58:57.000Z</time>
      </trkpt>
      <trkpt lat="43.67957" lon="5.7331">
        <ele>310.20001220703</ele>
        <time>2013-03-02T09:59:06.000Z</time>
      </trkpt>
      <trkpt lat="43.67977" lon="5.73302">
        <ele>311.20001220703</ele>
        <time>2013-03-02T09:59:14.000Z</time>
      </trkpt>
      <trkpt lat="43.67982" lon="5.73299">
        <ele>311</ele>
        <time>2013-03-02T09:59:18.000Z</time>
      </trkpt>
      <trkpt lat="43.67987" lon="5.73298">
        <ele>311.60000610352</ele>
        <time>2013-03-02T09:59:22.000Z</time>
      </trkpt>
      <trkpt lat="43.68005" lon="5.73289">
        <ele>310.79998779297</ele>
        <time>2013-03-02T09:59:29.000Z</time>
      </trkpt>
      <trkpt lat="43.68024" lon="5.73282">
        <ele>309</ele>
        <time>2013-03-02T09:59:35.000Z</time>
      </trkpt>
      <trkpt lat="43.68027" lon="5.73283">
        <ele>309.20001220703</ele>
        <time>2013-03-02T09:59:36.000Z</time>
      </trkpt>
      <trkpt lat="43.68048" lon="5.7329">
        <ele>310.79998779297</ele>
        <time>2013-03-02T09:59:44.000Z</time>
      </trkpt>
      <trkpt lat="43.68065" lon="5.73295">
        <ele>311.60000610352</ele>
        <time>2013-03-02T09:59:51.000Z</time>
      </trkpt>
      <trkpt lat="43.68077" lon="5.73303">
        <ele>313.20001220703</ele>
        <time>2013-03-02T09:59:56.000Z</time>
      </trkpt>
      <trkpt lat="43.68089" lon="5.73303">
        <ele>313</ele>
        <time>2013-03-02T10:00:01.000Z</time>
      </trkpt>
      <trkpt lat="43.68124" lon="5.73301">
        <ele>311.60000610352</ele>
        <time>2013-03-02T10:00:10.000Z</time>
      </trkpt>
      <trkpt lat="43.68147" lon="5.73303">
        <ele>311.20001220703</ele>
        <time>2013-03-02T10:00:19.000Z</time>
      </trkpt>
      <trkpt lat="43.68154" lon="5.73307">
        <ele>311.79998779297</ele>
        <time>2013-03-02T10:00:26.000Z</time>
      </trkpt>
      <trkpt lat="43.68162" lon="5.73309">
        <ele>312</ele>
        <time>2013-03-02T10:00:35.000Z</time>
      </trkpt>
      <trkpt lat="43.68171" lon="5.73307">
        <ele>311.79998779297</ele>
        <time>2013-03-02T10:00:47.000Z</time>
      </trkpt>
      <trkpt lat="43.68177" lon="5.73307">
        <ele>312.20001220703</ele>
        <time>2013-03-02T10:00:53.000Z</time>
      </trkpt>
      <trkpt lat="43.68185" lon="5.73299">
        <ele>311.60000610352</ele>
        <time>2013-03-02T10:01:02.000Z</time>
      </trkpt>
      <trkpt lat="43.68201" lon="5.73294">
        <ele>312</ele>
        <time>2013-03-02T10:01:09.000Z</time>
      </trkpt>
      <trkpt lat="43.68206" lon="5.73294">
        <ele>312.39999389648</ele>
        <time>2013-03-02T10:01:11.000Z</time>
      </trkpt>
      <trkpt lat="43.68215" lon="5.73291">
        <ele>312.60000610352</ele>
        <time>2013-03-02T10:01:15.000Z</time>
      </trkpt>
      <trkpt lat="43.68238" lon="5.73287">
        <ele>313.60000610352</ele>
        <time>2013-03-02T10:01:26.000Z</time>
      </trkpt>
      <trkpt lat="43.68271" lon="5.73278">
        <ele>315</ele>
        <time>2013-03-02T10:01:37.000Z</time>
      </trkpt>
      <trkpt lat="43.6828" lon="5.73272">
        <ele>314.60000610352</ele>
        <time>2013-03-02T10:01:41.000Z</time>
      </trkpt>
      <trkpt lat="43.68296" lon="5.73263">
        <ele>314.60000610352</ele>
        <time>2013-03-02T10:01:49.000Z</time>
      </trkpt>
      <trkpt lat="43.68311" lon="5.73256">
        <ele>314.79998779297</ele>
        <time>2013-03-02T10:01:57.000Z</time>
      </trkpt>
      <trkpt lat="43.68329" lon="5.73253">
        <ele>316</ele>
        <time>2013-03-02T10:02:06.000Z</time>
      </trkpt>
      <trkpt lat="43.68355" lon="5.7325">
        <ele>317.20001220703</ele>
        <time>2013-03-02T10:02:16.000Z</time>
      </trkpt>
      <trkpt lat="43.68375" lon="5.73251">
        <ele>318.60000610352</ele>
        <time>2013-03-02T10:02:24.000Z</time>
      </trkpt>
      <trkpt lat="43.684" lon="5.73253">
        <ele>320.39999389648</ele>
        <time>2013-03-02T10:02:34.000Z</time>
      </trkpt>
      <trkpt lat="43.6841" lon="5.7325">
        <ele>320.39999389648</ele>
        <time>2013-03-02T10:02:38.000Z</time>
      </trkpt>
      <trkpt lat="43.68412" lon="5.73251">
        <ele>320.79998779297</ele>
        <time>2013-03-02T10:02:39.000Z</time>
      </trkpt>
      <trkpt lat="43.68413" lon="5.73253">
        <ele>321</ele>
        <time>2013-03-02T10:02:40.000Z</time>
      </trkpt>
      <trkpt lat="43.68413" lon="5.73254">
        <ele>321.39999389648</ele>
        <time>2013-03-02T10:02:41.000Z</time>
      </trkpt>
      <trkpt lat="43.68414" lon="5.73255">
        <ele>321.60000610352</ele>
        <time>2013-03-02T10:02:42.000Z</time>
      </trkpt>
      <trkpt lat="43.68416" lon="5.73255">
        <ele>321.60000610352</ele>
        <time>2013-03-02T10:02:43.000Z</time>
      </trkpt>
      <trkpt lat="43.68417" lon="5.73254">
        <ele>321.60000610352</ele>
        <time>2013-03-02T10:02:44.000Z</time>
      </trkpt>
      <trkpt lat="43.68419" lon="5.73254">
        <ele>321.39999389648</ele>
        <time>2013-03-02T10:02:45.000Z</time>
      </trkpt>
      <trkpt lat="43.6842" lon="5.73255">
        <ele>321.60000610352</ele>
        <time>2013-03-02T10:02:46.000Z</time>
      </trkpt>
      <trkpt lat="43.6842" lon="5.73256">
        <ele>321.79998779297</ele>
        <time>2013-03-02T10:02:47.000Z</time>
      </trkpt>
      <trkpt lat="43.68421" lon="5.73258">
        <ele>322.20001220703</ele>
        <time>2013-03-02T10:02:48.000Z</time>
      </trkpt>
      <trkpt lat="43.68422" lon="5.73259">
        <ele>322.39999389648</ele>
        <time>2013-03-02T10:02:49.000Z</time>
      </trkpt>
      <trkpt lat="43.68423" lon="5.73261">
        <ele>322.60000610352</ele>
        <time>2013-03-02T10:02:50.000Z</time>
      </trkpt>
      <trkpt lat="43.68425" lon="5.73263">
        <ele>322.79998779297</ele>
        <time>2013-03-02T10:02:51.000Z</time>
      </trkpt>
      <trkpt lat="43.68442" lon="5.73285">
        <ele>325.39999389648</ele>
        <time>2013-03-02T10:03:02.000Z</time>
      </trkpt>
      <trkpt lat="43.68475" lon="5.73312">
        <ele>326.60000610352</ele>
        <time>2013-03-02T10:03:15.000Z</time>
      </trkpt>
      <trkpt lat="43.68475" lon="5.73314">
        <ele>326.60000610352</ele>
        <time>2013-03-02T10:03:16.000Z</time>
      </trkpt>
      <trkpt lat="43.68475" lon="5.73315">
        <ele>326.79998779297</ele>
        <time>2013-03-02T10:03:26.000Z</time>
      </trkpt>
      <trkpt lat="43.68474" lon="5.73315">
        <ele>326.79998779297</ele>
        <time>2013-03-02T10:03:48.000Z</time>
      </trkpt>
      <trkpt lat="43.68477" lon="5.73319">
        <ele>326.79998779297</ele>
        <time>2013-03-02T10:04:06.000Z</time>
      </trkpt>
      <trkpt lat="43.68494" lon="5.73345">
        <ele>326.60000610352</ele>
        <time>2013-03-02T10:04:14.000Z</time>
      </trkpt>
      <trkpt lat="43.68532" lon="5.73399">
        <ele>323.60000610352</ele>
        <time>2013-03-02T10:04:25.000Z</time>
      </trkpt>
      <trkpt lat="43.68537" lon="5.73404">
        <ele>323</ele>
        <time>2013-03-02T10:04:26.000Z</time>
      </trkpt>
      <trkpt lat="43.68543" lon="5.73409">
        <ele>322.20001220703</ele>
        <time>2013-03-02T10:04:27.000Z</time>
      </trkpt>
      <trkpt lat="43.68587" lon="5.73453">
        <ele>316.39999389648</ele>
        <time>2013-03-02T10:04:35.000Z</time>
      </trkpt>
      <trkpt lat="43.6859" lon="5.73459">
        <ele>316</ele>
        <time>2013-03-02T10:04:36.000Z</time>
      </trkpt>
      <trkpt lat="43.68592" lon="5.73464">
        <ele>315.79998779297</ele>
        <time>2013-03-02T10:04:37.000Z</time>
      </trkpt>
      <trkpt lat="43.68592" lon="5.73468">
        <ele>315.79998779297</ele>
        <time>2013-03-02T10:04:38.000Z</time>
      </trkpt>
      <trkpt lat="43.68592" lon="5.7347">
        <ele>315.79998779297</ele>
        <time>2013-03-02T10:04:39.000Z</time>
      </trkpt>
      <trkpt lat="43.68591" lon="5.73473">
        <ele>315.79998779297</ele>
        <time>2013-03-02T10:04:40.000Z</time>
      </trkpt>
      <trkpt lat="43.68587" lon="5.73487">
        <ele>315.79998779297</ele>
        <time>2013-03-02T10:04:43.000Z</time>
      </trkpt>
      <trkpt lat="43.68572" lon="5.73547">
        <ele>315</ele>
        <time>2013-03-02T10:04:51.000Z</time>
      </trkpt>
      <trkpt lat="43.68566" lon="5.7357">
        <ele>314.39999389648</ele>
        <time>2013-03-02T10:04:54.000Z</time>
      </trkpt>
      <trkpt lat="43.68544" lon="5.73607">
        <ele>314</ele>
        <time>2013-03-02T10:05:03.000Z</time>
      </trkpt>
      <trkpt lat="43.68516" lon="5.7364">
        <ele>314.20001220703</ele>
        <time>2013-03-02T10:05:11.000Z</time>
      </trkpt>
      <trkpt lat="43.68514" lon="5.73646">
        <ele>314.20001220703</ele>
        <time>2013-03-02T10:05:12.000Z</time>
      </trkpt>
      <trkpt lat="43.68512" lon="5.73652">
        <ele>314</ele>
        <time>2013-03-02T10:05:13.000Z</time>
      </trkpt>
      <trkpt lat="43.68507" lon="5.73678">
        <ele>313.79998779297</ele>
        <time>2013-03-02T10:05:17.000Z</time>
      </trkpt>
      <trkpt lat="43.68506" lon="5.73684">
        <ele>313.79998779297</ele>
        <time>2013-03-02T10:05:18.000Z</time>
      </trkpt>
      <trkpt lat="43.68507" lon="5.7369">
        <ele>313.79998779297</ele>
        <time>2013-03-02T10:05:19.000Z</time>
      </trkpt>
      <trkpt lat="43.68506" lon="5.73722">
        <ele>314.20001220703</ele>
        <time>2013-03-02T10:05:24.000Z</time>
      </trkpt>
      <trkpt lat="43.68506" lon="5.73728">
        <ele>314.20001220703</ele>
        <time>2013-03-02T10:05:25.000Z</time>
      </trkpt>
      <trkpt lat="43.68507" lon="5.73741">
        <ele>314.20001220703</ele>
        <time>2013-03-02T10:05:27.000Z</time>
      </trkpt>
      <trkpt lat="43.68508" lon="5.73747">
        <ele>314.20001220703</ele>
        <time>2013-03-02T10:05:28.000Z</time>
      </trkpt>
      <trkpt lat="43.6851" lon="5.73785">
        <ele>314.39999389648</ele>
        <time>2013-03-02T10:05:36.000Z</time>
      </trkpt>
      <trkpt lat="43.68517" lon="5.73824">
        <ele>314</ele>
        <time>2013-03-02T10:05:46.000Z</time>
      </trkpt>
      <trkpt lat="43.68509" lon="5.73852">
        <ele>314</ele>
        <time>2013-03-02T10:05:54.000Z</time>
      </trkpt>
      <trkpt lat="43.68494" lon="5.7388">
        <ele>314.20001220703</ele>
        <time>2013-03-02T10:06:04.000Z</time>
      </trkpt>
      <trkpt lat="43.68471" lon="5.73916">
        <ele>313.39999389648</ele>
        <time>2013-03-02T10:06:14.000Z</time>
      </trkpt>
      <trkpt lat="43.68446" lon="5.73945">
        <ele>313.60000610352</ele>
        <time>2013-03-02T10:06:23.000Z</time>
      </trkpt>
      <trkpt lat="43.68424" lon="5.7397">
        <ele>313.60000610352</ele>
        <time>2013-03-02T10:06:30.000Z</time>
      </trkpt>
      <trkpt lat="43.68416" lon="5.73984">
        <ele>313.60000610352</ele>
        <time>2013-03-02T10:06:33.000Z</time>
      </trkpt>
      <trkpt lat="43.68417" lon="5.74003">
        <ele>313</ele>
        <time>2013-03-02T10:06:37.000Z</time>
      </trkpt>
      <trkpt lat="43.68424" lon="5.74011">
        <ele>313.20001220703</ele>
        <time>2013-03-02T10:06:43.000Z</time>
      </trkpt>
      <trkpt lat="43.6842" lon="5.74015">
        <ele>313.39999389648</ele>
        <time>2013-03-02T10:06:52.000Z</time>
      </trkpt>
      <trkpt lat="43.68413" lon="5.7402">
        <ele>314.20001220703</ele>
        <time>2013-03-02T10:07:02.000Z</time>
      </trkpt>
      <trkpt lat="43.68405" lon="5.74028">
        <ele>315.39999389648</ele>
        <time>2013-03-02T10:07:10.000Z</time>
      </trkpt>
      <trkpt lat="43.68398" lon="5.74035">
        <ele>316.60000610352</ele>
        <time>2013-03-02T10:07:19.000Z</time>
      </trkpt>
      <trkpt lat="43.68395" lon="5.74037">
        <ele>316.79998779297</ele>
        <time>2013-03-02T10:07:20.000Z</time>
      </trkpt>
      <trkpt lat="43.68394" lon="5.7404">
        <ele>317.20001220703</ele>
        <time>2013-03-02T10:07:21.000Z</time>
      </trkpt>
      <trkpt lat="43.68393" lon="5.74043">
        <ele>317.60000610352</ele>
        <time>2013-03-02T10:07:22.000Z</time>
      </trkpt>
      <trkpt lat="43.68391" lon="5.74057">
        <ele>318.60000610352</ele>
        <time>2013-03-02T10:07:27.000Z</time>
      </trkpt>
      <trkpt lat="43.68386" lon="5.74059">
        <ele>319.39999389648</ele>
        <time>2013-03-02T10:07:33.000Z</time>
      </trkpt>
      <trkpt lat="43.6838" lon="5.74062">
        <ele>320.20001220703</ele>
        <time>2013-03-02T10:07:37.000Z</time>
      </trkpt>
      <trkpt lat="43.6838" lon="5.74063">
        <ele>320.39999389648</ele>
        <time>2013-03-02T10:07:38.000Z</time>
      </trkpt>
      <trkpt lat="43.68379" lon="5.74064">
        <ele>320.60000610352</ele>
        <time>2013-03-02T10:07:39.000Z</time>
      </trkpt>
      <trkpt lat="43.68378" lon="5.74066">
        <ele>320.79998779297</ele>
        <time>2013-03-02T10:07:40.000Z</time>
      </trkpt>
      <trkpt lat="43.68377" lon="5.74068">
        <ele>321</ele>
        <time>2013-03-02T10:07:41.000Z</time>
      </trkpt>
      <trkpt lat="43.68374" lon="5.74073">
        <ele>321.79998779297</ele>
        <time>2013-03-02T10:07:44.000Z</time>
      </trkpt>
      <trkpt lat="43.68373" lon="5.74073">
        <ele>322</ele>
        <time>2013-03-02T10:07:45.000Z</time>
      </trkpt>
      <trkpt lat="43.68371" lon="5.74074">
        <ele>322.20001220703</ele>
        <time>2013-03-02T10:07:46.000Z</time>
      </trkpt>
      <trkpt lat="43.6837" lon="5.74075">
        <ele>322.39999389648</ele>
        <time>2013-03-02T10:07:47.000Z</time>
      </trkpt>
      <trkpt lat="43.68369" lon="5.74076">
        <ele>322.60000610352</ele>
        <time>2013-03-02T10:07:48.000Z</time>
      </trkpt>
      <trkpt lat="43.68368" lon="5.74077">
        <ele>323</ele>
        <time>2013-03-02T10:07:49.000Z</time>
      </trkpt>
      <trkpt lat="43.68367" lon="5.74078">
        <ele>323.20001220703</ele>
        <time>2013-03-02T10:07:50.000Z</time>
      </trkpt>
      <trkpt lat="43.68355" lon="5.7408">
        <ele>324.79998779297</ele>
        <time>2013-03-02T10:08:00.000Z</time>
      </trkpt>
      <trkpt lat="43.68337" lon="5.74078">
        <ele>326.79998779297</ele>
        <time>2013-03-02T10:08:12.000Z</time>
      </trkpt>
      <trkpt lat="43.68327" lon="5.74077">
        <ele>328</ele>
        <time>2013-03-02T10:08:18.000Z</time>
      </trkpt>
      <trkpt lat="43.68311" lon="5.74086">
        <ele>330</ele>
        <time>2013-03-02T10:08:28.000Z</time>
      </trkpt>
      <trkpt lat="43.68296" lon="5.74085">
        <ele>331.39999389648</ele>
        <time>2013-03-02T10:08:38.000Z</time>
      </trkpt>
      <trkpt lat="43.6828" lon="5.74085">
        <ele>333</ele>
        <time>2013-03-02T10:08:48.000Z</time>
      </trkpt>
      <trkpt lat="43.68265" lon="5.74095">
        <ele>334.60000610352</ele>
        <time>2013-03-02T10:08:57.000Z</time>
      </trkpt>
      <trkpt lat="43.68264" lon="5.74096">
        <ele>334.79998779297</ele>
        <time>2013-03-02T10:08:58.000Z</time>
      </trkpt>
      <trkpt lat="43.68262" lon="5.74098">
        <ele>335</ele>
        <time>2013-03-02T10:08:59.000Z</time>
      </trkpt>
      <trkpt lat="43.68261" lon="5.74099">
        <ele>335</ele>
        <time>2013-03-02T10:09:00.000Z</time>
      </trkpt>
      <trkpt lat="43.6826" lon="5.74101">
        <ele>335.20001220703</ele>
        <time>2013-03-02T10:09:01.000Z</time>
      </trkpt>
      <trkpt lat="43.68259" lon="5.74103">
        <ele>335.39999389648</ele>
        <time>2013-03-02T10:09:02.000Z</time>
      </trkpt>
      <trkpt lat="43.68258" lon="5.74104">
        <ele>335.60000610352</ele>
        <time>2013-03-02T10:09:03.000Z</time>
      </trkpt>
      <trkpt lat="43.68257" lon="5.74106">
        <ele>335.79998779297</ele>
        <time>2013-03-02T10:09:04.000Z</time>
      </trkpt>
      <trkpt lat="43.68255" lon="5.74108">
        <ele>336</ele>
        <time>2013-03-02T10:09:05.000Z</time>
      </trkpt>
      <trkpt lat="43.68243" lon="5.74121">
        <ele>337.39999389648</ele>
        <time>2013-03-02T10:09:16.000Z</time>
      </trkpt>
      <trkpt lat="43.68231" lon="5.74131">
        <ele>338.39999389648</ele>
        <time>2013-03-02T10:09:25.000Z</time>
      </trkpt>
      <trkpt lat="43.68214" lon="5.7414">
        <ele>340</ele>
        <time>2013-03-02T10:09:37.000Z</time>
      </trkpt>
      <trkpt lat="43.68199" lon="5.74146">
        <ele>341.20001220703</ele>
        <time>2013-03-02T10:09:47.000Z</time>
      </trkpt>
      <trkpt lat="43.68184" lon="5.74152">
        <ele>342.39999389648</ele>
        <time>2013-03-02T10:09:57.000Z</time>
      </trkpt>
      <trkpt lat="43.68168" lon="5.74147">
        <ele>343.60000610352</ele>
        <time>2013-03-02T10:10:07.000Z</time>
      </trkpt>
      <trkpt lat="43.68147" lon="5.74143">
        <ele>344.39999389648</ele>
        <time>2013-03-02T10:10:19.000Z</time>
      </trkpt>
      <trkpt lat="43.68125" lon="5.74148">
        <ele>345.39999389648</ele>
        <time>2013-03-02T10:10:28.000Z</time>
      </trkpt>
      <trkpt lat="43.68109" lon="5.74146">
        <ele>346</ele>
        <time>2013-03-02T10:10:37.000Z</time>
      </trkpt>
      <trkpt lat="43.68084" lon="5.74142">
        <ele>346.79998779297</ele>
        <time>2013-03-02T10:10:49.000Z</time>
      </trkpt>
      <trkpt lat="43.68064" lon="5.74148">
        <ele>348.79998779297</ele>
        <time>2013-03-02T10:10:58.000Z</time>
      </trkpt>
      <trkpt lat="43.68045" lon="5.74151">
        <ele>350.60000610352</ele>
        <time>2013-03-02T10:11:09.000Z</time>
      </trkpt>
      <trkpt lat="43.68025" lon="5.74147">
        <ele>352.20001220703</ele>
        <time>2013-03-02T10:11:20.000Z</time>
      </trkpt>
      <trkpt lat="43.68005" lon="5.74142">
        <ele>353.79998779297</ele>
        <time>2013-03-02T10:11:31.000Z</time>
      </trkpt>
      <trkpt lat="43.67985" lon="5.74147">
        <ele>355.60000610352</ele>
        <time>2013-03-02T10:11:42.000Z</time>
      </trkpt>
      <trkpt lat="43.67964" lon="5.74155">
        <ele>357.60000610352</ele>
        <time>2013-03-02T10:11:53.000Z</time>
      </trkpt>
      <trkpt lat="43.67945" lon="5.74167">
        <ele>359.39999389648</ele>
        <time>2013-03-02T10:12:03.000Z</time>
      </trkpt>
      <trkpt lat="43.67927" lon="5.74182">
        <ele>361.20001220703</ele>
        <time>2013-03-02T10:12:14.000Z</time>
      </trkpt>
      <trkpt lat="43.67911" lon="5.74196">
        <ele>362.79998779297</ele>
        <time>2013-03-02T10:12:25.000Z</time>
      </trkpt>
      <trkpt lat="43.67893" lon="5.74211">
        <ele>365</ele>
        <time>2013-03-02T10:12:35.000Z</time>
      </trkpt>
      <trkpt lat="43.67871" lon="5.74227">
        <ele>368</ele>
        <time>2013-03-02T10:12:47.000Z</time>
      </trkpt>
      <trkpt lat="43.67845" lon="5.74237">
        <ele>371.60000610352</ele>
        <time>2013-03-02T10:12:59.000Z</time>
      </trkpt>
      <trkpt lat="43.67822" lon="5.74255">
        <ele>374.60000610352</ele>
        <time>2013-03-02T10:13:09.000Z</time>
      </trkpt>
      <trkpt lat="43.6779" lon="5.74246">
        <ele>376.39999389648</ele>
        <time>2013-03-02T10:13:20.000Z</time>
      </trkpt>
      <trkpt lat="43.67768" lon="5.74243">
        <ele>377.60000610352</ele>
        <time>2013-03-02T10:13:29.000Z</time>
      </trkpt>
      <trkpt lat="43.67744" lon="5.74251">
        <ele>378.39999389648</ele>
        <time>2013-03-02T10:13:39.000Z</time>
      </trkpt>
      <trkpt lat="43.67725" lon="5.74265">
        <ele>377.20001220703</ele>
        <time>2013-03-02T10:13:47.000Z</time>
      </trkpt>
      <trkpt lat="43.67722" lon="5.74268">
        <ele>377</ele>
        <time>2013-03-02T10:13:48.000Z</time>
      </trkpt>
      <trkpt lat="43.6772" lon="5.74272">
        <ele>377</ele>
        <time>2013-03-02T10:13:49.000Z</time>
      </trkpt>
      <trkpt lat="43.67718" lon="5.74275">
        <ele>376.79998779297</ele>
        <time>2013-03-02T10:13:50.000Z</time>
      </trkpt>
      <trkpt lat="43.67717" lon="5.74278">
        <ele>376.79998779297</ele>
        <time>2013-03-02T10:13:51.000Z</time>
      </trkpt>
      <trkpt lat="43.67716" lon="5.74282">
        <ele>376.79998779297</ele>
        <time>2013-03-02T10:13:52.000Z</time>
      </trkpt>
      <trkpt lat="43.67713" lon="5.74286">
        <ele>376.79998779297</ele>
        <time>2013-03-02T10:13:53.000Z</time>
      </trkpt>
      <trkpt lat="43.67711" lon="5.74289">
        <ele>376.79998779297</ele>
        <time>2013-03-02T10:13:54.000Z</time>
      </trkpt>
      <trkpt lat="43.67708" lon="5.74292">
        <ele>376.60000610352</ele>
        <time>2013-03-02T10:13:55.000Z</time>
      </trkpt>
      <trkpt lat="43.67706" lon="5.74295">
        <ele>376.60000610352</ele>
        <time>2013-03-02T10:13:56.000Z</time>
      </trkpt>
      <trkpt lat="43.67704" lon="5.74297">
        <ele>376.60000610352</ele>
        <time>2013-03-02T10:13:57.000Z</time>
      </trkpt>
      <trkpt lat="43.677" lon="5.74303">
        <ele>376.60000610352</ele>
        <time>2013-03-02T10:13:59.000Z</time>
      </trkpt>
      <trkpt lat="43.67699" lon="5.7431">
        <ele>376.60000610352</ele>
        <time>2013-03-02T10:14:01.000Z</time>
      </trkpt>
      <trkpt lat="43.67697" lon="5.7432">
        <ele>377</ele>
        <time>2013-03-02T10:14:09.000Z</time>
      </trkpt>
      <trkpt lat="43.67696" lon="5.74321">
        <ele>377</ele>
        <time>2013-03-02T10:14:28.000Z</time>
      </trkpt>
      <trkpt lat="43.67697" lon="5.74319">
        <ele>376.79998779297</ele>
        <time>2013-03-02T10:14:46.000Z</time>
      </trkpt>
      <trkpt lat="43.67697" lon="5.74318">
        <ele>376.79998779297</ele>
        <time>2013-03-02T10:15:02.000Z</time>
      </trkpt>
      <trkpt lat="43.67698" lon="5.74318">
        <ele>376.79998779297</ele>
        <time>2013-03-02T10:15:12.000Z</time>
      </trkpt>
      <trkpt lat="43.677" lon="5.7432">
        <ele>377</ele>
        <time>2013-03-02T10:15:39.000Z</time>
      </trkpt>
      <trkpt lat="43.67698" lon="5.74321">
        <ele>377</ele>
        <time>2013-03-02T10:16:00.000Z</time>
      </trkpt>
      <trkpt lat="43.67696" lon="5.74322">
        <ele>377</ele>
        <time>2013-03-02T10:16:18.000Z</time>
      </trkpt>
      <trkpt lat="43.67695" lon="5.74321">
        <ele>376.79998779297</ele>
        <time>2013-03-02T10:16:34.000Z</time>
      </trkpt>
      <trkpt lat="43.67696" lon="5.74323">
        <ele>377</ele>
        <time>2013-03-02T10:16:50.000Z</time>
      </trkpt>
      <trkpt lat="43.67697" lon="5.74317">
        <ele>376.79998779297</ele>
        <time>2013-03-02T10:16:57.000Z</time>
      </trkpt>
      <trkpt lat="43.67699" lon="5.74317">
        <ele>376.79998779297</ele>
        <time>2013-03-02T10:17:08.000Z</time>
      </trkpt>
      <trkpt lat="43.67701" lon="5.74318">
        <ele>377</ele>
        <time>2013-03-02T10:17:35.000Z</time>
      </trkpt>
      <trkpt lat="43.67701" lon="5.74315">
        <ele>376.79998779297</ele>
        <time>2013-03-02T10:18:05.000Z</time>
      </trkpt>
      <trkpt lat="43.67701" lon="5.74317">
        <ele>377</ele>
        <time>2013-03-02T10:18:32.000Z</time>
      </trkpt>
      <trkpt lat="43.67699" lon="5.74315">
        <ele>376.79998779297</ele>
        <time>2013-03-02T10:18:57.000Z</time>
      </trkpt>
      <trkpt lat="43.67697" lon="5.74316">
        <ele>376.79998779297</ele>
        <time>2013-03-02T10:19:15.000Z</time>
      </trkpt>
      <trkpt lat="43.67694" lon="5.74321">
        <ele>376.79998779297</ele>
        <time>2013-03-02T10:19:22.000Z</time>
      </trkpt>
      <trkpt lat="43.67695" lon="5.74324">
        <ele>377</ele>
        <time>2013-03-02T10:19:23.000Z</time>
      </trkpt>
      <trkpt lat="43.67695" lon="5.74328">
        <ele>377</ele>
        <time>2013-03-02T10:19:24.000Z</time>
      </trkpt>
      <trkpt lat="43.67695" lon="5.74331">
        <ele>377.20001220703</ele>
        <time>2013-03-02T10:19:25.000Z</time>
      </trkpt>
      <trkpt lat="43.67695" lon="5.74335">
        <ele>377.39999389648</ele>
        <time>2013-03-02T10:19:26.000Z</time>
      </trkpt>
      <trkpt lat="43.67696" lon="5.74339">
        <ele>377.39999389648</ele>
        <time>2013-03-02T10:19:27.000Z</time>
      </trkpt>
      <trkpt lat="43.67696" lon="5.74341">
        <ele>377.60000610352</ele>
        <time>2013-03-02T10:19:28.000Z</time>
      </trkpt>
      <trkpt lat="43.67699" lon="5.74374">
        <ele>378.60000610352</ele>
        <time>2013-03-02T10:19:38.000Z</time>
      </trkpt>
      <trkpt lat="43.67706" lon="5.74416">
        <ele>380</ele>
        <time>2013-03-02T10:19:50.000Z</time>
      </trkpt>
      <trkpt lat="43.67716" lon="5.74446">
        <ele>381</ele>
        <time>2013-03-02T10:19:59.000Z</time>
      </trkpt>
      <trkpt lat="43.67718" lon="5.74485">
        <ele>382.39999389648</ele>
        <time>2013-03-02T10:20:10.000Z</time>
      </trkpt>
      <trkpt lat="43.67728" lon="5.74511">
        <ele>382.39999389648</ele>
        <time>2013-03-02T10:20:16.000Z</time>
      </trkpt>
      <trkpt lat="43.67731" lon="5.74515">
        <ele>382.20001220703</ele>
        <time>2013-03-02T10:20:17.000Z</time>
      </trkpt>
      <trkpt lat="43.67735" lon="5.74519">
        <ele>382</ele>
        <time>2013-03-02T10:20:18.000Z</time>
      </trkpt>
      <trkpt lat="43.67739" lon="5.74522">
        <ele>381.79998779297</ele>
        <time>2013-03-02T10:20:19.000Z</time>
      </trkpt>
      <trkpt lat="43.67742" lon="5.74527">
        <ele>381.60000610352</ele>
        <time>2013-03-02T10:20:20.000Z</time>
      </trkpt>
      <trkpt lat="43.67744" lon="5.74532">
        <ele>381.39999389648</ele>
        <time>2013-03-02T10:20:21.000Z</time>
      </trkpt>
      <trkpt lat="43.67744" lon="5.74537">
        <ele>381.20001220703</ele>
        <time>2013-03-02T10:20:22.000Z</time>
      </trkpt>
      <trkpt lat="43.67743" lon="5.74541">
        <ele>381.20001220703</ele>
        <time>2013-03-02T10:20:23.000Z</time>
      </trkpt>
      <trkpt lat="43.67742" lon="5.74545">
        <ele>381.20001220703</ele>
        <time>2013-03-02T10:20:24.000Z</time>
      </trkpt>
      <trkpt lat="43.67741" lon="5.74549">
        <ele>381.20001220703</ele>
        <time>2013-03-02T10:20:25.000Z</time>
      </trkpt>
      <trkpt lat="43.6774" lon="5.74554">
        <ele>381</ele>
        <time>2013-03-02T10:20:26.000Z</time>
      </trkpt>
      <trkpt lat="43.67727" lon="5.74598">
        <ele>380.39999389648</ele>
        <time>2013-03-02T10:20:35.000Z</time>
      </trkpt>
      <trkpt lat="43.67703" lon="5.74665">
        <ele>378.79998779297</ele>
        <time>2013-03-02T10:20:51.000Z</time>
      </trkpt>
      <trkpt lat="43.67699" lon="5.74699">
        <ele>379.20001220703</ele>
        <time>2013-03-02T10:20:59.000Z</time>
      </trkpt>
      <trkpt lat="43.67701" lon="5.74703">
        <ele>379.20001220703</ele>
        <time>2013-03-02T10:21:00.000Z</time>
      </trkpt>
      <trkpt lat="43.6772" lon="5.74754">
        <ele>379.20001220703</ele>
        <time>2013-03-02T10:21:13.000Z</time>
      </trkpt>
      <trkpt lat="43.6772" lon="5.74802">
        <ele>379</ele>
        <time>2013-03-02T10:21:23.000Z</time>
      </trkpt>
      <trkpt lat="43.67701" lon="5.74867">
        <ele>379.79998779297</ele>
        <time>2013-03-02T10:21:36.000Z</time>
      </trkpt>
      <trkpt lat="43.67686" lon="5.74934">
        <ele>380.60000610352</ele>
        <time>2013-03-02T10:21:49.000Z</time>
      </trkpt>
      <trkpt lat="43.67665" lon="5.74994">
        <ele>382</ele>
        <time>2013-03-02T10:22:01.000Z</time>
      </trkpt>
      <trkpt lat="43.67633" lon="5.75035">
        <ele>382.20001220703</ele>
        <time>2013-03-02T10:22:12.000Z</time>
      </trkpt>
      <trkpt lat="43.67586" lon="5.7507">
        <ele>388</ele>
        <time>2013-03-02T10:22:27.000Z</time>
      </trkpt>
      <trkpt lat="43.67554" lon="5.7509">
        <ele>389.79998779297</ele>
        <time>2013-03-02T10:22:38.000Z</time>
      </trkpt>
      <trkpt lat="43.67529" lon="5.75095">
        <ele>390.79998779297</ele>
        <time>2013-03-02T10:22:47.000Z</time>
      </trkpt>
      <trkpt lat="43.67491" lon="5.75109">
        <ele>391.39999389648</ele>
        <time>2013-03-02T10:23:00.000Z</time>
      </trkpt>
      <trkpt lat="43.67461" lon="5.7515">
        <ele>389.79998779297</ele>
        <time>2013-03-02T10:23:13.000Z</time>
      </trkpt>
      <trkpt lat="43.67422" lon="5.75162">
        <ele>390.60000610352</ele>
        <time>2013-03-02T10:23:23.000Z</time>
      </trkpt>
      <trkpt lat="43.67399" lon="5.75173">
        <ele>389.79998779297</ele>
        <time>2013-03-02T10:23:29.000Z</time>
      </trkpt>
      <trkpt lat="43.67378" lon="5.75182">
        <ele>388.39999389648</ele>
        <time>2013-03-02T10:23:35.000Z</time>
      </trkpt>
      <trkpt lat="43.67368" lon="5.75188">
        <ele>387.79998779297</ele>
        <time>2013-03-02T10:23:37.000Z</time>
      </trkpt>
      <trkpt lat="43.6733" lon="5.75221">
        <ele>385.39999389648</ele>
        <time>2013-03-02T10:23:48.000Z</time>
      </trkpt>
      <trkpt lat="43.67297" lon="5.75259">
        <ele>386.39999389648</ele>
        <time>2013-03-02T10:24:01.000Z</time>
      </trkpt>
      <trkpt lat="43.67273" lon="5.75282">
        <ele>388.39999389648</ele>
        <time>2013-03-02T10:24:11.000Z</time>
      </trkpt>
      <trkpt lat="43.67255" lon="5.75304">
        <ele>390.60000610352</ele>
        <time>2013-03-02T10:24:21.000Z</time>
      </trkpt>
      <trkpt lat="43.67228" lon="5.75337">
        <ele>391</ele>
        <time>2013-03-02T10:24:34.000Z</time>
      </trkpt>
      <trkpt lat="43.67207" lon="5.75382">
        <ele>390.79998779297</ele>
        <time>2013-03-02T10:24:46.000Z</time>
      </trkpt>
      <trkpt lat="43.67183" lon="5.7542">
        <ele>392.60000610352</ele>
        <time>2013-03-02T10:24:58.000Z</time>
      </trkpt>
      <trkpt lat="43.67155" lon="5.75463">
        <ele>394</ele>
        <time>2013-03-02T10:25:11.000Z</time>
      </trkpt>
      <trkpt lat="43.6713" lon="5.75496">
        <ele>394.39999389648</ele>
        <time>2013-03-02T10:25:21.000Z</time>
      </trkpt>
      <trkpt lat="43.67107" lon="5.75506">
        <ele>394.39999389648</ele>
        <time>2013-03-02T10:25:29.000Z</time>
      </trkpt>
      <trkpt lat="43.67083" lon="5.75483">
        <ele>394.79998779297</ele>
        <time>2013-03-02T10:25:38.000Z</time>
      </trkpt>
      <trkpt lat="43.67079" lon="5.75474">
        <ele>394.79998779297</ele>
        <time>2013-03-02T10:25:48.000Z</time>
      </trkpt>
      <trkpt lat="43.67077" lon="5.75474">
        <ele>394.79998779297</ele>
        <time>2013-03-02T10:26:04.000Z</time>
      </trkpt>
      <trkpt lat="43.67077" lon="5.75472">
        <ele>394.79998779297</ele>
        <time>2013-03-02T10:26:23.000Z</time>
      </trkpt>
      <trkpt lat="43.67075" lon="5.75466">
        <ele>394.79998779297</ele>
        <time>2013-03-02T10:26:26.000Z</time>
      </trkpt>
      <trkpt lat="43.67074" lon="5.75463">
        <ele>394.79998779297</ele>
        <time>2013-03-02T10:26:27.000Z</time>
      </trkpt>
      <trkpt lat="43.67073" lon="5.75461">
        <ele>394.79998779297</ele>
        <time>2013-03-02T10:26:28.000Z</time>
      </trkpt>
      <trkpt lat="43.67053" lon="5.75427">
        <ele>394.79998779297</ele>
        <time>2013-03-02T10:26:38.000Z</time>
      </trkpt>
      <trkpt lat="43.67048" lon="5.75395">
        <ele>393.79998779297</ele>
        <time>2013-03-02T10:26:46.000Z</time>
      </trkpt>
      <trkpt lat="43.67051" lon="5.75352">
        <ele>391.79998779297</ele>
        <time>2013-03-02T10:26:56.000Z</time>
      </trkpt>
      <trkpt lat="43.6704" lon="5.75309">
        <ele>390.39999389648</ele>
        <time>2013-03-02T10:27:06.000Z</time>
      </trkpt>
      <trkpt lat="43.67009" lon="5.75288">
        <ele>390</ele>
        <time>2013-03-02T10:27:15.000Z</time>
      </trkpt>
      <trkpt lat="43.66994" lon="5.75279">
        <ele>389.60000610352</ele>
        <time>2013-03-02T10:27:19.000Z</time>
      </trkpt>
      <trkpt lat="43.6699" lon="5.75277">
        <ele>389.39999389648</ele>
        <time>2013-03-02T10:27:20.000Z</time>
      </trkpt>
      <trkpt lat="43.66987" lon="5.75275">
        <ele>389.20001220703</ele>
        <time>2013-03-02T10:27:21.000Z</time>
      </trkpt>
      <trkpt lat="43.66984" lon="5.75274">
        <ele>389</ele>
        <time>2013-03-02T10:27:22.000Z</time>
      </trkpt>
      <trkpt lat="43.66981" lon="5.75273">
        <ele>389</ele>
        <time>2013-03-02T10:27:23.000Z</time>
      </trkpt>
      <trkpt lat="43.66978" lon="5.75271">
        <ele>388.79998779297</ele>
        <time>2013-03-02T10:27:24.000Z</time>
      </trkpt>
      <trkpt lat="43.66975" lon="5.75269">
        <ele>388.60000610352</ele>
        <time>2013-03-02T10:27:25.000Z</time>
      </trkpt>
      <trkpt lat="43.66948" lon="5.75261">
        <ele>387.79998779297</ele>
        <time>2013-03-02T10:27:33.000Z</time>
      </trkpt>
      <trkpt lat="43.66933" lon="5.75276">
        <ele>388.20001220703</ele>
        <time>2013-03-02T10:27:38.000Z</time>
      </trkpt>
      <trkpt lat="43.66927" lon="5.75285">
        <ele>388.39999389648</ele>
        <time>2013-03-02T10:27:40.000Z</time>
      </trkpt>
      <trkpt lat="43.66924" lon="5.7529">
        <ele>388.60000610352</ele>
        <time>2013-03-02T10:27:41.000Z</time>
      </trkpt>
      <trkpt lat="43.66922" lon="5.75296">
        <ele>388.60000610352</ele>
        <time>2013-03-02T10:27:42.000Z</time>
      </trkpt>
      <trkpt lat="43.66912" lon="5.7533">
        <ele>389.20001220703</ele>
        <time>2013-03-02T10:27:50.000Z</time>
      </trkpt>
      <trkpt lat="43.6691" lon="5.7533">
        <ele>389</ele>
        <time>2013-03-02T10:27:51.000Z</time>
      </trkpt>
      <trkpt lat="43.66895" lon="5.75328">
        <ele>387.39999389648</ele>
        <time>2013-03-02T10:28:01.000Z</time>
      </trkpt>
      <trkpt lat="43.66882" lon="5.75328">
        <ele>386</ele>
        <time>2013-03-02T10:28:06.000Z</time>
      </trkpt>
      <trkpt lat="43.66877" lon="5.75327">
        <ele>385.39999389648</ele>
        <time>2013-03-02T10:28:08.000Z</time>
      </trkpt>
      <trkpt lat="43.66874" lon="5.75324">
        <ele>384.79998779297</ele>
        <time>2013-03-02T10:28:10.000Z</time>
      </trkpt>
      <trkpt lat="43.66868" lon="5.75323">
        <ele>384.20001220703</ele>
        <time>2013-03-02T10:28:13.000Z</time>
      </trkpt>
      <trkpt lat="43.66854" lon="5.75308">
        <ele>382</ele>
        <time>2013-03-02T10:28:22.000Z</time>
      </trkpt>
      <trkpt lat="43.66848" lon="5.753">
        <ele>381</ele>
        <time>2013-03-02T10:28:25.000Z</time>
      </trkpt>
      <trkpt lat="43.66842" lon="5.75294">
        <ele>380</ele>
        <time>2013-03-02T10:28:29.000Z</time>
      </trkpt>
      <trkpt lat="43.66829" lon="5.75286">
        <ele>378</ele>
        <time>2013-03-02T10:28:36.000Z</time>
      </trkpt>
      <trkpt lat="43.66823" lon="5.75258">
        <ele>376</ele>
        <time>2013-03-02T10:28:43.000Z</time>
      </trkpt>
      <trkpt lat="43.66821" lon="5.75252">
        <ele>375.39999389648</ele>
        <time>2013-03-02T10:28:45.000Z</time>
      </trkpt>
      <trkpt lat="43.66816" lon="5.7524">
        <ele>374.39999389648</ele>
        <time>2013-03-02T10:28:49.000Z</time>
      </trkpt>
      <trkpt lat="43.66807" lon="5.75216">
        <ele>372.39999389648</ele>
        <time>2013-03-02T10:28:55.000Z</time>
      </trkpt>
      <trkpt lat="43.66802" lon="5.75211">
        <ele>371.79998779297</ele>
        <time>2013-03-02T10:28:57.000Z</time>
      </trkpt>
      <trkpt lat="43.66793" lon="5.75203">
        <ele>370.60000610352</ele>
        <time>2013-03-02T10:29:02.000Z</time>
      </trkpt>
      <trkpt lat="43.66791" lon="5.75194">
        <ele>370.20001220703</ele>
        <time>2013-03-02T10:29:05.000Z</time>
      </trkpt>
      <trkpt lat="43.66791" lon="5.75178">
        <ele>369.60000610352</ele>
        <time>2013-03-02T10:29:08.000Z</time>
      </trkpt>
      <trkpt lat="43.66792" lon="5.75173">
        <ele>369.60000610352</ele>
        <time>2013-03-02T10:29:09.000Z</time>
      </trkpt>
      <trkpt lat="43.66789" lon="5.75162">
        <ele>369.20001220703</ele>
        <time>2013-03-02T10:29:14.000Z</time>
      </trkpt>
      <trkpt lat="43.66777" lon="5.75141">
        <ele>368.60000610352</ele>
        <time>2013-03-02T10:29:21.000Z</time>
      </trkpt>
      <trkpt lat="43.66773" lon="5.75106">
        <ele>369</ele>
        <time>2013-03-02T10:29:26.000Z</time>
      </trkpt>
      <trkpt lat="43.66771" lon="5.75082">
        <ele>369.20001220703</ele>
        <time>2013-03-02T10:29:29.000Z</time>
      </trkpt>
      <trkpt lat="43.66768" lon="5.75069">
        <ele>368</ele>
        <time>2013-03-02T10:29:31.000Z</time>
      </trkpt>
      <trkpt lat="43.66767" lon="5.75036">
        <ele>365</ele>
        <time>2013-03-02T10:29:37.000Z</time>
      </trkpt>
      <trkpt lat="43.66768" lon="5.75026">
        <ele>364.20001220703</ele>
        <time>2013-03-02T10:29:39.000Z</time>
      </trkpt>
      <trkpt lat="43.66776" lon="5.75006">
        <ele>362.79998779297</ele>
        <time>2013-03-02T10:29:46.000Z</time>
      </trkpt>
      <trkpt lat="43.66781" lon="5.74988">
        <ele>360.79998779297</ele>
        <time>2013-03-02T10:29:52.000Z</time>
      </trkpt>
      <trkpt lat="43.66779" lon="5.74978">
        <ele>359.39999389648</ele>
        <time>2013-03-02T10:29:54.000Z</time>
      </trkpt>
      <trkpt lat="43.66782" lon="5.74965">
        <ele>358</ele>
        <time>2013-03-02T10:29:58.000Z</time>
      </trkpt>
      <trkpt lat="43.66786" lon="5.74958">
        <ele>357.20001220703</ele>
        <time>2013-03-02T10:30:01.000Z</time>
      </trkpt>
      <trkpt lat="43.66792" lon="5.74947">
        <ele>356</ele>
        <time>2013-03-02T10:30:04.000Z</time>
      </trkpt>
      <trkpt lat="43.66793" lon="5.74941">
        <ele>355.20001220703</ele>
        <time>2013-03-02T10:30:06.000Z</time>
      </trkpt>
      <trkpt lat="43.66797" lon="5.74928">
        <ele>353.60000610352</ele>
        <time>2013-03-02T10:30:09.000Z</time>
      </trkpt>
      <trkpt lat="43.66807" lon="5.74911">
        <ele>351.60000610352</ele>
        <time>2013-03-02T10:30:15.000Z</time>
      </trkpt>
      <trkpt lat="43.66805" lon="5.74898">
        <ele>350</ele>
        <time>2013-03-02T10:30:21.000Z</time>
      </trkpt>
      <trkpt lat="43.66808" lon="5.74887">
        <ele>348.79998779297</ele>
        <time>2013-03-02T10:30:26.000Z</time>
      </trkpt>
      <trkpt lat="43.66809" lon="5.74883">
        <ele>348.39999389648</ele>
        <time>2013-03-02T10:30:28.000Z</time>
      </trkpt>
      <trkpt lat="43.66816" lon="5.74869">
        <ele>347</ele>
        <time>2013-03-02T10:30:34.000Z</time>
      </trkpt>
      <trkpt lat="43.66832" lon="5.74841">
        <ele>344.60000610352</ele>
        <time>2013-03-02T10:30:41.000Z</time>
      </trkpt>
      <trkpt lat="43.66835" lon="5.74837">
        <ele>344.60000610352</ele>
        <time>2013-03-02T10:30:42.000Z</time>
      </trkpt>
      <trkpt lat="43.66856" lon="5.74807">
        <ele>343.39999389648</ele>
        <time>2013-03-02T10:30:50.000Z</time>
      </trkpt>
      <trkpt lat="43.66863" lon="5.748">
        <ele>343.39999389648</ele>
        <time>2013-03-02T10:30:53.000Z</time>
      </trkpt>
      <trkpt lat="43.66867" lon="5.74793">
        <ele>343</ele>
        <time>2013-03-02T10:30:55.000Z</time>
      </trkpt>
      <trkpt lat="43.66869" lon="5.74788">
        <ele>342.60000610352</ele>
        <time>2013-03-02T10:30:57.000Z</time>
      </trkpt>
      <trkpt lat="43.66881" lon="5.74769">
        <ele>341.39999389648</ele>
        <time>2013-03-02T10:31:04.000Z</time>
      </trkpt>
      <trkpt lat="43.66882" lon="5.74749">
        <ele>339</ele>
        <time>2013-03-02T10:31:07.000Z</time>
      </trkpt>
      <trkpt lat="43.66881" lon="5.74742">
        <ele>338.20001220703</ele>
        <time>2013-03-02T10:31:08.000Z</time>
      </trkpt>
      <trkpt lat="43.6688" lon="5.74736">
        <ele>337.60000610352</ele>
        <time>2013-03-02T10:31:09.000Z</time>
      </trkpt>
      <trkpt lat="43.66881" lon="5.74729">
        <ele>337</ele>
        <time>2013-03-02T10:31:10.000Z</time>
      </trkpt>
      <trkpt lat="43.66883" lon="5.74722">
        <ele>336.60000610352</ele>
        <time>2013-03-02T10:31:11.000Z</time>
      </trkpt>
      <trkpt lat="43.66885" lon="5.74716">
        <ele>336.20001220703</ele>
        <time>2013-03-02T10:31:12.000Z</time>
      </trkpt>
      <trkpt lat="43.66889" lon="5.74699">
        <ele>334.79998779297</ele>
        <time>2013-03-02T10:31:15.000Z</time>
      </trkpt>
      <trkpt lat="43.66889" lon="5.74691">
        <ele>334.20001220703</ele>
        <time>2013-03-02T10:31:16.000Z</time>
      </trkpt>
      <trkpt lat="43.66889" lon="5.74683">
        <ele>333.39999389648</ele>
        <time>2013-03-02T10:31:17.000Z</time>
      </trkpt>
      <trkpt lat="43.6689" lon="5.74675">
        <ele>332.79998779297</ele>
        <time>2013-03-02T10:31:18.000Z</time>
      </trkpt>
      <trkpt lat="43.66892" lon="5.74668">
        <ele>332.20001220703</ele>
        <time>2013-03-02T10:31:19.000Z</time>
      </trkpt>
      <trkpt lat="43.66895" lon="5.74661">
        <ele>331.60000610352</ele>
        <time>2013-03-02T10:31:20.000Z</time>
      </trkpt>
      <trkpt lat="43.66898" lon="5.74654">
        <ele>331</ele>
        <time>2013-03-02T10:31:21.000Z</time>
      </trkpt>
      <trkpt lat="43.66901" lon="5.74647">
        <ele>330.39999389648</ele>
        <time>2013-03-02T10:31:22.000Z</time>
      </trkpt>
      <trkpt lat="43.66907" lon="5.74634">
        <ele>329.20001220703</ele>
        <time>2013-03-02T10:31:24.000Z</time>
      </trkpt>
      <trkpt lat="43.66911" lon="5.74627">
        <ele>328.60000610352</ele>
        <time>2013-03-02T10:31:25.000Z</time>
      </trkpt>
      <trkpt lat="43.66915" lon="5.74621">
        <ele>328</ele>
        <time>2013-03-02T10:31:26.000Z</time>
      </trkpt>
      <trkpt lat="43.6692" lon="5.74616">
        <ele>328</ele>
        <time>2013-03-02T10:31:27.000Z</time>
      </trkpt>
      <trkpt lat="43.66924" lon="5.74611">
        <ele>328</ele>
        <time>2013-03-02T10:31:28.000Z</time>
      </trkpt>
      <trkpt lat="43.66925" lon="5.74604">
        <ele>327.60000610352</ele>
        <time>2013-03-02T10:31:29.000Z</time>
      </trkpt>
      <trkpt lat="43.66926" lon="5.74597">
        <ele>327</ele>
        <time>2013-03-02T10:31:30.000Z</time>
      </trkpt>
      <trkpt lat="43.66926" lon="5.74589">
        <ele>326.20001220703</ele>
        <time>2013-03-02T10:31:31.000Z</time>
      </trkpt>
      <trkpt lat="43.66926" lon="5.7457">
        <ele>324.20001220703</ele>
        <time>2013-03-02T10:31:35.000Z</time>
      </trkpt>
      <trkpt lat="43.66927" lon="5.7457">
        <ele>324.39999389648</ele>
        <time>2013-03-02T10:31:41.000Z</time>
      </trkpt>
      <trkpt lat="43.66927" lon="5.7457">
        <ele>324.39999389648</ele>
        <time>2013-03-02T10:31:54.000Z</time>
      </trkpt>
      <trkpt lat="43.66926" lon="5.7457">
        <ele>324.39999389648</ele>
        <time>2013-03-02T10:32:08.000Z</time>
      </trkpt>
      <trkpt lat="43.66927" lon="5.7457">
        <ele>324.39999389648</ele>
        <time>2013-03-02T10:32:22.000Z</time>
      </trkpt>
      <trkpt lat="43.66925" lon="5.74571">
        <ele>324.20001220703</ele>
        <time>2013-03-02T10:32:35.000Z</time>
      </trkpt>
      <trkpt lat="43.66923" lon="5.7457">
        <ele>323.79998779297</ele>
        <time>2013-03-02T10:32:47.000Z</time>
      </trkpt>
      <trkpt lat="43.66922" lon="5.74565">
        <ele>323.20001220703</ele>
        <time>2013-03-02T10:32:56.000Z</time>
      </trkpt>
      <trkpt lat="43.66921" lon="5.74563">
        <ele>322.79998779297</ele>
        <time>2013-03-02T10:32:57.000Z</time>
      </trkpt>
      <trkpt lat="43.6692" lon="5.7456">
        <ele>322.39999389648</ele>
        <time>2013-03-02T10:32:58.000Z</time>
      </trkpt>
      <trkpt lat="43.66918" lon="5.74558">
        <ele>321.79998779297</ele>
        <time>2013-03-02T10:32:59.000Z</time>
      </trkpt>
      <trkpt lat="43.66915" lon="5.74555">
        <ele>321.60000610352</ele>
        <time>2013-03-02T10:33:00.000Z</time>
      </trkpt>
      <trkpt lat="43.66913" lon="5.74552">
        <ele>321.39999389648</ele>
        <time>2013-03-02T10:33:01.000Z</time>
      </trkpt>
      <trkpt lat="43.66911" lon="5.74549">
        <ele>321</ele>
        <time>2013-03-02T10:33:02.000Z</time>
      </trkpt>
      <trkpt lat="43.6691" lon="5.74545">
        <ele>320.79998779297</ele>
        <time>2013-03-02T10:33:03.000Z</time>
      </trkpt>
      <trkpt lat="43.66909" lon="5.74542">
        <ele>320.39999389648</ele>
        <time>2013-03-02T10:33:04.000Z</time>
      </trkpt>
      <trkpt lat="43.66909" lon="5.74538">
        <ele>320.20001220703</ele>
        <time>2013-03-02T10:33:05.000Z</time>
      </trkpt>
      <trkpt lat="43.66909" lon="5.74534">
        <ele>319.79998779297</ele>
        <time>2013-03-02T10:33:06.000Z</time>
      </trkpt>
      <trkpt lat="43.66909" lon="5.7453">
        <ele>319.60000610352</ele>
        <time>2013-03-02T10:33:07.000Z</time>
      </trkpt>
      <trkpt lat="43.66902" lon="5.74497">
        <ele>316.79998779297</ele>
        <time>2013-03-02T10:33:16.000Z</time>
      </trkpt>
      <trkpt lat="43.66874" lon="5.74468">
        <ele>315.20001220703</ele>
        <time>2013-03-02T10:33:25.000Z</time>
      </trkpt>
      <trkpt lat="43.66846" lon="5.74446">
        <ele>313.79998779297</ele>
        <time>2013-03-02T10:33:33.000Z</time>
      </trkpt>
      <trkpt lat="43.66842" lon="5.74443">
        <ele>313.79998779297</ele>
        <time>2013-03-02T10:33:34.000Z</time>
      </trkpt>
      <trkpt lat="43.66838" lon="5.74441">
        <ele>313.60000610352</ele>
        <time>2013-03-02T10:33:35.000Z</time>
      </trkpt>
      <trkpt lat="43.66834" lon="5.74437">
        <ele>313.39999389648</ele>
        <time>2013-03-02T10:33:36.000Z</time>
      </trkpt>
      <trkpt lat="43.66831" lon="5.74432">
        <ele>312.79998779297</ele>
        <time>2013-03-02T10:33:37.000Z</time>
      </trkpt>
      <trkpt lat="43.66829" lon="5.74427">
        <ele>312.20001220703</ele>
        <time>2013-03-02T10:33:38.000Z</time>
      </trkpt>
      <trkpt lat="43.66828" lon="5.74421">
        <ele>311.79998779297</ele>
        <time>2013-03-02T10:33:39.000Z</time>
      </trkpt>
      <trkpt lat="43.66828" lon="5.74415">
        <ele>311.20001220703</ele>
        <time>2013-03-02T10:33:40.000Z</time>
      </trkpt>
      <trkpt lat="43.66828" lon="5.7441">
        <ele>310.60000610352</ele>
        <time>2013-03-02T10:33:41.000Z</time>
      </trkpt>
      <trkpt lat="43.66828" lon="5.74405">
        <ele>310</ele>
        <time>2013-03-02T10:33:42.000Z</time>
      </trkpt>
      <trkpt lat="43.66827" lon="5.74394">
        <ele>308.79998779297</ele>
        <time>2013-03-02T10:33:44.000Z</time>
      </trkpt>
      <trkpt lat="43.66826" lon="5.74387">
        <ele>307.79998779297</ele>
        <time>2013-03-02T10:33:46.000Z</time>
      </trkpt>
      <trkpt lat="43.66818" lon="5.74366">
        <ele>305</ele>
        <time>2013-03-02T10:33:50.000Z</time>
      </trkpt>
      <trkpt lat="43.66815" lon="5.7436">
        <ele>304</ele>
        <time>2013-03-02T10:33:51.000Z</time>
      </trkpt>
      <trkpt lat="43.6681" lon="5.74354">
        <ele>303</ele>
        <time>2013-03-02T10:33:52.000Z</time>
      </trkpt>
      <trkpt lat="43.66804" lon="5.74349">
        <ele>302.20001220703</ele>
        <time>2013-03-02T10:33:53.000Z</time>
      </trkpt>
      <trkpt lat="43.66798" lon="5.74345">
        <ele>301.39999389648</ele>
        <time>2013-03-02T10:33:54.000Z</time>
      </trkpt>
      <trkpt lat="43.66792" lon="5.74342">
        <ele>300.79998779297</ele>
        <time>2013-03-02T10:33:55.000Z</time>
      </trkpt>
      <trkpt lat="43.66786" lon="5.74342">
        <ele>300.39999389648</ele>
        <time>2013-03-02T10:33:56.000Z</time>
      </trkpt>
      <trkpt lat="43.66781" lon="5.74342">
        <ele>300.20001220703</ele>
        <time>2013-03-02T10:33:57.000Z</time>
      </trkpt>
      <trkpt lat="43.66778" lon="5.74342">
        <ele>300.20001220703</ele>
        <time>2013-03-02T10:33:58.000Z</time>
      </trkpt>
      <trkpt lat="43.66754" lon="5.74334">
        <ele>298.20001220703</ele>
        <time>2013-03-02T10:34:06.000Z</time>
      </trkpt>
      <trkpt lat="43.66752" lon="5.7433">
        <ele>297.79998779297</ele>
        <time>2013-03-02T10:34:07.000Z</time>
      </trkpt>
      <trkpt lat="43.6675" lon="5.74326">
        <ele>297.39999389648</ele>
        <time>2013-03-02T10:34:08.000Z</time>
      </trkpt>
      <trkpt lat="43.66748" lon="5.7432">
        <ele>296.79998779297</ele>
        <time>2013-03-02T10:34:09.000Z</time>
      </trkpt>
      <trkpt lat="43.66748" lon="5.74313">
        <ele>296.20001220703</ele>
        <time>2013-03-02T10:34:10.000Z</time>
      </trkpt>
      <trkpt lat="43.66747" lon="5.74305">
        <ele>295.39999389648</ele>
        <time>2013-03-02T10:34:11.000Z</time>
      </trkpt>
      <trkpt lat="43.66745" lon="5.74297">
        <ele>294.60000610352</ele>
        <time>2013-03-02T10:34:12.000Z</time>
      </trkpt>
      <trkpt lat="43.66742" lon="5.7429">
        <ele>293.79998779297</ele>
        <time>2013-03-02T10:34:13.000Z</time>
      </trkpt>
      <trkpt lat="43.66739" lon="5.74283">
        <ele>293</ele>
        <time>2013-03-02T10:34:14.000Z</time>
      </trkpt>
      <trkpt lat="43.66735" lon="5.74278">
        <ele>292.20001220703</ele>
        <time>2013-03-02T10:34:15.000Z</time>
      </trkpt>
      <trkpt lat="43.66732" lon="5.74273">
        <ele>291.39999389648</ele>
        <time>2013-03-02T10:34:16.000Z</time>
      </trkpt>
      <trkpt lat="43.66729" lon="5.74269">
        <ele>290.79998779297</ele>
        <time>2013-03-02T10:34:17.000Z</time>
      </trkpt>
      <trkpt lat="43.66715" lon="5.74246">
        <ele>287.79998779297</ele>
        <time>2013-03-02T10:34:22.000Z</time>
      </trkpt>
      <trkpt lat="43.66711" lon="5.74239">
        <ele>287</ele>
        <time>2013-03-02T10:34:23.000Z</time>
      </trkpt>
      <trkpt lat="43.66707" lon="5.74231">
        <ele>286.20001220703</ele>
        <time>2013-03-02T10:34:24.000Z</time>
      </trkpt>
      <trkpt lat="43.66705" lon="5.74222">
        <ele>285.60000610352</ele>
        <time>2013-03-02T10:34:25.000Z</time>
      </trkpt>
      <trkpt lat="43.66704" lon="5.74212">
        <ele>285</ele>
        <time>2013-03-02T10:34:26.000Z</time>
      </trkpt>
      <trkpt lat="43.66705" lon="5.74204">
        <ele>284.60000610352</ele>
        <time>2013-03-02T10:34:27.000Z</time>
      </trkpt>
      <trkpt lat="43.66706" lon="5.74196">
        <ele>284.39999389648</ele>
        <time>2013-03-02T10:34:28.000Z</time>
      </trkpt>
      <trkpt lat="43.66708" lon="5.74189">
        <ele>284</ele>
        <time>2013-03-02T10:34:29.000Z</time>
      </trkpt>
      <trkpt lat="43.66714" lon="5.74134">
        <ele>282.79998779297</ele>
        <time>2013-03-02T10:34:38.000Z</time>
      </trkpt>
      <trkpt lat="43.66715" lon="5.74115">
        <ele>282.79998779297</ele>
        <time>2013-03-02T10:34:43.000Z</time>
      </trkpt>
      <trkpt lat="43.66713" lon="5.74114">
        <ele>282.60000610352</ele>
        <time>2013-03-02T10:34:52.000Z</time>
      </trkpt>
      <trkpt lat="43.66713" lon="5.74115">
        <ele>282.79998779297</ele>
        <time>2013-03-02T10:35:05.000Z</time>
      </trkpt>
      <trkpt lat="43.6671" lon="5.74116">
        <ele>282.60000610352</ele>
        <time>2013-03-02T10:35:26.000Z</time>
      </trkpt>
      <trkpt lat="43.66708" lon="5.74116">
        <ele>282.60000610352</ele>
        <time>2013-03-02T10:35:27.000Z</time>
      </trkpt>
      <trkpt lat="43.66706" lon="5.74117">
        <ele>282.60000610352</ele>
        <time>2013-03-02T10:35:28.000Z</time>
      </trkpt>
      <trkpt lat="43.66704" lon="5.74119">
        <ele>282.39999389648</ele>
        <time>2013-03-02T10:35:29.000Z</time>
      </trkpt>
      <trkpt lat="43.66702" lon="5.74123">
        <ele>282.39999389648</ele>
        <time>2013-03-02T10:35:30.000Z</time>
      </trkpt>
      <trkpt lat="43.66699" lon="5.74127">
        <ele>282.39999389648</ele>
        <time>2013-03-02T10:35:31.000Z</time>
      </trkpt>
      <trkpt lat="43.66696" lon="5.74131">
        <ele>282.20001220703</ele>
        <time>2013-03-02T10:35:32.000Z</time>
      </trkpt>
      <trkpt lat="43.66689" lon="5.74146">
        <ele>282</ele>
        <time>2013-03-02T10:35:35.000Z</time>
      </trkpt>
      <trkpt lat="43.66687" lon="5.74152">
        <ele>282</ele>
        <time>2013-03-02T10:35:36.000Z</time>
      </trkpt>
      <trkpt lat="43.66685" lon="5.74159">
        <ele>281.79998779297</ele>
        <time>2013-03-02T10:35:37.000Z</time>
      </trkpt>
      <trkpt lat="43.6667" lon="5.74246">
        <ele>283.20001220703</ele>
        <time>2013-03-02T10:35:48.000Z</time>
      </trkpt>
      <trkpt lat="43.66648" lon="5.74334">
        <ele>286.39999389648</ele>
        <time>2013-03-02T10:35:59.000Z</time>
      </trkpt>
      <trkpt lat="43.6664" lon="5.74411">
        <ele>289.20001220703</ele>
        <time>2013-03-02T10:36:08.000Z</time>
      </trkpt>
      <trkpt lat="43.66627" lon="5.74497">
        <ele>284.60000610352</ele>
        <time>2013-03-02T10:36:18.000Z</time>
      </trkpt>
      <trkpt lat="43.666" lon="5.74591">
        <ele>285.39999389648</ele>
        <time>2013-03-02T10:36:30.000Z</time>
      </trkpt>
      <trkpt lat="43.66579" lon="5.74638">
        <ele>286.60000610352</ele>
        <time>2013-03-02T10:36:37.000Z</time>
      </trkpt>
      <trkpt lat="43.66575" lon="5.74644">
        <ele>286.79998779297</ele>
        <time>2013-03-02T10:36:38.000Z</time>
      </trkpt>
      <trkpt lat="43.6652" lon="5.74705">
        <ele>288.60000610352</ele>
        <time>2013-03-02T10:36:50.000Z</time>
      </trkpt>
      <trkpt lat="43.66497" lon="5.7473">
        <ele>288.39999389648</ele>
        <time>2013-03-02T10:36:55.000Z</time>
      </trkpt>
      <trkpt lat="43.66493" lon="5.74736">
        <ele>288.79998779297</ele>
        <time>2013-03-02T10:36:56.000Z</time>
      </trkpt>
      <trkpt lat="43.6649" lon="5.74743">
        <ele>289.39999389648</ele>
        <time>2013-03-02T10:36:57.000Z</time>
      </trkpt>
      <trkpt lat="43.66487" lon="5.74751">
        <ele>289.79998779297</ele>
        <time>2013-03-02T10:36:58.000Z</time>
      </trkpt>
      <trkpt lat="43.66485" lon="5.74759">
        <ele>290</ele>
        <time>2013-03-02T10:36:59.000Z</time>
      </trkpt>
      <trkpt lat="43.66484" lon="5.74767">
        <ele>290.39999389648</ele>
        <time>2013-03-02T10:37:00.000Z</time>
      </trkpt>
      <trkpt lat="43.66473" lon="5.74844">
        <ele>292.79998779297</ele>
        <time>2013-03-02T10:37:09.000Z</time>
      </trkpt>
      <trkpt lat="43.66443" lon="5.74912">
        <ele>292.60000610352</ele>
        <time>2013-03-02T10:37:18.000Z</time>
      </trkpt>
      <trkpt lat="43.66441" lon="5.7492">
        <ele>292.60000610352</ele>
        <time>2013-03-02T10:37:19.000Z</time>
      </trkpt>
      <trkpt lat="43.66439" lon="5.74928">
        <ele>292.39999389648</ele>
        <time>2013-03-02T10:37:20.000Z</time>
      </trkpt>
      <trkpt lat="43.66438" lon="5.74937">
        <ele>292.39999389648</ele>
        <time>2013-03-02T10:37:21.000Z</time>
      </trkpt>
      <trkpt lat="43.66438" lon="5.74946">
        <ele>292.20001220703</ele>
        <time>2013-03-02T10:37:22.000Z</time>
      </trkpt>
      <trkpt lat="43.66438" lon="5.75047">
        <ele>292.79998779297</ele>
        <time>2013-03-02T10:37:33.000Z</time>
      </trkpt>
      <trkpt lat="43.66441" lon="5.75112">
        <ele>293.39999389648</ele>
        <time>2013-03-02T10:37:40.000Z</time>
      </trkpt>
      <trkpt lat="43.66467" lon="5.75177">
        <ele>295.20001220703</ele>
        <time>2013-03-02T10:37:49.000Z</time>
      </trkpt>
      <trkpt lat="43.66494" lon="5.75222">
        <ele>296.60000610352</ele>
        <time>2013-03-02T10:37:56.000Z</time>
      </trkpt>
      <trkpt lat="43.66497" lon="5.75229">
        <ele>296.60000610352</ele>
        <time>2013-03-02T10:37:57.000Z</time>
      </trkpt>
      <trkpt lat="43.665" lon="5.75236">
        <ele>296.39999389648</ele>
        <time>2013-03-02T10:37:58.000Z</time>
      </trkpt>
      <trkpt lat="43.66505" lon="5.75251">
        <ele>296.79998779297</ele>
        <time>2013-03-02T10:38:00.000Z</time>
      </trkpt>
      <trkpt lat="43.66506" lon="5.75259">
        <ele>297</ele>
        <time>2013-03-02T10:38:01.000Z</time>
      </trkpt>
      <trkpt lat="43.66507" lon="5.75267">
        <ele>297</ele>
        <time>2013-03-02T10:38:02.000Z</time>
      </trkpt>
      <trkpt lat="43.66507" lon="5.75275">
        <ele>296.79998779297</ele>
        <time>2013-03-02T10:38:03.000Z</time>
      </trkpt>
      <trkpt lat="43.66506" lon="5.75284">
        <ele>296.39999389648</ele>
        <time>2013-03-02T10:38:04.000Z</time>
      </trkpt>
      <trkpt lat="43.66506" lon="5.75292">
        <ele>296</ele>
        <time>2013-03-02T10:38:05.000Z</time>
      </trkpt>
      <trkpt lat="43.66504" lon="5.753">
        <ele>295.60000610352</ele>
        <time>2013-03-02T10:38:06.000Z</time>
      </trkpt>
      <trkpt lat="43.66482" lon="5.75372">
        <ele>295.79998779297</ele>
        <time>2013-03-02T10:38:15.000Z</time>
      </trkpt>
      <trkpt lat="43.66457" lon="5.7543">
        <ele>296.60000610352</ele>
        <time>2013-03-02T10:38:23.000Z</time>
      </trkpt>
      <trkpt lat="43.66453" lon="5.75436">
        <ele>296.39999389648</ele>
        <time>2013-03-02T10:38:24.000Z</time>
      </trkpt>
      <trkpt lat="43.66449" lon="5.75441">
        <ele>296</ele>
        <time>2013-03-02T10:38:25.000Z</time>
      </trkpt>
      <trkpt lat="43.66439" lon="5.75449">
        <ele>295.39999389648</ele>
        <time>2013-03-02T10:38:27.000Z</time>
      </trkpt>
      <trkpt lat="43.66423" lon="5.75459">
        <ele>294</ele>
        <time>2013-03-02T10:38:30.000Z</time>
      </trkpt>
      <trkpt lat="43.66336" lon="5.7551">
        <ele>290.60000610352</ele>
        <time>2013-03-02T10:38:45.000Z</time>
      </trkpt>
      <trkpt lat="43.6628" lon="5.75559">
        <ele>291.39999389648</ele>
        <time>2013-03-02T10:38:55.000Z</time>
      </trkpt>
      <trkpt lat="43.66199" lon="5.75631">
        <ele>295.39999389648</ele>
        <time>2013-03-02T10:39:08.000Z</time>
      </trkpt>
      <trkpt lat="43.66102" lon="5.75695">
        <ele>296.60000610352</ele>
        <time>2013-03-02T10:39:22.000Z</time>
      </trkpt>
      <trkpt lat="43.66052" lon="5.75718">
        <ele>299.60000610352</ele>
        <time>2013-03-02T10:39:29.000Z</time>
      </trkpt>
      <trkpt lat="43.65963" lon="5.75725">
        <ele>299</ele>
        <time>2013-03-02T10:39:41.000Z</time>
      </trkpt>
      <trkpt lat="43.65876" lon="5.75724">
        <ele>296.79998779297</ele>
        <time>2013-03-02T10:39:53.000Z</time>
      </trkpt>
      <trkpt lat="43.65819" lon="5.75705">
        <ele>297</ele>
        <time>2013-03-02T10:40:03.000Z</time>
      </trkpt>
      <trkpt lat="43.65815" lon="5.75701">
        <ele>297</ele>
        <time>2013-03-02T10:40:05.000Z</time>
      </trkpt>
      <trkpt lat="43.65815" lon="5.75698">
        <ele>296.79998779297</ele>
        <time>2013-03-02T10:40:06.000Z</time>
      </trkpt>
      <trkpt lat="43.65815" lon="5.75694">
        <ele>296.60000610352</ele>
        <time>2013-03-02T10:40:07.000Z</time>
      </trkpt>
      <trkpt lat="43.65816" lon="5.7569">
        <ele>296.60000610352</ele>
        <time>2013-03-02T10:40:08.000Z</time>
      </trkpt>
      <trkpt lat="43.65816" lon="5.75687">
        <ele>296.39999389648</ele>
        <time>2013-03-02T10:40:09.000Z</time>
      </trkpt>
      <trkpt lat="43.65817" lon="5.75684">
        <ele>296.20001220703</ele>
        <time>2013-03-02T10:40:10.000Z</time>
      </trkpt>
      <trkpt lat="43.65817" lon="5.7568">
        <ele>296</ele>
        <time>2013-03-02T10:40:11.000Z</time>
      </trkpt>
      <trkpt lat="43.65816" lon="5.75677">
        <ele>296</ele>
        <time>2013-03-02T10:40:12.000Z</time>
      </trkpt>
      <trkpt lat="43.65814" lon="5.75673">
        <ele>295.79998779297</ele>
        <time>2013-03-02T10:40:13.000Z</time>
      </trkpt>
      <trkpt lat="43.65812" lon="5.75671">
        <ele>295.79998779297</ele>
        <time>2013-03-02T10:40:14.000Z</time>
      </trkpt>
      <trkpt lat="43.65809" lon="5.75669">
        <ele>295.79998779297</ele>
        <time>2013-03-02T10:40:15.000Z</time>
      </trkpt>
      <trkpt lat="43.65807" lon="5.75667">
        <ele>295.79998779297</ele>
        <time>2013-03-02T10:40:16.000Z</time>
      </trkpt>
      <trkpt lat="43.65804" lon="5.75664">
        <ele>296.20001220703</ele>
        <time>2013-03-02T10:40:17.000Z</time>
      </trkpt>
      <trkpt lat="43.65802" lon="5.75662">
        <ele>296.39999389648</ele>
        <time>2013-03-02T10:40:18.000Z</time>
      </trkpt>
      <trkpt lat="43.658" lon="5.7566">
        <ele>296.79998779297</ele>
        <time>2013-03-02T10:40:19.000Z</time>
      </trkpt>
      <trkpt lat="43.65798" lon="5.75658">
        <ele>297</ele>
        <time>2013-03-02T10:40:20.000Z</time>
      </trkpt>
      <trkpt lat="43.6578" lon="5.75625">
        <ele>299.60000610352</ele>
        <time>2013-03-02T10:40:32.000Z</time>
      </trkpt>
      <trkpt lat="43.65768" lon="5.75594">
        <ele>300.39999389648</ele>
        <time>2013-03-02T10:40:43.000Z</time>
      </trkpt>
      <trkpt lat="43.65745" lon="5.75582">
        <ele>299</ele>
        <time>2013-03-02T10:40:52.000Z</time>
      </trkpt>
      <trkpt lat="43.6572" lon="5.75569">
        <ele>300</ele>
        <time>2013-03-02T10:41:03.000Z</time>
      </trkpt>
      <trkpt lat="43.65701" lon="5.75557">
        <ele>300.60000610352</ele>
        <time>2013-03-02T10:41:12.000Z</time>
      </trkpt>
      <trkpt lat="43.65685" lon="5.75562">
        <ele>299.20001220703</ele>
        <time>2013-03-02T10:41:18.000Z</time>
      </trkpt>
      <trkpt lat="43.65683" lon="5.7556">
        <ele>299.20001220703</ele>
        <time>2013-03-02T10:41:19.000Z</time>
      </trkpt>
      <trkpt lat="43.6568" lon="5.75558">
        <ele>299.39999389648</ele>
        <time>2013-03-02T10:41:20.000Z</time>
      </trkpt>
      <trkpt lat="43.65678" lon="5.75556">
        <ele>299.60000610352</ele>
        <time>2013-03-02T10:41:21.000Z</time>
      </trkpt>
      <trkpt lat="43.65677" lon="5.75554">
        <ele>299.60000610352</ele>
        <time>2013-03-02T10:41:22.000Z</time>
      </trkpt>
      <trkpt lat="43.65674" lon="5.75544">
        <ele>300.60000610352</ele>
        <time>2013-03-02T10:41:26.000Z</time>
      </trkpt>
      <trkpt lat="43.65674" lon="5.75542">
        <ele>301</ele>
        <time>2013-03-02T10:41:27.000Z</time>
      </trkpt>
      <trkpt lat="43.65676" lon="5.75517">
        <ele>303.79998779297</ele>
        <time>2013-03-02T10:41:37.000Z</time>
      </trkpt>
      <trkpt lat="43.65674" lon="5.75514">
        <ele>304</ele>
        <time>2013-03-02T10:41:39.000Z</time>
      </trkpt>
      <trkpt lat="43.65672" lon="5.75513">
        <ele>304</ele>
        <time>2013-03-02T10:41:40.000Z</time>
      </trkpt>
      <trkpt lat="43.65652" lon="5.75502">
        <ele>305.60000610352</ele>
        <time>2013-03-02T10:41:51.000Z</time>
      </trkpt>
      <trkpt lat="43.65639" lon="5.75487">
        <ele>309</ele>
        <time>2013-03-02T10:42:00.000Z</time>
      </trkpt>
      <trkpt lat="43.65629" lon="5.75463">
        <ele>314</ele>
        <time>2013-03-02T10:42:11.000Z</time>
      </trkpt>
      <trkpt lat="43.65613" lon="5.75446">
        <ele>316.60000610352</ele>
        <time>2013-03-02T10:42:22.000Z</time>
      </trkpt>
      <trkpt lat="43.65612" lon="5.75444">
        <ele>316.60000610352</ele>
        <time>2013-03-02T10:42:23.000Z</time>
      </trkpt>
      <trkpt lat="43.65609" lon="5.75443">
        <ele>316.79998779297</ele>
        <time>2013-03-02T10:42:25.000Z</time>
      </trkpt>
      <trkpt lat="43.65608" lon="5.75442">
        <ele>317</ele>
        <time>2013-03-02T10:42:26.000Z</time>
      </trkpt>
      <trkpt lat="43.65606" lon="5.75441">
        <ele>317</ele>
        <time>2013-03-02T10:42:27.000Z</time>
      </trkpt>
      <trkpt lat="43.65604" lon="5.7544">
        <ele>317.20001220703</ele>
        <time>2013-03-02T10:42:28.000Z</time>
      </trkpt>
      <trkpt lat="43.65603" lon="5.75439">
        <ele>317.20001220703</ele>
        <time>2013-03-02T10:42:29.000Z</time>
      </trkpt>
      <trkpt lat="43.65602" lon="5.75438">
        <ele>317.39999389648</ele>
        <time>2013-03-02T10:42:30.000Z</time>
      </trkpt>
      <trkpt lat="43.65601" lon="5.75437">
        <ele>317.39999389648</ele>
        <time>2013-03-02T10:42:31.000Z</time>
      </trkpt>
      <trkpt lat="43.656" lon="5.75436">
        <ele>317.60000610352</ele>
        <time>2013-03-02T10:42:32.000Z</time>
      </trkpt>
      <trkpt lat="43.65598" lon="5.75435">
        <ele>317.60000610352</ele>
        <time>2013-03-02T10:42:33.000Z</time>
      </trkpt>
      <trkpt lat="43.65597" lon="5.75434">
        <ele>317.60000610352</ele>
        <time>2013-03-02T10:42:34.000Z</time>
      </trkpt>
      <trkpt lat="43.65596" lon="5.75433">
        <ele>317.60000610352</ele>
        <time>2013-03-02T10:42:35.000Z</time>
      </trkpt>
      <trkpt lat="43.65594" lon="5.75432">
        <ele>317.79998779297</ele>
        <time>2013-03-02T10:42:36.000Z</time>
      </trkpt>
      <trkpt lat="43.65593" lon="5.75431">
        <ele>317.79998779297</ele>
        <time>2013-03-02T10:42:37.000Z</time>
      </trkpt>
      <trkpt lat="43.65585" lon="5.75419">
        <ele>318.79998779297</ele>
        <time>2013-03-02T10:42:47.000Z</time>
      </trkpt>
      <trkpt lat="43.65583" lon="5.75417">
        <ele>318.79998779297</ele>
        <time>2013-03-02T10:42:49.000Z</time>
      </trkpt>
      <trkpt lat="43.65582" lon="5.75415">
        <ele>319.20001220703</ele>
        <time>2013-03-02T10:42:50.000Z</time>
      </trkpt>
      <trkpt lat="43.65581" lon="5.75414">
        <ele>319.79998779297</ele>
        <time>2013-03-02T10:42:51.000Z</time>
      </trkpt>
      <trkpt lat="43.65581" lon="5.75412">
        <ele>320.20001220703</ele>
        <time>2013-03-02T10:42:52.000Z</time>
      </trkpt>
      <trkpt lat="43.6558" lon="5.7541">
        <ele>320.79998779297</ele>
        <time>2013-03-02T10:42:53.000Z</time>
      </trkpt>
      <trkpt lat="43.65579" lon="5.75408">
        <ele>321.20001220703</ele>
        <time>2013-03-02T10:42:54.000Z</time>
      </trkpt>
      <trkpt lat="43.65567" lon="5.75397">
        <ele>324</ele>
        <time>2013-03-02T10:43:04.000Z</time>
      </trkpt>
      <trkpt lat="43.6556" lon="5.75388">
        <ele>325.79998779297</ele>
        <time>2013-03-02T10:43:11.000Z</time>
      </trkpt>
      <trkpt lat="43.65558" lon="5.75387">
        <ele>326.20001220703</ele>
        <time>2013-03-02T10:43:12.000Z</time>
      </trkpt>
      <trkpt lat="43.65542" lon="5.75372">
        <ele>329</ele>
        <time>2013-03-02T10:43:24.000Z</time>
      </trkpt>
      <trkpt lat="43.65526" lon="5.75357">
        <ele>331.39999389648</ele>
        <time>2013-03-02T10:43:35.000Z</time>
      </trkpt>
      <trkpt lat="43.65525" lon="5.75356">
        <ele>331.60000610352</ele>
        <time>2013-03-02T10:43:36.000Z</time>
      </trkpt>
      <trkpt lat="43.65524" lon="5.75354">
        <ele>331.79998779297</ele>
        <time>2013-03-02T10:43:37.000Z</time>
      </trkpt>
      <trkpt lat="43.65523" lon="5.75353">
        <ele>332</ele>
        <time>2013-03-02T10:43:38.000Z</time>
      </trkpt>
      <trkpt lat="43.65521" lon="5.75351">
        <ele>332.20001220703</ele>
        <time>2013-03-02T10:43:39.000Z</time>
      </trkpt>
      <trkpt lat="43.6552" lon="5.7535">
        <ele>332.39999389648</ele>
        <time>2013-03-02T10:43:40.000Z</time>
      </trkpt>
      <trkpt lat="43.65506" lon="5.7533">
        <ele>335.20001220703</ele>
        <time>2013-03-02T10:43:51.000Z</time>
      </trkpt>
      <trkpt lat="43.6549" lon="5.75325">
        <ele>336.79998779297</ele>
        <time>2013-03-02T10:44:01.000Z</time>
      </trkpt>
      <trkpt lat="43.65482" lon="5.7532">
        <ele>338.39999389648</ele>
        <time>2013-03-02T10:44:05.000Z</time>
      </trkpt>
      <trkpt lat="43.6548" lon="5.75319">
        <ele>338.79998779297</ele>
        <time>2013-03-02T10:44:06.000Z</time>
      </trkpt>
      <trkpt lat="43.65478" lon="5.75318">
        <ele>339.20001220703</ele>
        <time>2013-03-02T10:44:07.000Z</time>
      </trkpt>
      <trkpt lat="43.65476" lon="5.75317">
        <ele>339.39999389648</ele>
        <time>2013-03-02T10:44:08.000Z</time>
      </trkpt>
      <trkpt lat="43.65474" lon="5.75316">
        <ele>339.79998779297</ele>
        <time>2013-03-02T10:44:09.000Z</time>
      </trkpt>
      <trkpt lat="43.65472" lon="5.75315">
        <ele>340.20001220703</ele>
        <time>2013-03-02T10:44:10.000Z</time>
      </trkpt>
      <trkpt lat="43.65449" lon="5.75303">
        <ele>343.60000610352</ele>
        <time>2013-03-02T10:44:23.000Z</time>
      </trkpt>
      <trkpt lat="43.65427" lon="5.75287">
        <ele>347</ele>
        <time>2013-03-02T10:44:36.000Z</time>
      </trkpt>
      <trkpt lat="43.65409" lon="5.75271">
        <ele>350.20001220703</ele>
        <time>2013-03-02T10:44:47.000Z</time>
      </trkpt>
      <trkpt lat="43.65387" lon="5.75256">
        <ele>354.60000610352</ele>
        <time>2013-03-02T10:45:00.000Z</time>
      </trkpt>
      <trkpt lat="43.65384" lon="5.75254">
        <ele>355.20001220703</ele>
        <time>2013-03-02T10:45:02.000Z</time>
      </trkpt>
      <trkpt lat="43.65383" lon="5.75253">
        <ele>355.39999389648</ele>
        <time>2013-03-02T10:45:03.000Z</time>
      </trkpt>
      <trkpt lat="43.65381" lon="5.75252">
        <ele>355.60000610352</ele>
        <time>2013-03-02T10:45:04.000Z</time>
      </trkpt>
      <trkpt lat="43.65363" lon="5.75248">
        <ele>357.79998779297</ele>
        <time>2013-03-02T10:45:16.000Z</time>
      </trkpt>
      <trkpt lat="43.65353" lon="5.75247">
        <ele>358.79998779297</ele>
        <time>2013-03-02T10:45:23.000Z</time>
      </trkpt>
      <trkpt lat="43.65352" lon="5.75247">
        <ele>359</ele>
        <time>2013-03-02T10:45:24.000Z</time>
      </trkpt>
      <trkpt lat="43.65351" lon="5.75246">
        <ele>359</ele>
        <time>2013-03-02T10:45:25.000Z</time>
      </trkpt>
      <trkpt lat="43.65349" lon="5.75246">
        <ele>359.20001220703</ele>
        <time>2013-03-02T10:45:26.000Z</time>
      </trkpt>
      <trkpt lat="43.65348" lon="5.75245">
        <ele>359.39999389648</ele>
        <time>2013-03-02T10:45:27.000Z</time>
      </trkpt>
      <trkpt lat="43.65347" lon="5.75245">
        <ele>359.60000610352</ele>
        <time>2013-03-02T10:45:28.000Z</time>
      </trkpt>
      <trkpt lat="43.65345" lon="5.75245">
        <ele>359.79998779297</ele>
        <time>2013-03-02T10:45:29.000Z</time>
      </trkpt>
      <trkpt lat="43.65342" lon="5.75244">
        <ele>360</ele>
        <time>2013-03-02T10:45:31.000Z</time>
      </trkpt>
      <trkpt lat="43.65341" lon="5.75244">
        <ele>360.20001220703</ele>
        <time>2013-03-02T10:45:32.000Z</time>
      </trkpt>
      <trkpt lat="43.65339" lon="5.75244">
        <ele>360.39999389648</ele>
        <time>2013-03-02T10:45:33.000Z</time>
      </trkpt>
      <trkpt lat="43.65338" lon="5.75244">
        <ele>360.39999389648</ele>
        <time>2013-03-02T10:45:34.000Z</time>
      </trkpt>
      <trkpt lat="43.65323" lon="5.75245">
        <ele>359.79998779297</ele>
        <time>2013-03-02T10:45:45.000Z</time>
      </trkpt>
      <trkpt lat="43.65322" lon="5.75246">
        <ele>359.39999389648</ele>
        <time>2013-03-02T10:45:46.000Z</time>
      </trkpt>
      <trkpt lat="43.65321" lon="5.75247">
        <ele>359.20001220703</ele>
        <time>2013-03-02T10:45:47.000Z</time>
      </trkpt>
      <trkpt lat="43.6532" lon="5.75247">
        <ele>359</ele>
        <time>2013-03-02T10:45:48.000Z</time>
      </trkpt>
      <trkpt lat="43.65318" lon="5.75247">
        <ele>359</ele>
        <time>2013-03-02T10:45:49.000Z</time>
      </trkpt>
      <trkpt lat="43.65317" lon="5.75248">
        <ele>358.60000610352</ele>
        <time>2013-03-02T10:45:50.000Z</time>
      </trkpt>
      <trkpt lat="43.65316" lon="5.75248">
        <ele>358.60000610352</ele>
        <time>2013-03-02T10:45:51.000Z</time>
      </trkpt>
      <trkpt lat="43.65315" lon="5.75248">
        <ele>358.39999389648</ele>
        <time>2013-03-02T10:45:52.000Z</time>
      </trkpt>
      <trkpt lat="43.65313" lon="5.75249">
        <ele>358.20001220703</ele>
        <time>2013-03-02T10:45:53.000Z</time>
      </trkpt>
      <trkpt lat="43.65312" lon="5.75249">
        <ele>358</ele>
        <time>2013-03-02T10:45:54.000Z</time>
      </trkpt>
      <trkpt lat="43.653" lon="5.75247">
        <ele>357.20001220703</ele>
        <time>2013-03-02T10:46:03.000Z</time>
      </trkpt>
      <trkpt lat="43.65299" lon="5.75246">
        <ele>357.39999389648</ele>
        <time>2013-03-02T10:46:04.000Z</time>
      </trkpt>
      <trkpt lat="43.65298" lon="5.75244">
        <ele>357.39999389648</ele>
        <time>2013-03-02T10:46:05.000Z</time>
      </trkpt>
      <trkpt lat="43.65297" lon="5.75242">
        <ele>357.60000610352</ele>
        <time>2013-03-02T10:46:06.000Z</time>
      </trkpt>
      <trkpt lat="43.65297" lon="5.75241">
        <ele>358</ele>
        <time>2013-03-02T10:46:07.000Z</time>
      </trkpt>
      <trkpt lat="43.65297" lon="5.75239">
        <ele>358.20001220703</ele>
        <time>2013-03-02T10:46:08.000Z</time>
      </trkpt>
      <trkpt lat="43.653" lon="5.75228">
        <ele>360.20001220703</ele>
        <time>2013-03-02T10:46:14.000Z</time>
      </trkpt>
      <trkpt lat="43.65306" lon="5.75215">
        <ele>363</ele>
        <time>2013-03-02T10:46:23.000Z</time>
      </trkpt>
      <trkpt lat="43.65313" lon="5.75207">
        <ele>364.79998779297</ele>
        <time>2013-03-02T10:46:30.000Z</time>
      </trkpt>
      <trkpt lat="43.65314" lon="5.75206">
        <ele>365.20001220703</ele>
        <time>2013-03-02T10:46:31.000Z</time>
      </trkpt>
      <trkpt lat="43.65315" lon="5.75205">
        <ele>365.39999389648</ele>
        <time>2013-03-02T10:46:32.000Z</time>
      </trkpt>
      <trkpt lat="43.65316" lon="5.75203">
        <ele>365.79998779297</ele>
        <time>2013-03-02T10:46:33.000Z</time>
      </trkpt>
      <trkpt lat="43.65317" lon="5.75202">
        <ele>366</ele>
        <time>2013-03-02T10:46:34.000Z</time>
      </trkpt>
      <trkpt lat="43.65323" lon="5.75189">
        <ele>368.60000610352</ele>
        <time>2013-03-02T10:46:44.000Z</time>
      </trkpt>
      <trkpt lat="43.65331" lon="5.75177">
        <ele>371.20001220703</ele>
        <time>2013-03-02T10:46:54.000Z</time>
      </trkpt>
      <trkpt lat="43.65337" lon="5.75168">
        <ele>372.60000610352</ele>
        <time>2013-03-02T10:47:01.000Z</time>
      </trkpt>
      <trkpt lat="43.65338" lon="5.75167">
        <ele>372.60000610352</ele>
        <time>2013-03-02T10:47:02.000Z</time>
      </trkpt>
      <trkpt lat="43.65342" lon="5.75162">
        <ele>373</ele>
        <time>2013-03-02T10:47:06.000Z</time>
      </trkpt>
      <trkpt lat="43.65343" lon="5.75161">
        <ele>373</ele>
        <time>2013-03-02T10:47:07.000Z</time>
      </trkpt>
      <trkpt lat="43.65344" lon="5.7516">
        <ele>373.20001220703</ele>
        <time>2013-03-02T10:47:08.000Z</time>
      </trkpt>
      <trkpt lat="43.65351" lon="5.75147">
        <ele>374.20001220703</ele>
        <time>2013-03-02T10:47:18.000Z</time>
      </trkpt>
      <trkpt lat="43.65352" lon="5.75146">
        <ele>374.39999389648</ele>
        <time>2013-03-02T10:47:19.000Z</time>
      </trkpt>
      <trkpt lat="43.65361" lon="5.75133">
        <ele>375.20001220703</ele>
        <time>2013-03-02T10:47:30.000Z</time>
      </trkpt>
      <trkpt lat="43.65365" lon="5.75129">
        <ele>375.60000610352</ele>
        <time>2013-03-02T10:47:34.000Z</time>
      </trkpt>
      <trkpt lat="43.65367" lon="5.75127">
        <ele>375.79998779297</ele>
        <time>2013-03-02T10:47:37.000Z</time>
      </trkpt>
      <trkpt lat="43.65368" lon="5.75127">
        <ele>375.79998779297</ele>
        <time>2013-03-02T10:47:38.000Z</time>
      </trkpt>
      <trkpt lat="43.65369" lon="5.75126">
        <ele>375.79998779297</ele>
        <time>2013-03-02T10:47:39.000Z</time>
      </trkpt>
      <trkpt lat="43.6537" lon="5.75125">
        <ele>375.79998779297</ele>
        <time>2013-03-02T10:47:40.000Z</time>
      </trkpt>
      <trkpt lat="43.65371" lon="5.75123">
        <ele>376</ele>
        <time>2013-03-02T10:47:41.000Z</time>
      </trkpt>
      <trkpt lat="43.65372" lon="5.75122">
        <ele>376.20001220703</ele>
        <time>2013-03-02T10:47:42.000Z</time>
      </trkpt>
      <trkpt lat="43.65372" lon="5.75121">
        <ele>376.20001220703</ele>
        <time>2013-03-02T10:47:43.000Z</time>
      </trkpt>
      <trkpt lat="43.65373" lon="5.75117">
        <ele>376.60000610352</ele>
        <time>2013-03-02T10:47:45.000Z</time>
      </trkpt>
      <trkpt lat="43.65373" lon="5.75115">
        <ele>376.79998779297</ele>
        <time>2013-03-02T10:47:46.000Z</time>
      </trkpt>
      <trkpt lat="43.65372" lon="5.75112">
        <ele>377.20001220703</ele>
        <time>2013-03-02T10:47:48.000Z</time>
      </trkpt>
      <trkpt lat="43.65371" lon="5.75111">
        <ele>377.39999389648</ele>
        <time>2013-03-02T10:47:49.000Z</time>
      </trkpt>
      <trkpt lat="43.65366" lon="5.75109">
        <ele>377.79998779297</ele>
        <time>2013-03-02T10:47:52.000Z</time>
      </trkpt>
      <trkpt lat="43.65365" lon="5.75108">
        <ele>378</ele>
        <time>2013-03-02T10:47:53.000Z</time>
      </trkpt>
      <trkpt lat="43.65363" lon="5.75107">
        <ele>378.20001220703</ele>
        <time>2013-03-02T10:47:54.000Z</time>
      </trkpt>
      <trkpt lat="43.65362" lon="5.75105">
        <ele>378.39999389648</ele>
        <time>2013-03-02T10:47:55.000Z</time>
      </trkpt>
      <trkpt lat="43.65361" lon="5.75104">
        <ele>378.60000610352</ele>
        <time>2013-03-02T10:47:56.000Z</time>
      </trkpt>
      <trkpt lat="43.65361" lon="5.75103">
        <ele>378.79998779297</ele>
        <time>2013-03-02T10:47:57.000Z</time>
      </trkpt>
      <trkpt lat="43.65358" lon="5.751">
        <ele>379.20001220703</ele>
        <time>2013-03-02T10:48:06.000Z</time>
      </trkpt>
      <trkpt lat="43.65357" lon="5.75099">
        <ele>379.39999389648</ele>
        <time>2013-03-02T10:48:19.000Z</time>
      </trkpt>
      <trkpt lat="43.65359" lon="5.751">
        <ele>379.20001220703</ele>
        <time>2013-03-02T10:48:32.000Z</time>
      </trkpt>
      <trkpt lat="43.65361" lon="5.75099">
        <ele>379.20001220703</ele>
        <time>2013-03-02T10:48:58.000Z</time>
      </trkpt>
      <trkpt lat="43.65359" lon="5.751">
        <ele>379.20001220703</ele>
        <time>2013-03-02T10:49:24.000Z</time>
      </trkpt>
      <trkpt lat="43.65361" lon="5.75098">
        <ele>379.20001220703</ele>
        <time>2013-03-02T10:49:48.000Z</time>
      </trkpt>
      <trkpt lat="43.65359" lon="5.75097">
        <ele>379.39999389648</ele>
        <time>2013-03-02T10:50:05.000Z</time>
      </trkpt>
      <trkpt lat="43.65358" lon="5.75099">
        <ele>379.20001220703</ele>
        <time>2013-03-02T10:50:20.000Z</time>
      </trkpt>
      <trkpt lat="43.65357" lon="5.751">
        <ele>379.20001220703</ele>
        <time>2013-03-02T10:50:42.000Z</time>
      </trkpt>
      <trkpt lat="43.65358" lon="5.751">
        <ele>379.20001220703</ele>
        <time>2013-03-02T10:51:01.000Z</time>
      </trkpt>
      <trkpt lat="43.65356" lon="5.75099">
        <ele>379.39999389648</ele>
        <time>2013-03-02T10:51:17.000Z</time>
      </trkpt>
      <trkpt lat="43.65359" lon="5.75098">
        <ele>379.39999389648</ele>
        <time>2013-03-02T10:51:32.000Z</time>
      </trkpt>
      <trkpt lat="43.65359" lon="5.75097">
        <ele>379.39999389648</ele>
        <time>2013-03-02T10:51:48.000Z</time>
      </trkpt>
      <trkpt lat="43.6536" lon="5.75096">
        <ele>379.60000610352</ele>
        <time>2013-03-02T10:52:05.000Z</time>
      </trkpt>
      <trkpt lat="43.65358" lon="5.75093">
        <ele>380</ele>
        <time>2013-03-02T10:52:24.000Z</time>
      </trkpt>
      <trkpt lat="43.65352" lon="5.75077">
        <ele>381.20001220703</ele>
        <time>2013-03-02T10:52:34.000Z</time>
      </trkpt>
      <trkpt lat="43.65341" lon="5.75044">
        <ele>381.20001220703</ele>
        <time>2013-03-02T10:52:42.000Z</time>
      </trkpt>
      <trkpt lat="43.65338" lon="5.75029">
        <ele>381.20001220703</ele>
        <time>2013-03-02T10:52:45.000Z</time>
      </trkpt>
      <trkpt lat="43.65335" lon="5.75026">
        <ele>381.20001220703</ele>
        <time>2013-03-02T10:52:46.000Z</time>
      </trkpt>
      <trkpt lat="43.65332" lon="5.75024">
        <ele>381.20001220703</ele>
        <time>2013-03-02T10:52:47.000Z</time>
      </trkpt>
      <trkpt lat="43.65329" lon="5.75023">
        <ele>381</ele>
        <time>2013-03-02T10:52:48.000Z</time>
      </trkpt>
      <trkpt lat="43.65326" lon="5.75022">
        <ele>381</ele>
        <time>2013-03-02T10:52:49.000Z</time>
      </trkpt>
      <trkpt lat="43.65323" lon="5.75022">
        <ele>380.79998779297</ele>
        <time>2013-03-02T10:52:50.000Z</time>
      </trkpt>
      <trkpt lat="43.6532" lon="5.7502">
        <ele>380.79998779297</ele>
        <time>2013-03-02T10:52:51.000Z</time>
      </trkpt>
      <trkpt lat="43.65317" lon="5.75018">
        <ele>380.60000610352</ele>
        <time>2013-03-02T10:52:52.000Z</time>
      </trkpt>
      <trkpt lat="43.65291" lon="5.74995">
        <ele>380</ele>
        <time>2013-03-02T10:53:02.000Z</time>
      </trkpt>
      <trkpt lat="43.65254" lon="5.74974">
        <ele>379</ele>
        <time>2013-03-02T10:53:14.000Z</time>
      </trkpt>
      <trkpt lat="43.65234" lon="5.74948">
        <ele>375.60000610352</ele>
        <time>2013-03-02T10:53:24.000Z</time>
      </trkpt>
      <trkpt lat="43.65234" lon="5.74936">
        <ele>375.79998779297</ele>
        <time>2013-03-02T10:53:27.000Z</time>
      </trkpt>
      <trkpt lat="43.65248" lon="5.74892">
        <ele>380.39999389648</ele>
        <time>2013-03-02T10:53:38.000Z</time>
      </trkpt>
      <trkpt lat="43.65257" lon="5.74869">
        <ele>383</ele>
        <time>2013-03-02T10:53:44.000Z</time>
      </trkpt>
      <trkpt lat="43.65257" lon="5.74865">
        <ele>383.20001220703</ele>
        <time>2013-03-02T10:53:45.000Z</time>
      </trkpt>
      <trkpt lat="43.65256" lon="5.74862">
        <ele>383.39999389648</ele>
        <time>2013-03-02T10:53:46.000Z</time>
      </trkpt>
      <trkpt lat="43.65245" lon="5.74817">
        <ele>385.79998779297</ele>
        <time>2013-03-02T10:53:58.000Z</time>
      </trkpt>
      <trkpt lat="43.65236" lon="5.74775">
        <ele>389.20001220703</ele>
        <time>2013-03-02T10:54:09.000Z</time>
      </trkpt>
      <trkpt lat="43.65222" lon="5.74742">
        <ele>391.60000610352</ele>
        <time>2013-03-02T10:54:20.000Z</time>
      </trkpt>
      <trkpt lat="43.65199" lon="5.74699">
        <ele>393.20001220703</ele>
        <time>2013-03-02T10:54:34.000Z</time>
      </trkpt>
      <trkpt lat="43.65176" lon="5.7466">
        <ele>395</ele>
        <time>2013-03-02T10:54:46.000Z</time>
      </trkpt>
      <trkpt lat="43.65169" lon="5.74613">
        <ele>395.60000610352</ele>
        <time>2013-03-02T10:54:57.000Z</time>
      </trkpt>
      <trkpt lat="43.65154" lon="5.74565">
        <ele>393.60000610352</ele>
        <time>2013-03-02T10:55:08.000Z</time>
      </trkpt>
      <trkpt lat="43.65154" lon="5.74516">
        <ele>393.20001220703</ele>
        <time>2013-03-02T10:55:19.000Z</time>
      </trkpt>
      <trkpt lat="43.65161" lon="5.74459">
        <ele>393.79998779297</ele>
        <time>2013-03-02T10:55:31.000Z</time>
      </trkpt>
      <trkpt lat="43.65157" lon="5.74418">
        <ele>392.79998779297</ele>
        <time>2013-03-02T10:55:39.000Z</time>
      </trkpt>
      <trkpt lat="43.65146" lon="5.74385">
        <ele>394.20001220703</ele>
        <time>2013-03-02T10:55:48.000Z</time>
      </trkpt>
      <trkpt lat="43.65138" lon="5.74369">
        <ele>394.79998779297</ele>
        <time>2013-03-02T10:55:53.000Z</time>
      </trkpt>
      <trkpt lat="43.6512" lon="5.74332">
        <ele>397.20001220703</ele>
        <time>2013-03-02T10:56:05.000Z</time>
      </trkpt>
      <trkpt lat="43.65103" lon="5.74305">
        <ele>398.20001220703</ele>
        <time>2013-03-02T10:56:15.000Z</time>
      </trkpt>
      <trkpt lat="43.65071" lon="5.74268">
        <ele>400.39999389648</ele>
        <time>2013-03-02T10:56:28.000Z</time>
      </trkpt>
      <trkpt lat="43.65057" lon="5.74257">
        <ele>401</ele>
        <time>2013-03-02T10:56:31.000Z</time>
      </trkpt>
      <trkpt lat="43.65051" lon="5.74256">
        <ele>401</ele>
        <time>2013-03-02T10:56:32.000Z</time>
      </trkpt>
      <trkpt lat="43.65045" lon="5.74255">
        <ele>401</ele>
        <time>2013-03-02T10:56:33.000Z</time>
      </trkpt>
      <trkpt lat="43.65039" lon="5.74256">
        <ele>400.79998779297</ele>
        <time>2013-03-02T10:56:34.000Z</time>
      </trkpt>
      <trkpt lat="43.65033" lon="5.74257">
        <ele>400.79998779297</ele>
        <time>2013-03-02T10:56:35.000Z</time>
      </trkpt>
      <trkpt lat="43.65004" lon="5.7426">
        <ele>400</ele>
        <time>2013-03-02T10:56:43.000Z</time>
      </trkpt>
      <trkpt lat="43.64996" lon="5.74263">
        <ele>399.79998779297</ele>
        <time>2013-03-02T10:56:47.000Z</time>
      </trkpt>
      <trkpt lat="43.64996" lon="5.74261">
        <ele>400</ele>
        <time>2013-03-02T10:56:56.000Z</time>
      </trkpt>
      <trkpt lat="43.64997" lon="5.74261">
        <ele>400</ele>
        <time>2013-03-02T10:57:12.000Z</time>
      </trkpt>
      <trkpt lat="43.64997" lon="5.74261">
        <ele>400</ele>
        <time>2013-03-02T10:57:30.000Z</time>
      </trkpt>
      <trkpt lat="43.64997" lon="5.74262">
        <ele>399.79998779297</ele>
        <time>2013-03-02T10:57:57.000Z</time>
      </trkpt>
      <trkpt lat="43.64997" lon="5.74262">
        <ele>399.79998779297</ele>
        <time>2013-03-02T10:58:17.000Z</time>
      </trkpt>
      <trkpt lat="43.64996" lon="5.74263">
        <ele>399.79998779297</ele>
        <time>2013-03-02T10:58:28.000Z</time>
      </trkpt>
      <trkpt lat="43.64994" lon="5.74263">
        <ele>399.79998779297</ele>
        <time>2013-03-02T10:58:29.000Z</time>
      </trkpt>
      <trkpt lat="43.64993" lon="5.74263">
        <ele>400</ele>
        <time>2013-03-02T10:58:30.000Z</time>
      </trkpt>
      <trkpt lat="43.64991" lon="5.74263">
        <ele>400</ele>
        <time>2013-03-02T10:58:31.000Z</time>
      </trkpt>
      <trkpt lat="43.6499" lon="5.74264">
        <ele>400</ele>
        <time>2013-03-02T10:58:32.000Z</time>
      </trkpt>
      <trkpt lat="43.64988" lon="5.74264">
        <ele>400</ele>
        <time>2013-03-02T10:58:33.000Z</time>
      </trkpt>
      <trkpt lat="43.64985" lon="5.74264">
        <ele>400</ele>
        <time>2013-03-02T10:58:34.000Z</time>
      </trkpt>
      <trkpt lat="43.64983" lon="5.74264">
        <ele>400.20001220703</ele>
        <time>2013-03-02T10:58:35.000Z</time>
      </trkpt>
      <trkpt lat="43.64965" lon="5.74268">
        <ele>400.60000610352</ele>
        <time>2013-03-02T10:58:44.000Z</time>
      </trkpt>
      <trkpt lat="43.64944" lon="5.74272">
        <ele>401</ele>
        <time>2013-03-02T10:58:53.000Z</time>
      </trkpt>
      <trkpt lat="43.64924" lon="5.74274">
        <ele>401.60000610352</ele>
        <time>2013-03-02T10:59:02.000Z</time>
      </trkpt>
      <trkpt lat="43.64882" lon="5.74278">
        <ele>402.20001220703</ele>
        <time>2013-03-02T10:59:15.000Z</time>
      </trkpt>
      <trkpt lat="43.64853" lon="5.74287">
        <ele>402.39999389648</ele>
        <time>2013-03-02T10:59:25.000Z</time>
      </trkpt>
      <trkpt lat="43.64818" lon="5.74289">
        <ele>404.39999389648</ele>
        <time>2013-03-02T10:59:36.000Z</time>
      </trkpt>
      <trkpt lat="43.64773" lon="5.74297">
        <ele>408</ele>
        <time>2013-03-02T10:59:50.000Z</time>
      </trkpt>
      <trkpt lat="43.64743" lon="5.74303">
        <ele>410.20001220703</ele>
        <time>2013-03-02T11:00:00.000Z</time>
      </trkpt>
      <trkpt lat="43.64704" lon="5.74308">
        <ele>412.20001220703</ele>
        <time>2013-03-02T11:00:13.000Z</time>
      </trkpt>
      <trkpt lat="43.64663" lon="5.74312">
        <ele>414.60000610352</ele>
        <time>2013-03-02T11:00:26.000Z</time>
      </trkpt>
      <trkpt lat="43.64633" lon="5.74315">
        <ele>414.79998779297</ele>
        <time>2013-03-02T11:00:36.000Z</time>
      </trkpt>
      <trkpt lat="43.64594" lon="5.74316">
        <ele>414.79998779297</ele>
        <time>2013-03-02T11:00:47.000Z</time>
      </trkpt>
      <trkpt lat="43.64549" lon="5.74318">
        <ele>416.79998779297</ele>
        <time>2013-03-02T11:00:59.000Z</time>
      </trkpt>
      <trkpt lat="43.64516" lon="5.74318">
        <ele>418.79998779297</ele>
        <time>2013-03-02T11:01:08.000Z</time>
      </trkpt>
      <trkpt lat="43.64473" lon="5.74318">
        <ele>420.79998779297</ele>
        <time>2013-03-02T11:01:20.000Z</time>
      </trkpt>
      <trkpt lat="43.64426" lon="5.7432">
        <ele>422.39999389648</ele>
        <time>2013-03-02T11:01:31.000Z</time>
      </trkpt>
      <trkpt lat="43.6437" lon="5.74324">
        <ele>423.60000610352</ele>
        <time>2013-03-02T11:01:44.000Z</time>
      </trkpt>
      <trkpt lat="43.64345" lon="5.74326">
        <ele>423.79998779297</ele>
        <time>2013-03-02T11:01:49.000Z</time>
      </trkpt>
      <trkpt lat="43.64319" lon="5.74323">
        <ele>424.39999389648</ele>
        <time>2013-03-02T11:01:55.000Z</time>
      </trkpt>
      <trkpt lat="43.64315" lon="5.74323">
        <ele>424.39999389648</ele>
        <time>2013-03-02T11:01:56.000Z</time>
      </trkpt>
      <trkpt lat="43.64311" lon="5.74322">
        <ele>424.39999389648</ele>
        <time>2013-03-02T11:01:57.000Z</time>
      </trkpt>
      <trkpt lat="43.64306" lon="5.74322">
        <ele>424.39999389648</ele>
        <time>2013-03-02T11:01:58.000Z</time>
      </trkpt>
      <trkpt lat="43.64301" lon="5.74322">
        <ele>424.60000610352</ele>
        <time>2013-03-02T11:01:59.000Z</time>
      </trkpt>
      <trkpt lat="43.64254" lon="5.74326">
        <ele>425</ele>
        <time>2013-03-02T11:02:09.000Z</time>
      </trkpt>
      <trkpt lat="43.64193" lon="5.74327">
        <ele>422.39999389648</ele>
        <time>2013-03-02T11:02:20.000Z</time>
      </trkpt>
      <trkpt lat="43.64135" lon="5.74331">
        <ele>418.79998779297</ele>
        <time>2013-03-02T11:02:30.000Z</time>
      </trkpt>
      <trkpt lat="43.64093" lon="5.74333">
        <ele>415.60000610352</ele>
        <time>2013-03-02T11:02:36.000Z</time>
      </trkpt>
      <trkpt lat="43.64071" lon="5.74334">
        <ele>415</ele>
        <time>2013-03-02T11:02:39.000Z</time>
      </trkpt>
      <trkpt lat="43.63996" lon="5.74338">
        <ele>416</ele>
        <time>2013-03-02T11:02:51.000Z</time>
      </trkpt>
      <trkpt lat="43.63942" lon="5.74343">
        <ele>419.79998779297</ele>
        <time>2013-03-02T11:03:02.000Z</time>
      </trkpt>
      <trkpt lat="43.63897" lon="5.74346">
        <ele>420</ele>
        <time>2013-03-02T11:03:12.000Z</time>
      </trkpt>
      <trkpt lat="43.63888" lon="5.74346">
        <ele>419.39999389648</ele>
        <time>2013-03-02T11:03:14.000Z</time>
      </trkpt>
      <trkpt lat="43.63884" lon="5.74347">
        <ele>419</ele>
        <time>2013-03-02T11:03:15.000Z</time>
      </trkpt>
      <trkpt lat="43.63879" lon="5.74347">
        <ele>418.60000610352</ele>
        <time>2013-03-02T11:03:16.000Z</time>
      </trkpt>
      <trkpt lat="43.63874" lon="5.74348">
        <ele>418.20001220703</ele>
        <time>2013-03-02T11:03:17.000Z</time>
      </trkpt>
      <trkpt lat="43.63868" lon="5.74348">
        <ele>418</ele>
        <time>2013-03-02T11:03:18.000Z</time>
      </trkpt>
      <trkpt lat="43.63831" lon="5.74343">
        <ele>414.79998779297</ele>
        <time>2013-03-02T11:03:26.000Z</time>
      </trkpt>
      <trkpt lat="43.63827" lon="5.7433">
        <ele>413</ele>
        <time>2013-03-02T11:03:34.000Z</time>
      </trkpt>
      <trkpt lat="43.63828" lon="5.74327">
        <ele>413.20001220703</ele>
        <time>2013-03-02T11:03:36.000Z</time>
      </trkpt>
      <trkpt lat="43.6383" lon="5.7432">
        <ele>413.39999389648</ele>
        <time>2013-03-02T11:03:41.000Z</time>
      </trkpt>
      <trkpt lat="43.6383" lon="5.7432">
        <ele>413.39999389648</ele>
        <time>2013-03-02T11:03:51.000Z</time>
      </trkpt>
      <trkpt lat="43.63831" lon="5.74321">
        <ele>413.79998779297</ele>
        <time>2013-03-02T11:04:02.000Z</time>
      </trkpt>
      <trkpt lat="43.63832" lon="5.7432">
        <ele>414</ele>
        <time>2013-03-02T11:04:22.000Z</time>
      </trkpt>
      <trkpt lat="43.63832" lon="5.74318">
        <ele>413.79998779297</ele>
        <time>2013-03-02T11:04:25.000Z</time>
      </trkpt>
      <trkpt lat="43.63832" lon="5.74315">
        <ele>413.60000610352</ele>
        <time>2013-03-02T11:04:26.000Z</time>
      </trkpt>
      <trkpt lat="43.63832" lon="5.74311">
        <ele>413.39999389648</ele>
        <time>2013-03-02T11:04:27.000Z</time>
      </trkpt>
      <trkpt lat="43.63832" lon="5.74306">
        <ele>413.20001220703</ele>
        <time>2013-03-02T11:04:28.000Z</time>
      </trkpt>
      <trkpt lat="43.63832" lon="5.74301">
        <ele>412.79998779297</ele>
        <time>2013-03-02T11:04:29.000Z</time>
      </trkpt>
      <trkpt lat="43.63831" lon="5.74295">
        <ele>412.60000610352</ele>
        <time>2013-03-02T11:04:30.000Z</time>
      </trkpt>
      <trkpt lat="43.63831" lon="5.74273">
        <ele>411.39999389648</ele>
        <time>2013-03-02T11:04:33.000Z</time>
      </trkpt>
      <trkpt lat="43.6383" lon="5.74241">
        <ele>409.79998779297</ele>
        <time>2013-03-02T11:04:37.000Z</time>
      </trkpt>
      <trkpt lat="43.63827" lon="5.74196">
        <ele>408.39999389648</ele>
        <time>2013-03-02T11:04:42.000Z</time>
      </trkpt>
      <trkpt lat="43.63826" lon="5.74186">
        <ele>408.20001220703</ele>
        <time>2013-03-02T11:04:43.000Z</time>
      </trkpt>
      <trkpt lat="43.63826" lon="5.74177">
        <ele>408</ele>
        <time>2013-03-02T11:04:44.000Z</time>
      </trkpt>
      <trkpt lat="43.6382" lon="5.74144">
        <ele>406</ele>
        <time>2013-03-02T11:04:49.000Z</time>
      </trkpt>
      <trkpt lat="43.63817" lon="5.74144">
        <ele>405</ele>
        <time>2013-03-02T11:04:50.000Z</time>
      </trkpt>
      <trkpt lat="43.63814" lon="5.74148">
        <ele>404</ele>
        <time>2013-03-02T11:04:51.000Z</time>
      </trkpt>
      <trkpt lat="43.63811" lon="5.74155">
        <ele>403.20001220703</ele>
        <time>2013-03-02T11:04:52.000Z</time>
      </trkpt>
      <trkpt lat="43.63809" lon="5.74164">
        <ele>403</ele>
        <time>2013-03-02T11:04:53.000Z</time>
      </trkpt>
      <trkpt lat="43.63808" lon="5.74174">
        <ele>402.79998779297</ele>
        <time>2013-03-02T11:04:54.000Z</time>
      </trkpt>
      <trkpt lat="43.63806" lon="5.74184">
        <ele>402.39999389648</ele>
        <time>2013-03-02T11:04:55.000Z</time>
      </trkpt>
      <trkpt lat="43.63795" lon="5.74234">
        <ele>400.20001220703</ele>
        <time>2013-03-02T11:04:59.000Z</time>
      </trkpt>
      <trkpt lat="43.63792" lon="5.74247">
        <ele>399.39999389648</ele>
        <time>2013-03-02T11:05:00.000Z</time>
      </trkpt>
      <trkpt lat="43.63787" lon="5.74259">
        <ele>398.60000610352</ele>
        <time>2013-03-02T11:05:01.000Z</time>
      </trkpt>
      <trkpt lat="43.63781" lon="5.74271">
        <ele>397.20001220703</ele>
        <time>2013-03-02T11:05:02.000Z</time>
      </trkpt>
      <trkpt lat="43.63775" lon="5.74282">
        <ele>396</ele>
        <time>2013-03-02T11:05:03.000Z</time>
      </trkpt>
      <trkpt lat="43.6377" lon="5.74294">
        <ele>395.20001220703</ele>
        <time>2013-03-02T11:05:04.000Z</time>
      </trkpt>
      <trkpt lat="43.63766" lon="5.74307">
        <ele>394.60000610352</ele>
        <time>2013-03-02T11:05:05.000Z</time>
      </trkpt>
      <trkpt lat="43.63762" lon="5.7432">
        <ele>394</ele>
        <time>2013-03-02T11:05:06.000Z</time>
      </trkpt>
      <trkpt lat="43.63758" lon="5.74332">
        <ele>393.20001220703</ele>
        <time>2013-03-02T11:05:07.000Z</time>
      </trkpt>
      <trkpt lat="43.63753" lon="5.74343">
        <ele>392.79998779297</ele>
        <time>2013-03-02T11:05:08.000Z</time>
      </trkpt>
      <trkpt lat="43.63746" lon="5.74353">
        <ele>392.39999389648</ele>
        <time>2013-03-02T11:05:09.000Z</time>
      </trkpt>
      <trkpt lat="43.63721" lon="5.74383">
        <ele>389.79998779297</ele>
        <time>2013-03-02T11:05:12.000Z</time>
      </trkpt>
      <trkpt lat="43.63712" lon="5.74393">
        <ele>388.20001220703</ele>
        <time>2013-03-02T11:05:13.000Z</time>
      </trkpt>
      <trkpt lat="43.63692" lon="5.74412">
        <ele>384.39999389648</ele>
        <time>2013-03-02T11:05:15.000Z</time>
      </trkpt>
      <trkpt lat="43.63676" lon="5.74429">
        <ele>381.79998779297</ele>
        <time>2013-03-02T11:05:17.000Z</time>
      </trkpt>
      <trkpt lat="43.63667" lon="5.74435">
        <ele>380.20001220703</ele>
        <time>2013-03-02T11:05:18.000Z</time>
      </trkpt>
      <trkpt lat="43.63657" lon="5.74439">
        <ele>379.60000610352</ele>
        <time>2013-03-02T11:05:19.000Z</time>
      </trkpt>
      <trkpt lat="43.63647" lon="5.7444">
        <ele>378.39999389648</ele>
        <time>2013-03-02T11:05:20.000Z</time>
      </trkpt>
      <trkpt lat="43.63637" lon="5.74438">
        <ele>377</ele>
        <time>2013-03-02T11:05:21.000Z</time>
      </trkpt>
      <trkpt lat="43.63626" lon="5.74435">
        <ele>375.60000610352</ele>
        <time>2013-03-02T11:05:22.000Z</time>
      </trkpt>
      <trkpt lat="43.63582" lon="5.74423">
        <ele>371</ele>
        <time>2013-03-02T11:05:26.000Z</time>
      </trkpt>
      <trkpt lat="43.63572" lon="5.74421">
        <ele>371.20001220703</ele>
        <time>2013-03-02T11:05:27.000Z</time>
      </trkpt>
      <trkpt lat="43.6353" lon="5.74414">
        <ele>372.20001220703</ele>
        <time>2013-03-02T11:05:32.000Z</time>
      </trkpt>
      <trkpt lat="43.63514" lon="5.74412">
        <ele>372.60000610352</ele>
        <time>2013-03-02T11:05:35.000Z</time>
      </trkpt>
      <trkpt lat="43.63496" lon="5.74408">
        <ele>373.39999389648</ele>
        <time>2013-03-02T11:05:39.000Z</time>
      </trkpt>
      <trkpt lat="43.63492" lon="5.74406">
        <ele>373.60000610352</ele>
        <time>2013-03-02T11:05:40.000Z</time>
      </trkpt>
      <trkpt lat="43.6345" lon="5.74385">
        <ele>377.20001220703</ele>
        <time>2013-03-02T11:05:52.000Z</time>
      </trkpt>
      <trkpt lat="43.63419" lon="5.74399">
        <ele>378.60000610352</ele>
        <time>2013-03-02T11:06:01.000Z</time>
      </trkpt>
      <trkpt lat="43.63383" lon="5.74422">
        <ele>380.39999389648</ele>
        <time>2013-03-02T11:06:12.000Z</time>
      </trkpt>
      <trkpt lat="43.63343" lon="5.74451">
        <ele>384.79998779297</ele>
        <time>2013-03-02T11:06:25.000Z</time>
      </trkpt>
      <trkpt lat="43.63308" lon="5.74477">
        <ele>390.39999389648</ele>
        <time>2013-03-02T11:06:39.000Z</time>
      </trkpt>
      <trkpt lat="43.63298" lon="5.74486">
        <ele>391.79998779297</ele>
        <time>2013-03-02T11:06:43.000Z</time>
      </trkpt>
      <trkpt lat="43.63271" lon="5.74505">
        <ele>395.60000610352</ele>
        <time>2013-03-02T11:06:55.000Z</time>
      </trkpt>
      <trkpt lat="43.63258" lon="5.74538">
        <ele>397.60000610352</ele>
        <time>2013-03-02T11:07:06.000Z</time>
      </trkpt>
      <trkpt lat="43.63252" lon="5.74549">
        <ele>397.79998779297</ele>
        <time>2013-03-02T11:07:10.000Z</time>
      </trkpt>
      <trkpt lat="43.6325" lon="5.74551">
        <ele>398</ele>
        <time>2013-03-02T11:07:11.000Z</time>
      </trkpt>
      <trkpt lat="43.63223" lon="5.7456">
        <ele>400</ele>
        <time>2013-03-02T11:07:22.000Z</time>
      </trkpt>
      <trkpt lat="43.63196" lon="5.74573">
        <ele>401</ele>
        <time>2013-03-02T11:07:34.000Z</time>
      </trkpt>
      <trkpt lat="43.63173" lon="5.74584">
        <ele>400.60000610352</ele>
        <time>2013-03-02T11:07:45.000Z</time>
      </trkpt>
      <trkpt lat="43.63153" lon="5.74592">
        <ele>401.79998779297</ele>
        <time>2013-03-02T11:07:55.000Z</time>
      </trkpt>
      <trkpt lat="43.63151" lon="5.74592">
        <ele>402</ele>
        <time>2013-03-02T11:07:56.000Z</time>
      </trkpt>
      <trkpt lat="43.63148" lon="5.74593">
        <ele>402.20001220703</ele>
        <time>2013-03-02T11:07:57.000Z</time>
      </trkpt>
      <trkpt lat="43.63121" lon="5.74603">
        <ele>404.39999389648</ele>
        <time>2013-03-02T11:08:09.000Z</time>
      </trkpt>
      <trkpt lat="43.63102" lon="5.74607">
        <ele>406</ele>
        <time>2013-03-02T11:08:19.000Z</time>
      </trkpt>
      <trkpt lat="43.63088" lon="5.7459">
        <ele>407.39999389648</ele>
        <time>2013-03-02T11:08:27.000Z</time>
      </trkpt>
      <trkpt lat="43.63086" lon="5.74588">
        <ele>407.60000610352</ele>
        <time>2013-03-02T11:08:28.000Z</time>
      </trkpt>
      <trkpt lat="43.63082" lon="5.74587">
        <ele>407.79998779297</ele>
        <time>2013-03-02T11:08:30.000Z</time>
      </trkpt>
      <trkpt lat="43.63079" lon="5.74588">
        <ele>407.79998779297</ele>
        <time>2013-03-02T11:08:31.000Z</time>
      </trkpt>
      <trkpt lat="43.63077" lon="5.74589">
        <ele>408</ele>
        <time>2013-03-02T11:08:32.000Z</time>
      </trkpt>
      <trkpt lat="43.63075" lon="5.7459">
        <ele>408</ele>
        <time>2013-03-02T11:08:33.000Z</time>
      </trkpt>
      <trkpt lat="43.63073" lon="5.74591">
        <ele>408</ele>
        <time>2013-03-02T11:08:34.000Z</time>
      </trkpt>
      <trkpt lat="43.6307" lon="5.74592">
        <ele>408</ele>
        <time>2013-03-02T11:08:35.000Z</time>
      </trkpt>
      <trkpt lat="43.63068" lon="5.74593">
        <ele>408</ele>
        <time>2013-03-02T11:08:36.000Z</time>
      </trkpt>
      <trkpt lat="43.63035" lon="5.746">
        <ele>409.39999389648</ele>
        <time>2013-03-02T11:08:48.000Z</time>
      </trkpt>
      <trkpt lat="43.62987" lon="5.74598">
        <ele>411</ele>
        <time>2013-03-02T11:09:02.000Z</time>
      </trkpt>
      <trkpt lat="43.62951" lon="5.74585">
        <ele>411</ele>
        <time>2013-03-02T11:09:12.000Z</time>
      </trkpt>
      <trkpt lat="43.62905" lon="5.74566">
        <ele>415</ele>
        <time>2013-03-02T11:09:25.000Z</time>
      </trkpt>
      <trkpt lat="43.62888" lon="5.74561">
        <ele>415.60000610352</ele>
        <time>2013-03-02T11:09:32.000Z</time>
      </trkpt>
      <trkpt lat="43.62887" lon="5.74561">
        <ele>415.60000610352</ele>
        <time>2013-03-02T11:09:33.000Z</time>
      </trkpt>
      <trkpt lat="43.62886" lon="5.74561">
        <ele>415.60000610352</ele>
        <time>2013-03-02T11:09:34.000Z</time>
      </trkpt>
      <trkpt lat="43.62884" lon="5.7456">
        <ele>415.60000610352</ele>
        <time>2013-03-02T11:09:47.000Z</time>
      </trkpt>
      <trkpt lat="43.62884" lon="5.7456">
        <ele>415.60000610352</ele>
        <time>2013-03-02T11:10:01.000Z</time>
      </trkpt>
      <trkpt lat="43.6288" lon="5.74557">
        <ele>415.79998779297</ele>
        <time>2013-03-02T11:10:16.000Z</time>
      </trkpt>
      <trkpt lat="43.6288" lon="5.74557">
        <ele>415.79998779297</ele>
        <time>2013-03-02T11:10:33.000Z</time>
      </trkpt>
      <trkpt lat="43.62881" lon="5.74557">
        <ele>415.79998779297</ele>
        <time>2013-03-02T11:11:00.000Z</time>
      </trkpt>
      <trkpt lat="43.62883" lon="5.74555">
        <ele>415.79998779297</ele>
        <time>2013-03-02T11:11:28.000Z</time>
      </trkpt>
      <trkpt lat="43.62876" lon="5.74555">
        <ele>415.79998779297</ele>
        <time>2013-03-02T11:11:34.000Z</time>
      </trkpt>
      <trkpt lat="43.62875" lon="5.74556">
        <ele>415.79998779297</ele>
        <time>2013-03-02T11:11:35.000Z</time>
      </trkpt>
      <trkpt lat="43.62873" lon="5.74555">
        <ele>415.79998779297</ele>
        <time>2013-03-02T11:11:36.000Z</time>
      </trkpt>
      <trkpt lat="43.6287" lon="5.74555">
        <ele>415.79998779297</ele>
        <time>2013-03-02T11:11:37.000Z</time>
      </trkpt>
      <trkpt lat="43.62867" lon="5.74555">
        <ele>415.60000610352</ele>
        <time>2013-03-02T11:11:38.000Z</time>
      </trkpt>
      <trkpt lat="43.6284" lon="5.74546">
        <ele>415</ele>
        <time>2013-03-02T11:11:46.000Z</time>
      </trkpt>
      <trkpt lat="43.62831" lon="5.74542">
        <ele>414.20001220703</ele>
        <time>2013-03-02T11:11:48.000Z</time>
      </trkpt>
      <trkpt lat="43.62826" lon="5.74541">
        <ele>413.60000610352</ele>
        <time>2013-03-02T11:11:49.000Z</time>
      </trkpt>
      <trkpt lat="43.6278" lon="5.74537">
        <ele>408</ele>
        <time>2013-03-02T11:11:57.000Z</time>
      </trkpt>
      <trkpt lat="43.62774" lon="5.74538">
        <ele>407.39999389648</ele>
        <time>2013-03-02T11:11:58.000Z</time>
      </trkpt>
      <trkpt lat="43.62738" lon="5.74541">
        <ele>405</ele>
        <time>2013-03-02T11:12:03.000Z</time>
      </trkpt>
      <trkpt lat="43.6273" lon="5.7454">
        <ele>404.79998779297</ele>
        <time>2013-03-02T11:12:04.000Z</time>
      </trkpt>
      <trkpt lat="43.62684" lon="5.74539">
        <ele>403.79998779297</ele>
        <time>2013-03-02T11:12:10.000Z</time>
      </trkpt>
      <trkpt lat="43.62611" lon="5.74523">
        <ele>400</ele>
        <time>2013-03-02T11:12:20.000Z</time>
      </trkpt>
      <trkpt lat="43.62604" lon="5.74522">
        <ele>399.60000610352</ele>
        <time>2013-03-02T11:12:21.000Z</time>
      </trkpt>
      <trkpt lat="43.62539" lon="5.74526">
        <ele>399.60000610352</ele>
        <time>2013-03-02T11:12:31.000Z</time>
      </trkpt>
      <trkpt lat="43.62498" lon="5.74528">
        <ele>399.79998779297</ele>
        <time>2013-03-02T11:12:38.000Z</time>
      </trkpt>
      <trkpt lat="43.62492" lon="5.74527">
        <ele>399.60000610352</ele>
        <time>2013-03-02T11:12:39.000Z</time>
      </trkpt>
      <trkpt lat="43.62487" lon="5.74525">
        <ele>399.39999389648</ele>
        <time>2013-03-02T11:12:40.000Z</time>
      </trkpt>
      <trkpt lat="43.62435" lon="5.74513">
        <ele>398.39999389648</ele>
        <time>2013-03-02T11:12:49.000Z</time>
      </trkpt>
      <trkpt lat="43.62429" lon="5.74512">
        <ele>398.20001220703</ele>
        <time>2013-03-02T11:12:50.000Z</time>
      </trkpt>
      <trkpt lat="43.62418" lon="5.74507">
        <ele>397.60000610352</ele>
        <time>2013-03-02T11:12:52.000Z</time>
      </trkpt>
      <trkpt lat="43.62413" lon="5.74504">
        <ele>397</ele>
        <time>2013-03-02T11:12:53.000Z</time>
      </trkpt>
      <trkpt lat="43.62396" lon="5.74489">
        <ele>394.79998779297</ele>
        <time>2013-03-02T11:12:56.000Z</time>
      </trkpt>
      <trkpt lat="43.62373" lon="5.7446">
        <ele>391</ele>
        <time>2013-03-02T11:13:00.000Z</time>
      </trkpt>
      <trkpt lat="43.62365" lon="5.74455">
        <ele>390.39999389648</ele>
        <time>2013-03-02T11:13:01.000Z</time>
      </trkpt>
      <trkpt lat="43.62357" lon="5.74452">
        <ele>390</ele>
        <time>2013-03-02T11:13:02.000Z</time>
      </trkpt>
      <trkpt lat="43.62348" lon="5.7445">
        <ele>390</ele>
        <time>2013-03-02T11:13:03.000Z</time>
      </trkpt>
      <trkpt lat="43.62337" lon="5.7445">
        <ele>390</ele>
        <time>2013-03-02T11:13:04.000Z</time>
      </trkpt>
      <trkpt lat="43.62327" lon="5.74449">
        <ele>389.39999389648</ele>
        <time>2013-03-02T11:13:05.000Z</time>
      </trkpt>
      <trkpt lat="43.6231" lon="5.74447">
        <ele>387.20001220703</ele>
        <time>2013-03-02T11:13:07.000Z</time>
      </trkpt>
      <trkpt lat="43.62296" lon="5.74445">
        <ele>385.39999389648</ele>
        <time>2013-03-02T11:13:09.000Z</time>
      </trkpt>
      <trkpt lat="43.62288" lon="5.74442">
        <ele>384.20001220703</ele>
        <time>2013-03-02T11:13:11.000Z</time>
      </trkpt>
      <trkpt lat="43.62288" lon="5.74439">
        <ele>383.60000610352</ele>
        <time>2013-03-02T11:13:12.000Z</time>
      </trkpt>
      <trkpt lat="43.62288" lon="5.74437">
        <ele>383.20001220703</ele>
        <time>2013-03-02T11:13:13.000Z</time>
      </trkpt>
      <trkpt lat="43.62288" lon="5.74438">
        <ele>383.39999389648</ele>
        <time>2013-03-02T11:13:20.000Z</time>
      </trkpt>
      <trkpt lat="43.62286" lon="5.74439">
        <ele>383.39999389648</ele>
        <time>2013-03-02T11:13:22.000Z</time>
      </trkpt>
      <trkpt lat="43.62285" lon="5.74441">
        <ele>383.60000610352</ele>
        <time>2013-03-02T11:13:23.000Z</time>
      </trkpt>
      <trkpt lat="43.62283" lon="5.74441">
        <ele>383.39999389648</ele>
        <time>2013-03-02T11:13:24.000Z</time>
      </trkpt>
      <trkpt lat="43.6228" lon="5.74441">
        <ele>383.20001220703</ele>
        <time>2013-03-02T11:13:25.000Z</time>
      </trkpt>
      <trkpt lat="43.62277" lon="5.74441">
        <ele>382.79998779297</ele>
        <time>2013-03-02T11:13:26.000Z</time>
      </trkpt>
      <trkpt lat="43.62231" lon="5.74446">
        <ele>380.39999389648</ele>
        <time>2013-03-02T11:13:34.000Z</time>
      </trkpt>
      <trkpt lat="43.62166" lon="5.74443">
        <ele>378.39999389648</ele>
        <time>2013-03-02T11:13:44.000Z</time>
      </trkpt>
      <trkpt lat="43.62126" lon="5.74426">
        <ele>375.79998779297</ele>
        <time>2013-03-02T11:13:51.000Z</time>
      </trkpt>
      <trkpt lat="43.6212" lon="5.74426">
        <ele>375.79998779297</ele>
        <time>2013-03-02T11:13:52.000Z</time>
      </trkpt>
      <trkpt lat="43.62113" lon="5.74427">
        <ele>376</ele>
        <time>2013-03-02T11:13:53.000Z</time>
      </trkpt>
      <trkpt lat="43.62107" lon="5.7443">
        <ele>376.39999389648</ele>
        <time>2013-03-02T11:13:54.000Z</time>
      </trkpt>
      <trkpt lat="43.62103" lon="5.74432">
        <ele>376.79998779297</ele>
        <time>2013-03-02T11:13:55.000Z</time>
      </trkpt>
      <trkpt lat="43.62099" lon="5.74432">
        <ele>376.79998779297</ele>
        <time>2013-03-02T11:13:56.000Z</time>
      </trkpt>
      <trkpt lat="43.62098" lon="5.7443">
        <ele>376.60000610352</ele>
        <time>2013-03-02T11:13:57.000Z</time>
      </trkpt>
      <trkpt lat="43.62099" lon="5.74427">
        <ele>376.20001220703</ele>
        <time>2013-03-02T11:13:58.000Z</time>
      </trkpt>
      <trkpt lat="43.62102" lon="5.74424">
        <ele>375.79998779297</ele>
        <time>2013-03-02T11:13:59.000Z</time>
      </trkpt>
      <trkpt lat="43.62106" lon="5.74421">
        <ele>375.20001220703</ele>
        <time>2013-03-02T11:14:00.000Z</time>
      </trkpt>
      <trkpt lat="43.62111" lon="5.74416">
        <ele>374.60000610352</ele>
        <time>2013-03-02T11:14:01.000Z</time>
      </trkpt>
      <trkpt lat="43.62115" lon="5.74411">
        <ele>374</ele>
        <time>2013-03-02T11:14:02.000Z</time>
      </trkpt>
      <trkpt lat="43.6212" lon="5.74405">
        <ele>373.20001220703</ele>
        <time>2013-03-02T11:14:03.000Z</time>
      </trkpt>
      <trkpt lat="43.62151" lon="5.74361">
        <ele>369</ele>
        <time>2013-03-02T11:14:09.000Z</time>
      </trkpt>
      <trkpt lat="43.62155" lon="5.74351">
        <ele>368.20001220703</ele>
        <time>2013-03-02T11:14:10.000Z</time>
      </trkpt>
      <trkpt lat="43.62158" lon="5.74339">
        <ele>367.20001220703</ele>
        <time>2013-03-02T11:14:11.000Z</time>
      </trkpt>
      <trkpt lat="43.62168" lon="5.74286">
        <ele>364</ele>
        <time>2013-03-02T11:14:15.000Z</time>
      </trkpt>
      <trkpt lat="43.62168" lon="5.74272">
        <ele>363.20001220703</ele>
        <time>2013-03-02T11:14:16.000Z</time>
      </trkpt>
      <trkpt lat="43.62166" lon="5.74215">
        <ele>360.60000610352</ele>
        <time>2013-03-02T11:14:20.000Z</time>
      </trkpt>
      <trkpt lat="43.62173" lon="5.74152">
        <ele>359</ele>
        <time>2013-03-02T11:14:25.000Z</time>
      </trkpt>
      <trkpt lat="43.62176" lon="5.74141">
        <ele>359.20001220703</ele>
        <time>2013-03-02T11:14:26.000Z</time>
      </trkpt>
      <trkpt lat="43.62197" lon="5.74062">
        <ele>361.20001220703</ele>
        <time>2013-03-02T11:14:34.000Z</time>
      </trkpt>
      <trkpt lat="43.62203" lon="5.74031">
        <ele>362.60000610352</ele>
        <time>2013-03-02T11:14:37.000Z</time>
      </trkpt>
      <trkpt lat="43.62213" lon="5.73963">
        <ele>365.60000610352</ele>
        <time>2013-03-02T11:14:46.000Z</time>
      </trkpt>
      <trkpt lat="43.62214" lon="5.73951">
        <ele>366</ele>
        <time>2013-03-02T11:14:48.000Z</time>
      </trkpt>
      <trkpt lat="43.62215" lon="5.73945">
        <ele>366.39999389648</ele>
        <time>2013-03-02T11:14:49.000Z</time>
      </trkpt>
      <trkpt lat="43.6222" lon="5.73921">
        <ele>367.60000610352</ele>
        <time>2013-03-02T11:14:53.000Z</time>
      </trkpt>
      <trkpt lat="43.62222" lon="5.73916">
        <ele>368</ele>
        <time>2013-03-02T11:14:54.000Z</time>
      </trkpt>
      <trkpt lat="43.62224" lon="5.7391">
        <ele>368.39999389648</ele>
        <time>2013-03-02T11:14:55.000Z</time>
      </trkpt>
      <trkpt lat="43.6224" lon="5.7385">
        <ele>371.79998779297</ele>
        <time>2013-03-02T11:15:07.000Z</time>
      </trkpt>
      <trkpt lat="43.62249" lon="5.73807">
        <ele>373.39999389648</ele>
        <time>2013-03-02T11:15:18.000Z</time>
      </trkpt>
      <trkpt lat="43.62253" lon="5.73775">
        <ele>374.60000610352</ele>
        <time>2013-03-02T11:15:28.000Z</time>
      </trkpt>
      <trkpt lat="43.62262" lon="5.7375">
        <ele>376</ele>
        <time>2013-03-02T11:15:38.000Z</time>
      </trkpt>
      <trkpt lat="43.62264" lon="5.73739">
        <ele>376.60000610352</ele>
        <time>2013-03-02T11:15:42.000Z</time>
      </trkpt>
      <trkpt lat="43.62264" lon="5.73736">
        <ele>376.60000610352</ele>
        <time>2013-03-02T11:15:43.000Z</time>
      </trkpt>
      <trkpt lat="43.62265" lon="5.73734">
        <ele>376.79998779297</ele>
        <time>2013-03-02T11:15:44.000Z</time>
      </trkpt>
      <trkpt lat="43.62265" lon="5.73732">
        <ele>376.79998779297</ele>
        <time>2013-03-02T11:15:45.000Z</time>
      </trkpt>
      <trkpt lat="43.62266" lon="5.7373">
        <ele>377</ele>
        <time>2013-03-02T11:15:46.000Z</time>
      </trkpt>
      <trkpt lat="43.62267" lon="5.73727">
        <ele>377</ele>
        <time>2013-03-02T11:15:47.000Z</time>
      </trkpt>
      <trkpt lat="43.62267" lon="5.73724">
        <ele>377.20001220703</ele>
        <time>2013-03-02T11:15:48.000Z</time>
      </trkpt>
      <trkpt lat="43.62268" lon="5.73721">
        <ele>377.39999389648</ele>
        <time>2013-03-02T11:15:49.000Z</time>
      </trkpt>
      <trkpt lat="43.62269" lon="5.73719">
        <ele>377.39999389648</ele>
        <time>2013-03-02T11:15:50.000Z</time>
      </trkpt>
      <trkpt lat="43.6228" lon="5.7369">
        <ele>379.20001220703</ele>
        <time>2013-03-02T11:16:02.000Z</time>
      </trkpt>
      <trkpt lat="43.62287" lon="5.73657">
        <ele>380.39999389648</ele>
        <time>2013-03-02T11:16:13.000Z</time>
      </trkpt>
      <trkpt lat="43.62294" lon="5.73633">
        <ele>381</ele>
        <time>2013-03-02T11:16:23.000Z</time>
      </trkpt>
      <trkpt lat="43.623" lon="5.73616">
        <ele>381.39999389648</ele>
        <time>2013-03-02T11:16:35.000Z</time>
      </trkpt>
      <trkpt lat="43.62301" lon="5.73611">
        <ele>381.60000610352</ele>
        <time>2013-03-02T11:16:44.000Z</time>
      </trkpt>
      <trkpt lat="43.62307" lon="5.73595">
        <ele>382</ele>
        <time>2013-03-02T11:16:54.000Z</time>
      </trkpt>
      <trkpt lat="43.62317" lon="5.73545">
        <ele>380.79998779297</ele>
        <time>2013-03-02T11:17:03.000Z</time>
      </trkpt>
      <trkpt lat="43.62318" lon="5.73536">
        <ele>380.39999389648</ele>
        <time>2013-03-02T11:17:04.000Z</time>
      </trkpt>
      <trkpt lat="43.62321" lon="5.73527">
        <ele>380.20001220703</ele>
        <time>2013-03-02T11:17:05.000Z</time>
      </trkpt>
      <trkpt lat="43.62332" lon="5.73496">
        <ele>379.79998779297</ele>
        <time>2013-03-02T11:17:09.000Z</time>
      </trkpt>
      <trkpt lat="43.62333" lon="5.73489">
        <ele>379.79998779297</ele>
        <time>2013-03-02T11:17:10.000Z</time>
      </trkpt>
      <trkpt lat="43.62333" lon="5.73482">
        <ele>380</ele>
        <time>2013-03-02T11:17:11.000Z</time>
      </trkpt>
      <trkpt lat="43.62333" lon="5.73475">
        <ele>379.79998779297</ele>
        <time>2013-03-02T11:17:12.000Z</time>
      </trkpt>
      <trkpt lat="43.62333" lon="5.7347">
        <ele>379.79998779297</ele>
        <time>2013-03-02T11:17:13.000Z</time>
      </trkpt>
      <trkpt lat="43.62333" lon="5.73465">
        <ele>379.79998779297</ele>
        <time>2013-03-02T11:17:14.000Z</time>
      </trkpt>
      <trkpt lat="43.62334" lon="5.73406">
        <ele>380.39999389648</ele>
        <time>2013-03-02T11:17:24.000Z</time>
      </trkpt>
      <trkpt lat="43.62331" lon="5.73376">
        <ele>381.20001220703</ele>
        <time>2013-03-02T11:17:29.000Z</time>
      </trkpt>
      <trkpt lat="43.62329" lon="5.73353">
        <ele>381.79998779297</ele>
        <time>2013-03-02T11:17:33.000Z</time>
      </trkpt>
      <trkpt lat="43.62325" lon="5.73307">
        <ele>382.20001220703</ele>
        <time>2013-03-02T11:17:41.000Z</time>
      </trkpt>
      <trkpt lat="43.62321" lon="5.73296">
        <ele>381.79998779297</ele>
        <time>2013-03-02T11:17:43.000Z</time>
      </trkpt>
      <trkpt lat="43.62313" lon="5.73268">
        <ele>380.79998779297</ele>
        <time>2013-03-02T11:17:48.000Z</time>
      </trkpt>
      <trkpt lat="43.62312" lon="5.73262">
        <ele>380.79998779297</ele>
        <time>2013-03-02T11:17:49.000Z</time>
      </trkpt>
      <trkpt lat="43.62311" lon="5.73256">
        <ele>380.60000610352</ele>
        <time>2013-03-02T11:17:50.000Z</time>
      </trkpt>
      <trkpt lat="43.62311" lon="5.73239">
        <ele>380.39999389648</ele>
        <time>2013-03-02T11:17:53.000Z</time>
      </trkpt>
      <trkpt lat="43.62311" lon="5.73233">
        <ele>380.20001220703</ele>
        <time>2013-03-02T11:17:54.000Z</time>
      </trkpt>
      <trkpt lat="43.62313" lon="5.73227">
        <ele>380.39999389648</ele>
        <time>2013-03-02T11:17:55.000Z</time>
      </trkpt>
      <trkpt lat="43.62321" lon="5.73208">
        <ele>381</ele>
        <time>2013-03-02T11:17:58.000Z</time>
      </trkpt>
      <trkpt lat="43.62323" lon="5.73202">
        <ele>381.20001220703</ele>
        <time>2013-03-02T11:17:59.000Z</time>
      </trkpt>
      <trkpt lat="43.62325" lon="5.73195">
        <ele>381.39999389648</ele>
        <time>2013-03-02T11:18:00.000Z</time>
      </trkpt>
      <trkpt lat="43.62333" lon="5.73167">
        <ele>381.79998779297</ele>
        <time>2013-03-02T11:18:04.000Z</time>
      </trkpt>
      <trkpt lat="43.62344" lon="5.73141">
        <ele>382.79998779297</ele>
        <time>2013-03-02T11:18:08.000Z</time>
      </trkpt>
      <trkpt lat="43.62347" lon="5.73135">
        <ele>383</ele>
        <time>2013-03-02T11:18:09.000Z</time>
      </trkpt>
      <trkpt lat="43.62376" lon="5.73058">
        <ele>384.20001220703</ele>
        <time>2013-03-02T11:18:21.000Z</time>
      </trkpt>
      <trkpt lat="43.62397" lon="5.72983">
        <ele>384.79998779297</ele>
        <time>2013-03-02T11:18:33.000Z</time>
      </trkpt>
      <trkpt lat="43.62399" lon="5.72971">
        <ele>385.20001220703</ele>
        <time>2013-03-02T11:18:35.000Z</time>
      </trkpt>
      <trkpt lat="43.62403" lon="5.72894">
        <ele>386.60000610352</ele>
        <time>2013-03-02T11:18:47.000Z</time>
      </trkpt>
      <trkpt lat="43.62406" lon="5.72813">
        <ele>388.39999389648</ele>
        <time>2013-03-02T11:19:00.000Z</time>
      </trkpt>
      <trkpt lat="43.62408" lon="5.72789">
        <ele>389.20001220703</ele>
        <time>2013-03-02T11:19:04.000Z</time>
      </trkpt>
      <trkpt lat="43.62409" lon="5.72771">
        <ele>389.79998779297</ele>
        <time>2013-03-02T11:19:07.000Z</time>
      </trkpt>
      <trkpt lat="43.62411" lon="5.72765">
        <ele>390</ele>
        <time>2013-03-02T11:19:08.000Z</time>
      </trkpt>
      <trkpt lat="43.62412" lon="5.72759">
        <ele>390.20001220703</ele>
        <time>2013-03-02T11:19:09.000Z</time>
      </trkpt>
      <trkpt lat="43.62431" lon="5.72684">
        <ele>392.39999389648</ele>
        <time>2013-03-02T11:19:21.000Z</time>
      </trkpt>
      <trkpt lat="43.62439" lon="5.72597">
        <ele>392.39999389648</ele>
        <time>2013-03-02T11:19:32.000Z</time>
      </trkpt>
      <trkpt lat="43.62455" lon="5.72526">
        <ele>391.20001220703</ele>
        <time>2013-03-02T11:19:41.000Z</time>
      </trkpt>
      <trkpt lat="43.62484" lon="5.72439">
        <ele>391</ele>
        <time>2013-03-02T11:19:50.000Z</time>
      </trkpt>
      <trkpt lat="43.62486" lon="5.72428">
        <ele>391</ele>
        <time>2013-03-02T11:19:51.000Z</time>
      </trkpt>
      <trkpt lat="43.62486" lon="5.72417">
        <ele>391</ele>
        <time>2013-03-02T11:19:52.000Z</time>
      </trkpt>
      <trkpt lat="43.62488" lon="5.72393">
        <ele>389.60000610352</ele>
        <time>2013-03-02T11:19:54.000Z</time>
      </trkpt>
      <trkpt lat="43.6249" lon="5.72382">
        <ele>389</ele>
        <time>2013-03-02T11:19:55.000Z</time>
      </trkpt>
      <trkpt lat="43.62492" lon="5.72371">
        <ele>388.39999389648</ele>
        <time>2013-03-02T11:19:56.000Z</time>
      </trkpt>
      <trkpt lat="43.62496" lon="5.7236">
        <ele>387.60000610352</ele>
        <time>2013-03-02T11:19:57.000Z</time>
      </trkpt>
      <trkpt lat="43.62499" lon="5.72349">
        <ele>387</ele>
        <time>2013-03-02T11:19:58.000Z</time>
      </trkpt>
      <trkpt lat="43.62502" lon="5.72337">
        <ele>386.39999389648</ele>
        <time>2013-03-02T11:19:59.000Z</time>
      </trkpt>
      <trkpt lat="43.62504" lon="5.72325">
        <ele>385.39999389648</ele>
        <time>2013-03-02T11:20:00.000Z</time>
      </trkpt>
      <trkpt lat="43.62506" lon="5.72313">
        <ele>384.39999389648</ele>
        <time>2013-03-02T11:20:01.000Z</time>
      </trkpt>
      <trkpt lat="43.62516" lon="5.72264">
        <ele>380.79998779297</ele>
        <time>2013-03-02T11:20:05.000Z</time>
      </trkpt>
      <trkpt lat="43.62531" lon="5.72193">
        <ele>377</ele>
        <time>2013-03-02T11:20:11.000Z</time>
      </trkpt>
      <trkpt lat="43.62546" lon="5.72112">
        <ele>374.39999389648</ele>
        <time>2013-03-02T11:20:18.000Z</time>
      </trkpt>
      <trkpt lat="43.62548" lon="5.72101">
        <ele>374.20001220703</ele>
        <time>2013-03-02T11:20:19.000Z</time>
      </trkpt>
      <trkpt lat="43.6255" lon="5.7197">
        <ele>372</ele>
        <time>2013-03-02T11:20:30.000Z</time>
      </trkpt>
      <trkpt lat="43.62553" lon="5.71855">
        <ele>370.39999389648</ele>
        <time>2013-03-02T11:20:40.000Z</time>
      </trkpt>
      <trkpt lat="43.62556" lon="5.7171">
        <ele>365.39999389648</ele>
        <time>2013-03-02T11:20:53.000Z</time>
      </trkpt>
      <trkpt lat="43.6256" lon="5.71574">
        <ele>366</ele>
        <time>2013-03-02T11:21:06.000Z</time>
      </trkpt>
      <trkpt lat="43.62558" lon="5.71456">
        <ele>363.60000610352</ele>
        <time>2013-03-02T11:21:17.000Z</time>
      </trkpt>
      <trkpt lat="43.62546" lon="5.71363">
        <ele>363.79998779297</ele>
        <time>2013-03-02T11:21:27.000Z</time>
      </trkpt>
      <trkpt lat="43.62542" lon="5.71351">
        <ele>364</ele>
        <time>2013-03-02T11:21:30.000Z</time>
      </trkpt>
      <trkpt lat="43.62543" lon="5.71347">
        <ele>364.20001220703</ele>
        <time>2013-03-02T11:21:31.000Z</time>
      </trkpt>
      <trkpt lat="43.62545" lon="5.71342">
        <ele>364.39999389648</ele>
        <time>2013-03-02T11:21:32.000Z</time>
      </trkpt>
      <trkpt lat="43.62549" lon="5.71336">
        <ele>364.60000610352</ele>
        <time>2013-03-02T11:21:33.000Z</time>
      </trkpt>
      <trkpt lat="43.62553" lon="5.7133">
        <ele>364.60000610352</ele>
        <time>2013-03-02T11:21:34.000Z</time>
      </trkpt>
      <trkpt lat="43.62556" lon="5.71322">
        <ele>364</ele>
        <time>2013-03-02T11:21:35.000Z</time>
      </trkpt>
      <trkpt lat="43.6256" lon="5.71314">
        <ele>363.39999389648</ele>
        <time>2013-03-02T11:21:36.000Z</time>
      </trkpt>
      <trkpt lat="43.62563" lon="5.71305">
        <ele>362.79998779297</ele>
        <time>2013-03-02T11:21:37.000Z</time>
      </trkpt>
      <trkpt lat="43.62566" lon="5.71297">
        <ele>362.20001220703</ele>
        <time>2013-03-02T11:21:38.000Z</time>
      </trkpt>
      <trkpt lat="43.62569" lon="5.71288">
        <ele>361.60000610352</ele>
        <time>2013-03-02T11:21:39.000Z</time>
      </trkpt>
      <trkpt lat="43.62571" lon="5.71278">
        <ele>360.79998779297</ele>
        <time>2013-03-02T11:21:40.000Z</time>
      </trkpt>
      <trkpt lat="43.62573" lon="5.71266">
        <ele>360</ele>
        <time>2013-03-02T11:21:41.000Z</time>
      </trkpt>
      <trkpt lat="43.62576" lon="5.71254">
        <ele>359</ele>
        <time>2013-03-02T11:21:42.000Z</time>
      </trkpt>
      <trkpt lat="43.6258" lon="5.71243">
        <ele>358.39999389648</ele>
        <time>2013-03-02T11:21:43.000Z</time>
      </trkpt>
      <trkpt lat="43.62583" lon="5.71233">
        <ele>357.60000610352</ele>
        <time>2013-03-02T11:21:44.000Z</time>
      </trkpt>
      <trkpt lat="43.62592" lon="5.71206">
        <ele>357.20001220703</ele>
        <time>2013-03-02T11:21:47.000Z</time>
      </trkpt>
      <trkpt lat="43.62596" lon="5.712">
        <ele>357.39999389648</ele>
        <time>2013-03-02T11:21:48.000Z</time>
      </trkpt>
      <trkpt lat="43.62601" lon="5.71196">
        <ele>357.79998779297</ele>
        <time>2013-03-02T11:21:49.000Z</time>
      </trkpt>
      <trkpt lat="43.62622" lon="5.71184">
        <ele>360.20001220703</ele>
        <time>2013-03-02T11:21:54.000Z</time>
      </trkpt>
      <trkpt lat="43.62625" lon="5.71181">
        <ele>360.60000610352</ele>
        <time>2013-03-02T11:21:55.000Z</time>
      </trkpt>
      <trkpt lat="43.62629" lon="5.71178">
        <ele>360.79998779297</ele>
        <time>2013-03-02T11:21:56.000Z</time>
      </trkpt>
      <trkpt lat="43.62668" lon="5.71148">
        <ele>363.39999389648</ele>
        <time>2013-03-02T11:22:07.000Z</time>
      </trkpt>
      <trkpt lat="43.62715" lon="5.71123">
        <ele>365.39999389648</ele>
        <time>2013-03-02T11:22:20.000Z</time>
      </trkpt>
      <trkpt lat="43.62742" lon="5.71114">
        <ele>367.39999389648</ele>
        <time>2013-03-02T11:22:30.000Z</time>
      </trkpt>
      <trkpt lat="43.62771" lon="5.7111">
        <ele>371.20001220703</ele>
        <time>2013-03-02T11:22:44.000Z</time>
      </trkpt>
      <trkpt lat="43.62784" lon="5.71109">
        <ele>373.20001220703</ele>
        <time>2013-03-02T11:22:51.000Z</time>
      </trkpt>
      <trkpt lat="43.62802" lon="5.71107">
        <ele>376.20001220703</ele>
        <time>2013-03-02T11:23:02.000Z</time>
      </trkpt>
      <trkpt lat="43.62803" lon="5.71084">
        <ele>374.79998779297</ele>
        <time>2013-03-02T11:23:11.000Z</time>
      </trkpt>
      <trkpt lat="43.628" lon="5.71046">
        <ele>374</ele>
        <time>2013-03-02T11:23:21.000Z</time>
      </trkpt>
      <trkpt lat="43.62793" lon="5.70999">
        <ele>372.79998779297</ele>
        <time>2013-03-02T11:23:32.000Z</time>
      </trkpt>
      <trkpt lat="43.62788" lon="5.7095">
        <ele>371.39999389648</ele>
        <time>2013-03-02T11:23:43.000Z</time>
      </trkpt>
      <trkpt lat="43.62783" lon="5.70896">
        <ele>371.20001220703</ele>
        <time>2013-03-02T11:23:54.000Z</time>
      </trkpt>
      <trkpt lat="43.62775" lon="5.70846">
        <ele>371.79998779297</ele>
        <time>2013-03-02T11:24:04.000Z</time>
      </trkpt>
      <trkpt lat="43.62773" lon="5.70841">
        <ele>371.60000610352</ele>
        <time>2013-03-02T11:24:06.000Z</time>
      </trkpt>
      <trkpt lat="43.62754" lon="5.70837">
        <ele>369.20001220703</ele>
        <time>2013-03-02T11:24:15.000Z</time>
      </trkpt>
      <trkpt lat="43.62752" lon="5.70837">
        <ele>369</ele>
        <time>2013-03-02T11:24:16.000Z</time>
      </trkpt>
      <trkpt lat="43.62749" lon="5.70836">
        <ele>368.79998779297</ele>
        <time>2013-03-02T11:24:18.000Z</time>
      </trkpt>
      <trkpt lat="43.62725" lon="5.70834">
        <ele>366.39999389648</ele>
        <time>2013-03-02T11:24:26.000Z</time>
      </trkpt>
      <trkpt lat="43.62703" lon="5.70837">
        <ele>364.20001220703</ele>
        <time>2013-03-02T11:24:31.000Z</time>
      </trkpt>
      <trkpt lat="43.62676" lon="5.70843">
        <ele>361.39999389648</ele>
        <time>2013-03-02T11:24:40.000Z</time>
      </trkpt>
      <trkpt lat="43.62674" lon="5.70843">
        <ele>361.20001220703</ele>
        <time>2013-03-02T11:24:49.000Z</time>
      </trkpt>
      <trkpt lat="43.62671" lon="5.70841">
        <ele>361</ele>
        <time>2013-03-02T11:24:58.000Z</time>
      </trkpt>
      <trkpt lat="43.6267" lon="5.70841">
        <ele>360.79998779297</ele>
        <time>2013-03-02T11:25:04.000Z</time>
      </trkpt>
      <trkpt lat="43.62665" lon="5.70839">
        <ele>360.60000610352</ele>
        <time>2013-03-02T11:25:09.000Z</time>
      </trkpt>
      <trkpt lat="43.62645" lon="5.70834">
        <ele>359.79998779297</ele>
        <time>2013-03-02T11:25:18.000Z</time>
      </trkpt>
      <trkpt lat="43.62622" lon="5.70844">
        <ele>358.20001220703</ele>
        <time>2013-03-02T11:25:25.000Z</time>
      </trkpt>
      <trkpt lat="43.62592" lon="5.70861">
        <ele>355.60000610352</ele>
        <time>2013-03-02T11:25:33.000Z</time>
      </trkpt>
      <trkpt lat="43.62574" lon="5.70868">
        <ele>354.20001220703</ele>
        <time>2013-03-02T11:25:37.000Z</time>
      </trkpt>
      <trkpt lat="43.62555" lon="5.70871">
        <ele>352.60000610352</ele>
        <time>2013-03-02T11:25:41.000Z</time>
      </trkpt>
      <trkpt lat="43.62513" lon="5.70883">
        <ele>348.60000610352</ele>
        <time>2013-03-02T11:25:50.000Z</time>
      </trkpt>
      <trkpt lat="43.62489" lon="5.70887">
        <ele>346.39999389648</ele>
        <time>2013-03-02T11:25:56.000Z</time>
      </trkpt>
      <trkpt lat="43.6248" lon="5.70892">
        <ele>345.20001220703</ele>
        <time>2013-03-02T11:26:00.000Z</time>
      </trkpt>
      <trkpt lat="43.62469" lon="5.70875">
        <ele>345.20001220703</ele>
        <time>2013-03-02T11:26:07.000Z</time>
      </trkpt>
      <trkpt lat="43.62468" lon="5.70873">
        <ele>345.20001220703</ele>
        <time>2013-03-02T11:26:08.000Z</time>
      </trkpt>
      <trkpt lat="43.62462" lon="5.70869">
        <ele>344.79998779297</ele>
        <time>2013-03-02T11:26:17.000Z</time>
      </trkpt>
      <trkpt lat="43.6246" lon="5.70864">
        <ele>344.79998779297</ele>
        <time>2013-03-02T11:26:25.000Z</time>
      </trkpt>
      <trkpt lat="43.62458" lon="5.70865">
        <ele>344.60000610352</ele>
        <time>2013-03-02T11:26:40.000Z</time>
      </trkpt>
      <trkpt lat="43.62459" lon="5.70868">
        <ele>344.60000610352</ele>
        <time>2013-03-02T11:26:54.000Z</time>
      </trkpt>
      <trkpt lat="43.62457" lon="5.70874">
        <ele>344</ele>
        <time>2013-03-02T11:27:01.000Z</time>
      </trkpt>
      <trkpt lat="43.6245" lon="5.70882">
        <ele>343</ele>
        <time>2013-03-02T11:27:07.000Z</time>
      </trkpt>
      <trkpt lat="43.62443" lon="5.70887">
        <ele>342.20001220703</ele>
        <time>2013-03-02T11:27:17.000Z</time>
      </trkpt>
      <trkpt lat="43.62441" lon="5.70892">
        <ele>342</ele>
        <time>2013-03-02T11:27:27.000Z</time>
      </trkpt>
      <trkpt lat="43.62441" lon="5.70896">
        <ele>341.79998779297</ele>
        <time>2013-03-02T11:27:36.000Z</time>
      </trkpt>
      <trkpt lat="43.62437" lon="5.70897">
        <ele>341.60000610352</ele>
        <time>2013-03-02T11:27:47.000Z</time>
      </trkpt>
      <trkpt lat="43.6244" lon="5.70898">
        <ele>341.79998779297</ele>
        <time>2013-03-02T11:27:56.000Z</time>
      </trkpt>
      <trkpt lat="43.62445" lon="5.70896">
        <ele>342.20001220703</ele>
        <time>2013-03-02T11:28:00.000Z</time>
      </trkpt>
      <trkpt lat="43.62467" lon="5.709">
        <ele>343.79998779297</ele>
        <time>2013-03-02T11:28:10.000Z</time>
      </trkpt>
      <trkpt lat="43.62471" lon="5.70902">
        <ele>344</ele>
        <time>2013-03-02T11:28:17.000Z</time>
      </trkpt>
      <trkpt lat="43.62451" lon="5.70895">
        <ele>342.79998779297</ele>
        <time>2013-03-02T11:28:28.000Z</time>
      </trkpt>
      <trkpt lat="43.62433" lon="5.70898">
        <ele>341.20001220703</ele>
        <time>2013-03-02T11:28:37.000Z</time>
      </trkpt>
      <trkpt lat="43.62432" lon="5.70893">
        <ele>341.20001220703</ele>
        <time>2013-03-02T11:28:43.000Z</time>
      </trkpt>
      <trkpt lat="43.62429" lon="5.70884">
        <ele>341</ele>
        <time>2013-03-02T11:28:49.000Z</time>
      </trkpt>
      <trkpt lat="43.62426" lon="5.70877">
        <ele>340.79998779297</ele>
        <time>2013-03-02T11:28:54.000Z</time>
      </trkpt>
      <trkpt lat="43.6243" lon="5.70865">
        <ele>341.39999389648</ele>
        <time>2013-03-02T11:29:05.000Z</time>
      </trkpt>
      <trkpt lat="43.62432" lon="5.70856">
        <ele>341.79998779297</ele>
        <time>2013-03-02T11:29:13.000Z</time>
      </trkpt>
      <trkpt lat="43.6243" lon="5.70846">
        <ele>341.60000610352</ele>
        <time>2013-03-02T11:29:23.000Z</time>
      </trkpt>
      <trkpt lat="43.6243" lon="5.70846">
        <ele>341.60000610352</ele>
        <time>2013-03-02T11:29:28.000Z</time>
      </trkpt>
      <trkpt lat="43.62434" lon="5.70839">
        <ele>342.39999389648</ele>
        <time>2013-03-02T11:29:33.000Z</time>
      </trkpt>
      <trkpt lat="43.62458" lon="5.70812">
        <ele>345</ele>
        <time>2013-03-02T11:29:43.000Z</time>
      </trkpt>
      <trkpt lat="43.62494" lon="5.70771">
        <ele>347.39999389648</ele>
        <time>2013-03-02T11:29:55.000Z</time>
      </trkpt>
      <trkpt lat="43.62537" lon="5.70722">
        <ele>348.79998779297</ele>
        <time>2013-03-02T11:30:09.000Z</time>
      </trkpt>
      <trkpt lat="43.62557" lon="5.70697">
        <ele>349.60000610352</ele>
        <time>2013-03-02T11:30:19.000Z</time>
      </trkpt>
      <trkpt lat="43.62559" lon="5.70698">
        <ele>349.79998779297</ele>
        <time>2013-03-02T11:30:21.000Z</time>
      </trkpt>
      <trkpt lat="43.62559" lon="5.70699">
        <ele>349.79998779297</ele>
        <time>2013-03-02T11:30:22.000Z</time>
      </trkpt>
      <trkpt lat="43.62567" lon="5.707">
        <ele>350.60000610352</ele>
        <time>2013-03-02T11:30:26.000Z</time>
      </trkpt>
      <trkpt lat="43.62569" lon="5.70698">
        <ele>350.60000610352</ele>
        <time>2013-03-02T11:30:27.000Z</time>
      </trkpt>
      <trkpt lat="43.62585" lon="5.70676">
        <ele>351.39999389648</ele>
        <time>2013-03-02T11:30:35.000Z</time>
      </trkpt>
      <trkpt lat="43.62595" lon="5.70635">
        <ele>350.60000610352</ele>
        <time>2013-03-02T11:30:45.000Z</time>
      </trkpt>
      <trkpt lat="43.62611" lon="5.70582">
        <ele>350.39999389648</ele>
        <time>2013-03-02T11:30:56.000Z</time>
      </trkpt>
      <trkpt lat="43.62605" lon="5.70546">
        <ele>349.39999389648</ele>
        <time>2013-03-02T11:31:04.000Z</time>
      </trkpt>
      <trkpt lat="43.62604" lon="5.70495">
        <ele>349.20001220703</ele>
        <time>2013-03-02T11:31:14.000Z</time>
      </trkpt>
      <trkpt lat="43.62604" lon="5.70448">
        <ele>349.79998779297</ele>
        <time>2013-03-02T11:31:25.000Z</time>
      </trkpt>
      <trkpt lat="43.62619" lon="5.70432">
        <ele>351</ele>
        <time>2013-03-02T11:31:34.000Z</time>
      </trkpt>
      <trkpt lat="43.62625" lon="5.70425">
        <ele>351.39999389648</ele>
        <time>2013-03-02T11:31:43.000Z</time>
      </trkpt>
      <trkpt lat="43.62615" lon="5.70428">
        <ele>350.79998779297</ele>
        <time>2013-03-02T11:31:46.000Z</time>
      </trkpt>
      <trkpt lat="43.62602" lon="5.70424">
        <ele>349.79998779297</ele>
        <time>2013-03-02T11:31:49.000Z</time>
      </trkpt>
      <trkpt lat="43.62598" lon="5.7042">
        <ele>349.79998779297</ele>
        <time>2013-03-02T11:31:50.000Z</time>
      </trkpt>
      <trkpt lat="43.62597" lon="5.70414">
        <ele>349.60000610352</ele>
        <time>2013-03-02T11:31:51.000Z</time>
      </trkpt>
      <trkpt lat="43.62596" lon="5.70409">
        <ele>349.60000610352</ele>
        <time>2013-03-02T11:31:52.000Z</time>
      </trkpt>
      <trkpt lat="43.62595" lon="5.70406">
        <ele>349.39999389648</ele>
        <time>2013-03-02T11:31:53.000Z</time>
      </trkpt>
      <trkpt lat="43.62594" lon="5.70405">
        <ele>349.39999389648</ele>
        <time>2013-03-02T11:31:54.000Z</time>
      </trkpt>
      <trkpt lat="43.62592" lon="5.70402">
        <ele>349.20001220703</ele>
        <time>2013-03-02T11:31:57.000Z</time>
      </trkpt>
      <trkpt lat="43.62592" lon="5.70401">
        <ele>349</ele>
        <time>2013-03-02T11:31:58.000Z</time>
      </trkpt>
      <trkpt lat="43.62592" lon="5.704">
        <ele>349</ele>
        <time>2013-03-02T11:31:59.000Z</time>
      </trkpt>
      <trkpt lat="43.62592" lon="5.70397">
        <ele>349</ele>
        <time>2013-03-02T11:32:00.000Z</time>
      </trkpt>
      <trkpt lat="43.62593" lon="5.70353">
        <ele>348.20001220703</ele>
        <time>2013-03-02T11:32:09.000Z</time>
      </trkpt>
      <trkpt lat="43.62594" lon="5.70331">
        <ele>347.79998779297</ele>
        <time>2013-03-02T11:32:13.000Z</time>
      </trkpt>
      <trkpt lat="43.62594" lon="5.70249">
        <ele>347.60000610352</ele>
        <time>2013-03-02T11:32:27.000Z</time>
      </trkpt>
      <trkpt lat="43.62594" lon="5.70243">
        <ele>347.60000610352</ele>
        <time>2013-03-02T11:32:28.000Z</time>
      </trkpt>
      <trkpt lat="43.62594" lon="5.702">
        <ele>347.39999389648</ele>
        <time>2013-03-02T11:32:35.000Z</time>
      </trkpt>
      <trkpt lat="43.62598" lon="5.70144">
        <ele>347.20001220703</ele>
        <time>2013-03-02T11:32:47.000Z</time>
      </trkpt>
      <trkpt lat="43.62598" lon="5.70142">
        <ele>347</ele>
        <time>2013-03-02T11:32:57.000Z</time>
      </trkpt>
      <trkpt lat="43.62598" lon="5.70137">
        <ele>347.20001220703</ele>
        <time>2013-03-02T11:33:03.000Z</time>
      </trkpt>
      <trkpt lat="43.62596" lon="5.70133">
        <ele>346.79998779297</ele>
        <time>2013-03-02T11:33:10.000Z</time>
      </trkpt>
      <trkpt lat="43.62595" lon="5.70133">
        <ele>346.60000610352</ele>
        <time>2013-03-02T11:33:11.000Z</time>
      </trkpt>
      <trkpt lat="43.6259" lon="5.70131">
        <ele>346.20001220703</ele>
        <time>2013-03-02T11:33:14.000Z</time>
      </trkpt>
      <trkpt lat="43.62562" lon="5.70132">
        <ele>344.60000610352</ele>
        <time>2013-03-02T11:33:23.000Z</time>
      </trkpt>
      <trkpt lat="43.62519" lon="5.7014">
        <ele>343</ele>
        <time>2013-03-02T11:33:35.000Z</time>
      </trkpt>
      <trkpt lat="43.62466" lon="5.70153">
        <ele>342.79998779297</ele>
        <time>2013-03-02T11:33:45.000Z</time>
      </trkpt>
      <trkpt lat="43.62378" lon="5.70172">
        <ele>342.60000610352</ele>
        <time>2013-03-02T11:33:59.000Z</time>
      </trkpt>
      <trkpt lat="43.62372" lon="5.70173">
        <ele>342.39999389648</ele>
        <time>2013-03-02T11:34:00.000Z</time>
      </trkpt>
      <trkpt lat="43.62365" lon="5.70175">
        <ele>342.20001220703</ele>
        <time>2013-03-02T11:34:01.000Z</time>
      </trkpt>
      <trkpt lat="43.62286" lon="5.70179">
        <ele>339.79998779297</ele>
        <time>2013-03-02T11:34:13.000Z</time>
      </trkpt>
      <trkpt lat="43.6221" lon="5.70178">
        <ele>336</ele>
        <time>2013-03-02T11:34:24.000Z</time>
      </trkpt>
      <trkpt lat="43.62165" lon="5.70176">
        <ele>333</ele>
        <time>2013-03-02T11:34:30.000Z</time>
      </trkpt>
      <trkpt lat="43.62132" lon="5.70177">
        <ele>330.20001220703</ele>
        <time>2013-03-02T11:34:34.000Z</time>
      </trkpt>
      <trkpt lat="43.62114" lon="5.70178">
        <ele>328.60000610352</ele>
        <time>2013-03-02T11:34:36.000Z</time>
      </trkpt>
      <trkpt lat="43.62089" lon="5.70181">
        <ele>326.60000610352</ele>
        <time>2013-03-02T11:34:39.000Z</time>
      </trkpt>
      <trkpt lat="43.62062" lon="5.70186">
        <ele>325</ele>
        <time>2013-03-02T11:34:42.000Z</time>
      </trkpt>
      <trkpt lat="43.62028" lon="5.70194">
        <ele>323.39999389648</ele>
        <time>2013-03-02T11:34:46.000Z</time>
      </trkpt>
      <trkpt lat="43.61934" lon="5.70194">
        <ele>319.79998779297</ele>
        <time>2013-03-02T11:34:58.000Z</time>
      </trkpt>
      <trkpt lat="43.61918" lon="5.70193">
        <ele>319.20001220703</ele>
        <time>2013-03-02T11:35:00.000Z</time>
      </trkpt>
      <trkpt lat="43.61856" lon="5.70216">
        <ele>318.60000610352</ele>
        <time>2013-03-02T11:35:08.000Z</time>
      </trkpt>
      <trkpt lat="43.61825" lon="5.70241">
        <ele>318.20001220703</ele>
        <time>2013-03-02T11:35:12.000Z</time>
      </trkpt>
      <trkpt lat="43.61777" lon="5.70279">
        <ele>314.79998779297</ele>
        <time>2013-03-02T11:35:18.000Z</time>
      </trkpt>
      <trkpt lat="43.6172" lon="5.7032">
        <ele>311.39999389648</ele>
        <time>2013-03-02T11:35:25.000Z</time>
      </trkpt>
      <trkpt lat="43.61711" lon="5.70322">
        <ele>311</ele>
        <time>2013-03-02T11:35:26.000Z</time>
      </trkpt>
      <trkpt lat="43.61703" lon="5.70322">
        <ele>310.60000610352</ele>
        <time>2013-03-02T11:35:27.000Z</time>
      </trkpt>
      <trkpt lat="43.61695" lon="5.70318">
        <ele>310.20001220703</ele>
        <time>2013-03-02T11:35:28.000Z</time>
      </trkpt>
      <trkpt lat="43.61688" lon="5.7031">
        <ele>309.79998779297</ele>
        <time>2013-03-02T11:35:29.000Z</time>
      </trkpt>
      <trkpt lat="43.61684" lon="5.703">
        <ele>309.39999389648</ele>
        <time>2013-03-02T11:35:30.000Z</time>
      </trkpt>
      <trkpt lat="43.61681" lon="5.70287">
        <ele>309.20001220703</ele>
        <time>2013-03-02T11:35:31.000Z</time>
      </trkpt>
      <trkpt lat="43.6168" lon="5.70274">
        <ele>309</ele>
        <time>2013-03-02T11:35:32.000Z</time>
      </trkpt>
      <trkpt lat="43.61666" lon="5.70128">
        <ele>307</ele>
        <time>2013-03-02T11:35:43.000Z</time>
      </trkpt>
      <trkpt lat="43.61638" lon="5.70033">
        <ele>308.39999389648</ele>
        <time>2013-03-02T11:35:51.000Z</time>
      </trkpt>
      <trkpt lat="43.61595" lon="5.69927">
        <ele>311.39999389648</ele>
        <time>2013-03-02T11:36:02.000Z</time>
      </trkpt>
      <trkpt lat="43.6158" lon="5.69851">
        <ele>311</ele>
        <time>2013-03-02T11:36:09.000Z</time>
      </trkpt>
      <trkpt lat="43.61579" lon="5.6984">
        <ele>311</ele>
        <time>2013-03-02T11:36:10.000Z</time>
      </trkpt>
      <trkpt lat="43.61584" lon="5.69726">
        <ele>310.60000610352</ele>
        <time>2013-03-02T11:36:20.000Z</time>
      </trkpt>
      <trkpt lat="43.61574" lon="5.69643">
        <ele>312.20001220703</ele>
        <time>2013-03-02T11:36:28.000Z</time>
      </trkpt>
      <trkpt lat="43.6157" lon="5.69634">
        <ele>312.39999389648</ele>
        <time>2013-03-02T11:36:29.000Z</time>
      </trkpt>
      <trkpt lat="43.61567" lon="5.69625">
        <ele>312.60000610352</ele>
        <time>2013-03-02T11:36:30.000Z</time>
      </trkpt>
      <trkpt lat="43.61533" lon="5.69559">
        <ele>312.39999389648</ele>
        <time>2013-03-02T11:36:38.000Z</time>
      </trkpt>
      <trkpt lat="43.6153" lon="5.69549">
        <ele>312.39999389648</ele>
        <time>2013-03-02T11:36:39.000Z</time>
      </trkpt>
      <trkpt lat="43.61516" lon="5.69471">
        <ele>312.60000610352</ele>
        <time>2013-03-02T11:36:48.000Z</time>
      </trkpt>
      <trkpt lat="43.61514" lon="5.69462">
        <ele>312.60000610352</ele>
        <time>2013-03-02T11:36:49.000Z</time>
      </trkpt>
      <trkpt lat="43.61512" lon="5.69453">
        <ele>312.60000610352</ele>
        <time>2013-03-02T11:36:50.000Z</time>
      </trkpt>
      <trkpt lat="43.61511" lon="5.69444">
        <ele>312.60000610352</ele>
        <time>2013-03-02T11:36:51.000Z</time>
      </trkpt>
      <trkpt lat="43.61509" lon="5.69434">
        <ele>312.60000610352</ele>
        <time>2013-03-02T11:36:52.000Z</time>
      </trkpt>
      <trkpt lat="43.61491" lon="5.69344">
        <ele>313</ele>
        <time>2013-03-02T11:37:00.000Z</time>
      </trkpt>
      <trkpt lat="43.61488" lon="5.69239">
        <ele>315</ele>
        <time>2013-03-02T11:37:08.000Z</time>
      </trkpt>
      <trkpt lat="43.61486" lon="5.69226">
        <ele>315.39999389648</ele>
        <time>2013-03-02T11:37:09.000Z</time>
      </trkpt>
      <trkpt lat="43.61484" lon="5.69213">
        <ele>315.79998779297</ele>
        <time>2013-03-02T11:37:10.000Z</time>
      </trkpt>
      <trkpt lat="43.6148" lon="5.69201">
        <ele>316</ele>
        <time>2013-03-02T11:37:11.000Z</time>
      </trkpt>
      <trkpt lat="43.61475" lon="5.6919">
        <ele>315.79998779297</ele>
        <time>2013-03-02T11:37:12.000Z</time>
      </trkpt>
      <trkpt lat="43.61469" lon="5.69179">
        <ele>315.60000610352</ele>
        <time>2013-03-02T11:37:13.000Z</time>
      </trkpt>
      <trkpt lat="43.61428" lon="5.69091">
        <ele>314.20001220703</ele>
        <time>2013-03-02T11:37:21.000Z</time>
      </trkpt>
      <trkpt lat="43.61412" lon="5.68985">
        <ele>317</ele>
        <time>2013-03-02T11:37:29.000Z</time>
      </trkpt>
      <trkpt lat="43.61397" lon="5.68922">
        <ele>319.60000610352</ele>
        <time>2013-03-02T11:37:34.000Z</time>
      </trkpt>
      <trkpt lat="43.6139" lon="5.68912">
        <ele>319.60000610352</ele>
        <time>2013-03-02T11:37:35.000Z</time>
      </trkpt>
      <trkpt lat="43.61359" lon="5.6886">
        <ele>317</ele>
        <time>2013-03-02T11:37:40.000Z</time>
      </trkpt>
      <trkpt lat="43.61355" lon="5.68849">
        <ele>316</ele>
        <time>2013-03-02T11:37:41.000Z</time>
      </trkpt>
      <trkpt lat="43.61353" lon="5.68836">
        <ele>315</ele>
        <time>2013-03-02T11:37:42.000Z</time>
      </trkpt>
      <trkpt lat="43.61351" lon="5.68825">
        <ele>315</ele>
        <time>2013-03-02T11:37:43.000Z</time>
      </trkpt>
      <trkpt lat="43.61353" lon="5.68813">
        <ele>315.79998779297</ele>
        <time>2013-03-02T11:37:44.000Z</time>
      </trkpt>
      <trkpt lat="43.61359" lon="5.68801">
        <ele>316.79998779297</ele>
        <time>2013-03-02T11:37:45.000Z</time>
      </trkpt>
      <trkpt lat="43.61366" lon="5.68792">
        <ele>317.60000610352</ele>
        <time>2013-03-02T11:37:46.000Z</time>
      </trkpt>
      <trkpt lat="43.61373" lon="5.68782">
        <ele>318.20001220703</ele>
        <time>2013-03-02T11:37:47.000Z</time>
      </trkpt>
      <trkpt lat="43.6142" lon="5.68709">
        <ele>314.39999389648</ele>
        <time>2013-03-02T11:37:55.000Z</time>
      </trkpt>
      <trkpt lat="43.61424" lon="5.68698">
        <ele>313.79998779297</ele>
        <time>2013-03-02T11:37:56.000Z</time>
      </trkpt>
      <trkpt lat="43.61426" lon="5.68686">
        <ele>312.79998779297</ele>
        <time>2013-03-02T11:37:57.000Z</time>
      </trkpt>
      <trkpt lat="43.61428" lon="5.68675">
        <ele>311.79998779297</ele>
        <time>2013-03-02T11:37:58.000Z</time>
      </trkpt>
      <trkpt lat="43.6143" lon="5.68663">
        <ele>311</ele>
        <time>2013-03-02T11:37:59.000Z</time>
      </trkpt>
      <trkpt lat="43.61432" lon="5.68641">
        <ele>311.20001220703</ele>
        <time>2013-03-02T11:38:01.000Z</time>
      </trkpt>
      <trkpt lat="43.61432" lon="5.6863">
        <ele>311</ele>
        <time>2013-03-02T11:38:02.000Z</time>
      </trkpt>
      <trkpt lat="43.61431" lon="5.6862">
        <ele>310.60000610352</ele>
        <time>2013-03-02T11:38:03.000Z</time>
      </trkpt>
      <trkpt lat="43.61429" lon="5.68609">
        <ele>310.20001220703</ele>
        <time>2013-03-02T11:38:04.000Z</time>
      </trkpt>
      <trkpt lat="43.61427" lon="5.68598">
        <ele>309.60000610352</ele>
        <time>2013-03-02T11:38:05.000Z</time>
      </trkpt>
      <trkpt lat="43.61425" lon="5.68588">
        <ele>309.20001220703</ele>
        <time>2013-03-02T11:38:06.000Z</time>
      </trkpt>
      <trkpt lat="43.61417" lon="5.68557">
        <ele>307</ele>
        <time>2013-03-02T11:38:09.000Z</time>
      </trkpt>
      <trkpt lat="43.61416" lon="5.68546">
        <ele>306.79998779297</ele>
        <time>2013-03-02T11:38:10.000Z</time>
      </trkpt>
      <trkpt lat="43.61416" lon="5.68512">
        <ele>305.39999389648</ele>
        <time>2013-03-02T11:38:13.000Z</time>
      </trkpt>
      <trkpt lat="43.61418" lon="5.68501">
        <ele>305</ele>
        <time>2013-03-02T11:38:14.000Z</time>
      </trkpt>
      <trkpt lat="43.61421" lon="5.68489">
        <ele>305.20001220703</ele>
        <time>2013-03-02T11:38:15.000Z</time>
      </trkpt>
      <trkpt lat="43.61427" lon="5.68479">
        <ele>305.20001220703</ele>
        <time>2013-03-02T11:38:16.000Z</time>
      </trkpt>
      <trkpt lat="43.61433" lon="5.6847">
        <ele>305.39999389648</ele>
        <time>2013-03-02T11:38:17.000Z</time>
      </trkpt>
      <trkpt lat="43.6144" lon="5.68461">
        <ele>305.39999389648</ele>
        <time>2013-03-02T11:38:18.000Z</time>
      </trkpt>
      <trkpt lat="43.61479" lon="5.68412">
        <ele>302.60000610352</ele>
        <time>2013-03-02T11:38:23.000Z</time>
      </trkpt>
      <trkpt lat="43.61532" lon="5.6837">
        <ele>304</ele>
        <time>2013-03-02T11:38:29.000Z</time>
      </trkpt>
      <trkpt lat="43.61593" lon="5.68321">
        <ele>301</ele>
        <time>2013-03-02T11:38:37.000Z</time>
      </trkpt>
      <trkpt lat="43.61653" lon="5.68273">
        <ele>303.39999389648</ele>
        <time>2013-03-02T11:38:47.000Z</time>
      </trkpt>
      <trkpt lat="43.61718" lon="5.68225">
        <ele>300.79998779297</ele>
        <time>2013-03-02T11:38:59.000Z</time>
      </trkpt>
      <trkpt lat="43.61772" lon="5.68187">
        <ele>298.39999389648</ele>
        <time>2013-03-02T11:39:09.000Z</time>
      </trkpt>
      <trkpt lat="43.61812" lon="5.68159">
        <ele>297.20001220703</ele>
        <time>2013-03-02T11:39:15.000Z</time>
      </trkpt>
      <trkpt lat="43.61819" lon="5.68153">
        <ele>297.39999389648</ele>
        <time>2013-03-02T11:39:16.000Z</time>
      </trkpt>
      <trkpt lat="43.61825" lon="5.68147">
        <ele>297.20001220703</ele>
        <time>2013-03-02T11:39:17.000Z</time>
      </trkpt>
      <trkpt lat="43.6183" lon="5.6814">
        <ele>297</ele>
        <time>2013-03-02T11:39:18.000Z</time>
      </trkpt>
      <trkpt lat="43.61836" lon="5.68132">
        <ele>296.79998779297</ele>
        <time>2013-03-02T11:39:19.000Z</time>
      </trkpt>
      <trkpt lat="43.6184" lon="5.68123">
        <ele>296.39999389648</ele>
        <time>2013-03-02T11:39:20.000Z</time>
      </trkpt>
      <trkpt lat="43.61845" lon="5.68113">
        <ele>295.79998779297</ele>
        <time>2013-03-02T11:39:21.000Z</time>
      </trkpt>
      <trkpt lat="43.61849" lon="5.68103">
        <ele>295.20001220703</ele>
        <time>2013-03-02T11:39:22.000Z</time>
      </trkpt>
      <trkpt lat="43.61853" lon="5.68092">
        <ele>294.60000610352</ele>
        <time>2013-03-02T11:39:23.000Z</time>
      </trkpt>
      <trkpt lat="43.61892" lon="5.67966">
        <ele>291.39999389648</ele>
        <time>2013-03-02T11:39:34.000Z</time>
      </trkpt>
      <trkpt lat="43.61931" lon="5.67806">
        <ele>285.60000610352</ele>
        <time>2013-03-02T11:39:48.000Z</time>
      </trkpt>
      <trkpt lat="43.61936" lon="5.67796">
        <ele>285.39999389648</ele>
        <time>2013-03-02T11:39:49.000Z</time>
      </trkpt>
      <trkpt lat="43.6194" lon="5.67785">
        <ele>285.20001220703</ele>
        <time>2013-03-02T11:39:50.000Z</time>
      </trkpt>
      <trkpt lat="43.61946" lon="5.67776">
        <ele>285</ele>
        <time>2013-03-02T11:39:51.000Z</time>
      </trkpt>
      <trkpt lat="43.61952" lon="5.67767">
        <ele>285</ele>
        <time>2013-03-02T11:39:52.000Z</time>
      </trkpt>
      <trkpt lat="43.61958" lon="5.67759">
        <ele>284.79998779297</ele>
        <time>2013-03-02T11:39:53.000Z</time>
      </trkpt>
      <trkpt lat="43.61965" lon="5.67751">
        <ele>284.79998779297</ele>
        <time>2013-03-02T11:39:54.000Z</time>
      </trkpt>
      <trkpt lat="43.62056" lon="5.67674">
        <ele>285.79998779297</ele>
        <time>2013-03-02T11:40:06.000Z</time>
      </trkpt>
      <trkpt lat="43.62168" lon="5.67579">
        <ele>289.79998779297</ele>
        <time>2013-03-02T11:40:21.000Z</time>
      </trkpt>
      <trkpt lat="43.62188" lon="5.67557">
        <ele>290.39999389648</ele>
        <time>2013-03-02T11:40:24.000Z</time>
      </trkpt>
      <trkpt lat="43.62193" lon="5.67548">
        <ele>290.60000610352</ele>
        <time>2013-03-02T11:40:25.000Z</time>
      </trkpt>
      <trkpt lat="43.62198" lon="5.67538">
        <ele>290.60000610352</ele>
        <time>2013-03-02T11:40:26.000Z</time>
      </trkpt>
      <trkpt lat="43.62202" lon="5.67527">
        <ele>290.39999389648</ele>
        <time>2013-03-02T11:40:27.000Z</time>
      </trkpt>
      <trkpt lat="43.62205" lon="5.67515">
        <ele>290.20001220703</ele>
        <time>2013-03-02T11:40:28.000Z</time>
      </trkpt>
      <trkpt lat="43.62207" lon="5.67504">
        <ele>290</ele>
        <time>2013-03-02T11:40:29.000Z</time>
      </trkpt>
      <trkpt lat="43.62213" lon="5.67409">
        <ele>287.60000610352</ele>
        <time>2013-03-02T11:40:37.000Z</time>
      </trkpt>
      <trkpt lat="43.6221" lon="5.67259">
        <ele>285</ele>
        <time>2013-03-02T11:40:50.000Z</time>
      </trkpt>
      <trkpt lat="43.62194" lon="5.67168">
        <ele>285.60000610352</ele>
        <time>2013-03-02T11:40:58.000Z</time>
      </trkpt>
      <trkpt lat="43.62193" lon="5.67157">
        <ele>285.39999389648</ele>
        <time>2013-03-02T11:40:59.000Z</time>
      </trkpt>
      <trkpt lat="43.62193" lon="5.67145">
        <ele>285.39999389648</ele>
        <time>2013-03-02T11:41:00.000Z</time>
      </trkpt>
      <trkpt lat="43.62193" lon="5.67038">
        <ele>285</ele>
        <time>2013-03-02T11:41:10.000Z</time>
      </trkpt>
      <trkpt lat="43.62194" lon="5.66991">
        <ele>284.39999389648</ele>
        <time>2013-03-02T11:41:15.000Z</time>
      </trkpt>
      <trkpt lat="43.62195" lon="5.66981">
        <ele>284.20001220703</ele>
        <time>2013-03-02T11:41:16.000Z</time>
      </trkpt>
      <trkpt lat="43.62197" lon="5.66971">
        <ele>284</ele>
        <time>2013-03-02T11:41:17.000Z</time>
      </trkpt>
      <trkpt lat="43.622" lon="5.6696">
        <ele>283.79998779297</ele>
        <time>2013-03-02T11:41:18.000Z</time>
      </trkpt>
      <trkpt lat="43.62205" lon="5.6695">
        <ele>283.79998779297</ele>
        <time>2013-03-02T11:41:19.000Z</time>
      </trkpt>
      <trkpt lat="43.62211" lon="5.66942">
        <ele>283.79998779297</ele>
        <time>2013-03-02T11:41:20.000Z</time>
      </trkpt>
      <trkpt lat="43.62218" lon="5.66934">
        <ele>283.79998779297</ele>
        <time>2013-03-02T11:41:21.000Z</time>
      </trkpt>
      <trkpt lat="43.6228" lon="5.66881">
        <ele>286.20001220703</ele>
        <time>2013-03-02T11:41:30.000Z</time>
      </trkpt>
      <trkpt lat="43.62364" lon="5.66821">
        <ele>284.60000610352</ele>
        <time>2013-03-02T11:41:42.000Z</time>
      </trkpt>
      <trkpt lat="43.62473" lon="5.66731">
        <ele>281.20001220703</ele>
        <time>2013-03-02T11:41:57.000Z</time>
      </trkpt>
      <trkpt lat="43.62527" lon="5.66692">
        <ele>281.60000610352</ele>
        <time>2013-03-02T11:42:04.000Z</time>
      </trkpt>
      <trkpt lat="43.62533" lon="5.66685">
        <ele>282</ele>
        <time>2013-03-02T11:42:05.000Z</time>
      </trkpt>
      <trkpt lat="43.6254" lon="5.66677">
        <ele>282.20001220703</ele>
        <time>2013-03-02T11:42:06.000Z</time>
      </trkpt>
      <trkpt lat="43.62546" lon="5.66668">
        <ele>282.39999389648</ele>
        <time>2013-03-02T11:42:07.000Z</time>
      </trkpt>
      <trkpt lat="43.62551" lon="5.66658">
        <ele>282.39999389648</ele>
        <time>2013-03-02T11:42:08.000Z</time>
      </trkpt>
      <trkpt lat="43.62555" lon="5.66648">
        <ele>282.39999389648</ele>
        <time>2013-03-02T11:42:09.000Z</time>
      </trkpt>
      <trkpt lat="43.62573" lon="5.66621">
        <ele>282</ele>
        <time>2013-03-02T11:42:12.000Z</time>
      </trkpt>
      <trkpt lat="43.6258" lon="5.66614">
        <ele>282</ele>
        <time>2013-03-02T11:42:13.000Z</time>
      </trkpt>
      <trkpt lat="43.62587" lon="5.66608">
        <ele>282.20001220703</ele>
        <time>2013-03-02T11:42:14.000Z</time>
      </trkpt>
      <trkpt lat="43.62595" lon="5.66603">
        <ele>282.79998779297</ele>
        <time>2013-03-02T11:42:15.000Z</time>
      </trkpt>
      <trkpt lat="43.62602" lon="5.66599">
        <ele>283.39999389648</ele>
        <time>2013-03-02T11:42:16.000Z</time>
      </trkpt>
      <trkpt lat="43.6261" lon="5.66596">
        <ele>284</ele>
        <time>2013-03-02T11:42:17.000Z</time>
      </trkpt>
      <trkpt lat="43.62618" lon="5.66593">
        <ele>284.79998779297</ele>
        <time>2013-03-02T11:42:18.000Z</time>
      </trkpt>
      <trkpt lat="43.62634" lon="5.66585">
        <ele>285.39999389648</ele>
        <time>2013-03-02T11:42:20.000Z</time>
      </trkpt>
      <trkpt lat="43.62641" lon="5.66579">
        <ele>285.60000610352</ele>
        <time>2013-03-02T11:42:21.000Z</time>
      </trkpt>
      <trkpt lat="43.62648" lon="5.66572">
        <ele>285.60000610352</ele>
        <time>2013-03-02T11:42:22.000Z</time>
      </trkpt>
      <trkpt lat="43.62702" lon="5.66486">
        <ele>283.20001220703</ele>
        <time>2013-03-02T11:42:32.000Z</time>
      </trkpt>
      <trkpt lat="43.6271" lon="5.66466">
        <ele>283.60000610352</ele>
        <time>2013-03-02T11:42:34.000Z</time>
      </trkpt>
      <trkpt lat="43.62713" lon="5.66455">
        <ele>283.39999389648</ele>
        <time>2013-03-02T11:42:35.000Z</time>
      </trkpt>
      <trkpt lat="43.62715" lon="5.66444">
        <ele>283</ele>
        <time>2013-03-02T11:42:36.000Z</time>
      </trkpt>
      <trkpt lat="43.62716" lon="5.66432">
        <ele>282.39999389648</ele>
        <time>2013-03-02T11:42:37.000Z</time>
      </trkpt>
      <trkpt lat="43.62715" lon="5.66421">
        <ele>281.79998779297</ele>
        <time>2013-03-02T11:42:38.000Z</time>
      </trkpt>
      <trkpt lat="43.62714" lon="5.66409">
        <ele>281.20001220703</ele>
        <time>2013-03-02T11:42:39.000Z</time>
      </trkpt>
      <trkpt lat="43.62712" lon="5.66398">
        <ele>280.79998779297</ele>
        <time>2013-03-02T11:42:40.000Z</time>
      </trkpt>
      <trkpt lat="43.62712" lon="5.66386">
        <ele>280.39999389648</ele>
        <time>2013-03-02T11:42:41.000Z</time>
      </trkpt>
      <trkpt lat="43.62712" lon="5.66375">
        <ele>280.20001220703</ele>
        <time>2013-03-02T11:42:42.000Z</time>
      </trkpt>
      <trkpt lat="43.62714" lon="5.66363">
        <ele>279.79998779297</ele>
        <time>2013-03-02T11:42:43.000Z</time>
      </trkpt>
      <trkpt lat="43.62716" lon="5.66351">
        <ele>279.60000610352</ele>
        <time>2013-03-02T11:42:44.000Z</time>
      </trkpt>
      <trkpt lat="43.62721" lon="5.6634">
        <ele>279.39999389648</ele>
        <time>2013-03-02T11:42:45.000Z</time>
      </trkpt>
      <trkpt lat="43.62726" lon="5.6633">
        <ele>279.20001220703</ele>
        <time>2013-03-02T11:42:46.000Z</time>
      </trkpt>
      <trkpt lat="43.62732" lon="5.66321">
        <ele>278.79998779297</ele>
        <time>2013-03-02T11:42:47.000Z</time>
      </trkpt>
      <trkpt lat="43.62738" lon="5.66312">
        <ele>278.39999389648</ele>
        <time>2013-03-02T11:42:48.000Z</time>
      </trkpt>
      <trkpt lat="43.62745" lon="5.66303">
        <ele>278</ele>
        <time>2013-03-02T11:42:49.000Z</time>
      </trkpt>
      <trkpt lat="43.62752" lon="5.66296">
        <ele>278</ele>
        <time>2013-03-02T11:42:50.000Z</time>
      </trkpt>
      <trkpt lat="43.6276" lon="5.66289">
        <ele>278.60000610352</ele>
        <time>2013-03-02T11:42:51.000Z</time>
      </trkpt>
      <trkpt lat="43.62767" lon="5.66283">
        <ele>279.20001220703</ele>
        <time>2013-03-02T11:42:52.000Z</time>
      </trkpt>
      <trkpt lat="43.62775" lon="5.66278">
        <ele>279.60000610352</ele>
        <time>2013-03-02T11:42:53.000Z</time>
      </trkpt>
      <trkpt lat="43.62783" lon="5.66273">
        <ele>280</ele>
        <time>2013-03-02T11:42:54.000Z</time>
      </trkpt>
      <trkpt lat="43.6279" lon="5.66269">
        <ele>280.39999389648</ele>
        <time>2013-03-02T11:42:55.000Z</time>
      </trkpt>
      <trkpt lat="43.62874" lon="5.66222">
        <ele>286.20001220703</ele>
        <time>2013-03-02T11:43:06.000Z</time>
      </trkpt>
      <trkpt lat="43.62888" lon="5.66207">
        <ele>286.20001220703</ele>
        <time>2013-03-02T11:43:08.000Z</time>
      </trkpt>
      <trkpt lat="43.62893" lon="5.66198">
        <ele>285.79998779297</ele>
        <time>2013-03-02T11:43:09.000Z</time>
      </trkpt>
      <trkpt lat="43.62899" lon="5.66188">
        <ele>285</ele>
        <time>2013-03-02T11:43:10.000Z</time>
      </trkpt>
      <trkpt lat="43.62903" lon="5.66178">
        <ele>284</ele>
        <time>2013-03-02T11:43:11.000Z</time>
      </trkpt>
      <trkpt lat="43.62907" lon="5.66167">
        <ele>282.79998779297</ele>
        <time>2013-03-02T11:43:12.000Z</time>
      </trkpt>
      <trkpt lat="43.62911" lon="5.66156">
        <ele>282.39999389648</ele>
        <time>2013-03-02T11:43:13.000Z</time>
      </trkpt>
      <trkpt lat="43.62914" lon="5.66145">
        <ele>281.79998779297</ele>
        <time>2013-03-02T11:43:14.000Z</time>
      </trkpt>
      <trkpt lat="43.62949" lon="5.66014">
        <ele>275</ele>
        <time>2013-03-02T11:43:25.000Z</time>
      </trkpt>
      <trkpt lat="43.62985" lon="5.65885">
        <ele>274.79998779297</ele>
        <time>2013-03-02T11:43:35.000Z</time>
      </trkpt>
      <trkpt lat="43.63027" lon="5.65739">
        <ele>275.20001220703</ele>
        <time>2013-03-02T11:43:46.000Z</time>
      </trkpt>
      <trkpt lat="43.63063" lon="5.65612">
        <ele>275.39999389648</ele>
        <time>2013-03-02T11:43:56.000Z</time>
      </trkpt>
      <trkpt lat="43.63113" lon="5.65474">
        <ele>274.20001220703</ele>
        <time>2013-03-02T11:44:09.000Z</time>
      </trkpt>
      <trkpt lat="43.63161" lon="5.65349">
        <ele>275.60000610352</ele>
        <time>2013-03-02T11:44:21.000Z</time>
      </trkpt>
      <trkpt lat="43.63171" lon="5.6533">
        <ele>276</ele>
        <time>2013-03-02T11:44:23.000Z</time>
      </trkpt>
      <trkpt lat="43.63176" lon="5.65323">
        <ele>276</ele>
        <time>2013-03-02T11:44:24.000Z</time>
      </trkpt>
      <trkpt lat="43.63239" lon="5.65264">
        <ele>277</ele>
        <time>2013-03-02T11:44:33.000Z</time>
      </trkpt>
      <trkpt lat="43.63245" lon="5.65256">
        <ele>277</ele>
        <time>2013-03-02T11:44:34.000Z</time>
      </trkpt>
      <trkpt lat="43.6325" lon="5.65246">
        <ele>276.60000610352</ele>
        <time>2013-03-02T11:44:35.000Z</time>
      </trkpt>
      <trkpt lat="43.63254" lon="5.65235">
        <ele>276.39999389648</ele>
        <time>2013-03-02T11:44:36.000Z</time>
      </trkpt>
      <trkpt lat="43.63258" lon="5.65225">
        <ele>276.39999389648</ele>
        <time>2013-03-02T11:44:37.000Z</time>
      </trkpt>
      <trkpt lat="43.63294" lon="5.65108">
        <ele>278.39999389648</ele>
        <time>2013-03-02T11:44:48.000Z</time>
      </trkpt>
      <trkpt lat="43.63299" lon="5.65087">
        <ele>279.20001220703</ele>
        <time>2013-03-02T11:44:50.000Z</time>
      </trkpt>
      <trkpt lat="43.633" lon="5.65076">
        <ele>279.60000610352</ele>
        <time>2013-03-02T11:44:51.000Z</time>
      </trkpt>
      <trkpt lat="43.63299" lon="5.65065">
        <ele>279.79998779297</ele>
        <time>2013-03-02T11:44:52.000Z</time>
      </trkpt>
      <trkpt lat="43.63296" lon="5.65055">
        <ele>279.79998779297</ele>
        <time>2013-03-02T11:44:53.000Z</time>
      </trkpt>
      <trkpt lat="43.63292" lon="5.65045">
        <ele>279.79998779297</ele>
        <time>2013-03-02T11:44:54.000Z</time>
      </trkpt>
      <trkpt lat="43.6329" lon="5.65039">
        <ele>279.79998779297</ele>
        <time>2013-03-02T11:44:55.000Z</time>
      </trkpt>
      <trkpt lat="43.63281" lon="5.65026">
        <ele>279.39999389648</ele>
        <time>2013-03-02T11:44:56.000Z</time>
      </trkpt>
      <trkpt lat="43.63274" lon="5.65018">
        <ele>279.20001220703</ele>
        <time>2013-03-02T11:44:57.000Z</time>
      </trkpt>
      <trkpt lat="43.63267" lon="5.65011">
        <ele>278.79998779297</ele>
        <time>2013-03-02T11:44:58.000Z</time>
      </trkpt>
      <trkpt lat="43.63259" lon="5.65005">
        <ele>278.39999389648</ele>
        <time>2013-03-02T11:44:59.000Z</time>
      </trkpt>
      <trkpt lat="43.63251" lon="5.65">
        <ele>278</ele>
        <time>2013-03-02T11:45:00.000Z</time>
      </trkpt>
      <trkpt lat="43.63243" lon="5.64996">
        <ele>277.60000610352</ele>
        <time>2013-03-02T11:45:01.000Z</time>
      </trkpt>
      <trkpt lat="43.6321" lon="5.64981">
        <ele>275.39999389648</ele>
        <time>2013-03-02T11:45:05.000Z</time>
      </trkpt>
      <trkpt lat="43.63202" lon="5.64975">
        <ele>275</ele>
        <time>2013-03-02T11:45:06.000Z</time>
      </trkpt>
      <trkpt lat="43.63194" lon="5.64969">
        <ele>274.60000610352</ele>
        <time>2013-03-02T11:45:07.000Z</time>
      </trkpt>
      <trkpt lat="43.63187" lon="5.64962">
        <ele>274.20001220703</ele>
        <time>2013-03-02T11:45:08.000Z</time>
      </trkpt>
      <trkpt lat="43.63182" lon="5.64954">
        <ele>274</ele>
        <time>2013-03-02T11:45:09.000Z</time>
      </trkpt>
      <trkpt lat="43.63179" lon="5.64943">
        <ele>274.20001220703</ele>
        <time>2013-03-02T11:45:10.000Z</time>
      </trkpt>
      <trkpt lat="43.6318" lon="5.64931">
        <ele>274.79998779297</ele>
        <time>2013-03-02T11:45:11.000Z</time>
      </trkpt>
      <trkpt lat="43.63184" lon="5.6492">
        <ele>275.60000610352</ele>
        <time>2013-03-02T11:45:12.000Z</time>
      </trkpt>
      <trkpt lat="43.63189" lon="5.64909">
        <ele>275.79998779297</ele>
        <time>2013-03-02T11:45:13.000Z</time>
      </trkpt>
      <trkpt lat="43.63195" lon="5.64899">
        <ele>275.79998779297</ele>
        <time>2013-03-02T11:45:14.000Z</time>
      </trkpt>
      <trkpt lat="43.63201" lon="5.6489">
        <ele>276</ele>
        <time>2013-03-02T11:45:15.000Z</time>
      </trkpt>
      <trkpt lat="43.63254" lon="5.64789">
        <ele>274.60000610352</ele>
        <time>2013-03-02T11:45:25.000Z</time>
      </trkpt>
      <trkpt lat="43.63278" lon="5.64727">
        <ele>276</ele>
        <time>2013-03-02T11:45:31.000Z</time>
      </trkpt>
      <trkpt lat="43.63323" lon="5.64631">
        <ele>276.79998779297</ele>
        <time>2013-03-02T11:45:41.000Z</time>
      </trkpt>
      <trkpt lat="43.63326" lon="5.64621">
        <ele>276.79998779297</ele>
        <time>2013-03-02T11:45:42.000Z</time>
      </trkpt>
      <trkpt lat="43.63337" lon="5.64515">
        <ele>276.39999389648</ele>
        <time>2013-03-02T11:45:52.000Z</time>
      </trkpt>
      <trkpt lat="43.63326" lon="5.64436">
        <ele>272.79998779297</ele>
        <time>2013-03-02T11:45:59.000Z</time>
      </trkpt>
      <trkpt lat="43.63314" lon="5.6438">
        <ele>269.79998779297</ele>
        <time>2013-03-02T11:46:04.000Z</time>
      </trkpt>
      <trkpt lat="43.63314" lon="5.64369">
        <ele>269.20001220703</ele>
        <time>2013-03-02T11:46:05.000Z</time>
      </trkpt>
      <trkpt lat="43.63318" lon="5.64358">
        <ele>268.79998779297</ele>
        <time>2013-03-02T11:46:06.000Z</time>
      </trkpt>
      <trkpt lat="43.63324" lon="5.64349">
        <ele>268.60000610352</ele>
        <time>2013-03-02T11:46:07.000Z</time>
      </trkpt>
      <trkpt lat="43.63332" lon="5.64342">
        <ele>268.39999389648</ele>
        <time>2013-03-02T11:46:08.000Z</time>
      </trkpt>
      <trkpt lat="43.63341" lon="5.64339">
        <ele>268.60000610352</ele>
        <time>2013-03-02T11:46:09.000Z</time>
      </trkpt>
      <trkpt lat="43.6335" lon="5.64339">
        <ele>269.20001220703</ele>
        <time>2013-03-02T11:46:10.000Z</time>
      </trkpt>
      <trkpt lat="43.63358" lon="5.64341">
        <ele>269.79998779297</ele>
        <time>2013-03-02T11:46:11.000Z</time>
      </trkpt>
      <trkpt lat="43.63367" lon="5.64343">
        <ele>270.60000610352</ele>
        <time>2013-03-02T11:46:12.000Z</time>
      </trkpt>
      <trkpt lat="43.63375" lon="5.64346">
        <ele>271.60000610352</ele>
        <time>2013-03-02T11:46:13.000Z</time>
      </trkpt>
      <trkpt lat="43.634" lon="5.6435">
        <ele>274</ele>
        <time>2013-03-02T11:46:16.000Z</time>
      </trkpt>
      <trkpt lat="43.63408" lon="5.64348">
        <ele>274.20001220703</ele>
        <time>2013-03-02T11:46:17.000Z</time>
      </trkpt>
      <trkpt lat="43.63416" lon="5.64346">
        <ele>274.39999389648</ele>
        <time>2013-03-02T11:46:18.000Z</time>
      </trkpt>
      <trkpt lat="43.63526" lon="5.64304">
        <ele>270</ele>
        <time>2013-03-02T11:46:32.000Z</time>
      </trkpt>
      <trkpt lat="43.63534" lon="5.64302">
        <ele>269.60000610352</ele>
        <time>2013-03-02T11:46:33.000Z</time>
      </trkpt>
      <trkpt lat="43.63541" lon="5.64301">
        <ele>269</ele>
        <time>2013-03-02T11:46:34.000Z</time>
      </trkpt>
      <trkpt lat="43.6355" lon="5.64302">
        <ele>268.79998779297</ele>
        <time>2013-03-02T11:46:35.000Z</time>
      </trkpt>
      <trkpt lat="43.63589" lon="5.64306">
        <ele>267.20001220703</ele>
        <time>2013-03-02T11:46:40.000Z</time>
      </trkpt>
      <trkpt lat="43.63656" lon="5.64296">
        <ele>266.79998779297</ele>
        <time>2013-03-02T11:46:49.000Z</time>
      </trkpt>
      <trkpt lat="43.6367" lon="5.64289">
        <ele>267.39999389648</ele>
        <time>2013-03-02T11:46:52.000Z</time>
      </trkpt>
      <trkpt lat="43.63674" lon="5.64285">
        <ele>268</ele>
        <time>2013-03-02T11:46:53.000Z</time>
      </trkpt>
      <trkpt lat="43.63678" lon="5.6428">
        <ele>268.39999389648</ele>
        <time>2013-03-02T11:46:54.000Z</time>
      </trkpt>
      <trkpt lat="43.63681" lon="5.64273">
        <ele>269</ele>
        <time>2013-03-02T11:46:55.000Z</time>
      </trkpt>
      <trkpt lat="43.63684" lon="5.64265">
        <ele>269.20001220703</ele>
        <time>2013-03-02T11:46:56.000Z</time>
      </trkpt>
      <trkpt lat="43.63686" lon="5.64257">
        <ele>269.39999389648</ele>
        <time>2013-03-02T11:46:57.000Z</time>
      </trkpt>
      <trkpt lat="43.63697" lon="5.64204">
        <ele>270.79998779297</ele>
        <time>2013-03-02T11:47:04.000Z</time>
      </trkpt>
      <trkpt lat="43.63716" lon="5.6412">
        <ele>273.20001220703</ele>
        <time>2013-03-02T11:47:15.000Z</time>
      </trkpt>
      <trkpt lat="43.63725" lon="5.64021">
        <ele>274.20001220703</ele>
        <time>2013-03-02T11:47:28.000Z</time>
      </trkpt>
      <trkpt lat="43.63718" lon="5.63946">
        <ele>273.20001220703</ele>
        <time>2013-03-02T11:47:39.000Z</time>
      </trkpt>
      <trkpt lat="43.63717" lon="5.6394">
        <ele>273.20001220703</ele>
        <time>2013-03-02T11:47:40.000Z</time>
      </trkpt>
      <trkpt lat="43.63714" lon="5.6391">
        <ele>272.79998779297</ele>
        <time>2013-03-02T11:47:45.000Z</time>
      </trkpt>
      <trkpt lat="43.63709" lon="5.63866">
        <ele>272.60000610352</ele>
        <time>2013-03-02T11:47:54.000Z</time>
      </trkpt>
      <trkpt lat="43.63699" lon="5.63817">
        <ele>271.39999389648</ele>
        <time>2013-03-02T11:48:04.000Z</time>
      </trkpt>
      <trkpt lat="43.63696" lon="5.638">
        <ele>271</ele>
        <time>2013-03-02T11:48:11.000Z</time>
      </trkpt>
    </trkseg>
  </trk>
</gpx>